[[{"header":{"parameterUnit":"m.s-1","parameterCategory":1,"la1":30.6,"la2":29.2853,"lo1":-89.7004,"lo2":-87.6739,"dy":0.0162,"dx":0.0183,"nx":112,"ny":82,"refTime":"2024-07-20T06:00:00:Z","depth":0,"parameterNumber":2,"parameterNumberName":"U-component_of_WINDS"},"data":[0.0,0.0,0.0,0.0,0.0,0.0,0.0,0.0,0.0,0.0,0.0,0.0,0.0,0.0,0.0,0.0,0.0,0.0,0.0,0.0,0.0,0.0,0.0,0.0,0.0,0.0,0.0,0.0,0.0,0.0,0.0,0.0,0.0,0.0,0.0,0.0,0.0,0.0,0.0,0.0,0.0,0.0,0.0,0.0,0.0,0.0,0.0,0.0,0.0,0.0,0.0,0.0,0.0,0.0,0.0,0.0,0.0,0.0,0.0,0.0,0.0,0.0,0.0,0.0,0.0,0.0,0.0,0.0,0.0,0.0,0.0,0.0,0.0,0.0,0.0,0.0,0.0,0.0,0.0,0.0,0.0,0.0,0.0,0.0,0.0,0.0,0.0,0.0,0.0,0.0,0.0,-3.1142,-3.5853,-3.8162,-3.6869,-3.5519,-3.2511,-2.7283,0.0,0.0,0.0,0.0,0.0,0.0,0.0,0.0,0.0,0.0,0.0,0.0,0.0,0.0,0.0,0.0,0.0,0.0,0.0,0.0,0.0,0.0,0.0,0.0,0.0,0.0,0.0,0.0,0.0,0.0,0.0,0.0,0.0,0.0,0.0,0.0,0.0,0.0,0.0,0.0,0.0,0.0,0.0,0.0,0.0,0.0,0.0,0.0,0.0,0.0,0.0,0.0,0.0,0.0,0.0,0.0,0.0,0.0,0.0,0.0,0.0,0.0,0.0,0.0,0.0,0.0,0.0,0.0,0.0,0.0,0.0,0.0,0.0,0.0,0.0,0.0,0.0,0.0,0.0,0.0,0.0,0.0,0.0,0.0,0.0,0.0,0.0,0.0,0.0,0.0,0.0,0.0,0.0,0.0,0.0,0.0,0.0,0.0,0.0,0.0,0.0,0.0,0.0,0.0,-2.7761,-3.5236,-3.8176,-3.9139,-3.7951,-3.5485,-3.2284,-2.8319,0.0,0.0,0.0,0.0,0.0,0.0,0.0,0.0,0.0,0.0,0.0,0.0,0.0,0.0,0.0,0.0,0.0,0.0,0.0,0.0,0.0,0.0,0.0,0.0,0.0,0.0,0.0,0.0,0.0,0.0,0.0,0.0,0.0,0.0,0.0,0.0,0.0,0.0,0.0,0.0,0.0,0.0,0.0,0.0,0.0,0.0,0.0,0.0,0.0,0.0,0.0,0.0,0.0,0.0,0.0,0.0,0.0,0.0,0.0,0.0,0.0,0.0,0.0,0.0,0.0,0.0,0.0,0.0,0.0,0.0,0.0,0.0,0.0,0.0,0.0,0.0,0.0,0.0,0.0,0.0,0.0,0.0,0.0,0.0,0.0,0.0,0.0,0.0,0.0,0.0,0.0,0.0,0.0,0.0,0.0,0.0,0.0,0.0,0.0,0.0,0.0,0.0,0.0,-2.6836,-3.0914,-3.6949,-3.8919,-3.9435,-3.8549,-3.5971,-3.2703,-2.8715,-2.4586,0.0,0.0,0.0,0.0,0.0,0.0,0.0,0.0,0.0,0.0,0.0,0.0,0.0,0.0,0.0,0.0,0.0,0.0,0.0,0.0,0.0,0.0,0.0,0.0,0.0,0.0,0.0,0.0,0.0,0.0,0.0,0.0,0.0,0.0,0.0,0.0,0.0,0.0,0.0,0.0,0.0,0.0,0.0,0.0,0.0,0.0,0.0,0.0,0.0,0.0,0.0,0.0,0.0,0.0,0.0,0.0,0.0,0.0,0.0,0.0,0.0,0.0,0.0,0.0,0.0,0.0,0.0,0.0,0.0,0.0,0.0,0.0,0.0,0.0,0.0,0.0,0.0,0.0,0.0,0.0,0.0,0.0,0.0,0.0,0.0,0.0,0.0,0.0,0.0,0.0,0.0,0.0,0.0,0.0,0.0,0.0,0.0,0.0,0.0,0.0,0.0,0.0,-3.1276,-3.4172,-3.8029,-3.9221,-3.9488,-3.8848,-3.5978,-3.2636,-2.8924,-2.4095,0.0,0.0,0.0,0.0,0.0,0.0,0.0,0.0,0.0,0.0,0.0,0.0,0.0,0.0,0.0,0.0,0.0,0.0,0.0,0.0,0.0,0.0,0.0,0.0,0.0,0.0,0.0,0.0,0.0,0.0,0.0,0.0,0.0,0.0,0.0,0.0,0.0,0.0,0.0,0.0,0.0,0.0,0.0,0.0,0.0,0.0,0.0,0.0,0.0,0.0,0.0,0.0,0.0,0.0,0.0,0.0,0.0,0.0,0.0,0.0,0.0,0.0,0.0,0.0,0.0,0.0,0.0,0.0,0.0,0.0,0.0,0.0,0.0,0.0,0.0,0.0,0.0,0.0,0.0,0.0,0.0,0.0,0.0,0.0,0.0,0.0,0.0,0.0,0.0,0.0,0.0,0.0,0.0,0.0,0.0,0.0,0.0,0.0,0.0,0.0,0.0,0.0,-3.268,-3.6396,-3.9194,-3.9574,-3.9392,-3.884,-3.4741,-3.1285,-2.9107,-2.2487,0.0,0.0,0.0,0.0,0.0,0.0,0.0,0.0,0.0,0.0,0.0,0.0,0.0,0.0,0.0,0.0,0.0,0.0,0.0,0.0,0.0,0.0,0.0,0.0,0.0,0.0,0.0,0.0,0.0,0.0,0.0,0.0,0.0,0.0,0.0,0.0,0.0,0.0,0.0,0.0,0.0,0.0,0.0,0.0,0.0,0.0,0.0,0.0,0.0,0.0,0.0,0.0,0.0,0.0,0.0,0.0,0.0,0.0,0.0,0.0,0.0,0.0,0.0,0.0,0.0,0.0,0.0,0.0,0.0,0.0,0.0,0.0,0.0,0.0,0.0,0.0,0.0,0.0,0.0,0.0,0.0,0.0,0.0,0.0,0.0,0.0,0.0,0.0,0.0,0.0,0.0,0.0,0.0,0.0,0.0,0.0,0.0,0.0,0.0,0.0,0.0,0.0,-3.1919,-3.5383,0.0,-3.9739,-3.9832,-3.9629,-3.6005,-3.2401,-2.9272,0.0,0.0,0.0,0.0,0.0,0.0,0.0,0.0,0.0,0.0,0.0,0.0,0.0,0.0,0.0,0.0,0.0,0.0,0.0,0.0,0.0,0.0,0.0,0.0,0.0,0.0,0.0,0.0,0.0,0.0,0.0,0.0,0.0,0.0,0.0,0.0,0.0,0.0,0.0,0.0,0.0,0.0,0.0,0.0,0.0,0.0,0.0,0.0,0.0,0.0,0.0,0.0,0.0,0.0,0.0,0.0,0.0,0.0,0.0,0.0,0.0,0.0,0.0,0.0,0.0,0.0,0.0,0.0,0.0,0.0,0.0,0.0,0.0,0.0,0.0,0.0,0.0,0.0,0.0,0.0,0.0,0.0,0.0,0.0,0.0,0.0,0.0,0.0,0.0,0.0,0.0,0.0,0.0,0.0,0.0,0.0,0.0,0.0,0.0,0.0,0.0,0.0,-2.8939,-3.2124,-3.5383,0.0,-4.0004,-3.9986,-3.971,-3.6175,-3.2518,-2.9078,0.0,0.0,0.0,0.0,0.0,0.0,0.0,0.0,0.0,0.0,0.0,0.0,0.0,0.0,0.0,0.0,0.0,0.0,0.0,0.0,0.0,0.0,0.0,0.0,0.0,0.0,0.0,0.0,0.0,0.0,0.0,0.0,0.0,0.0,0.0,0.0,0.0,0.0,0.0,0.0,0.0,0.0,0.0,0.0,0.0,0.0,0.0,0.0,0.0,0.0,0.0,0.0,0.0,0.0,0.0,0.0,0.0,0.0,0.0,0.0,0.0,0.0,0.0,0.0,0.0,0.0,0.0,0.0,0.0,0.0,0.0,0.0,0.0,0.0,0.0,0.0,0.0,0.0,0.0,0.0,0.0,0.0,0.0,0.0,0.0,0.0,0.0,0.0,0.0,0.0,0.0,0.0,0.0,0.0,0.0,0.0,0.0,0.0,0.0,0.0,0.0,0.0,-3.0234,-3.3724,-3.7012,-4.0447,-4.0376,-3.9757,-3.888,-3.4775,-3.1146,0.0,0.0,0.0,0.0,0.0,0.0,0.0,0.0,0.0,0.0,0.0,0.0,0.0,0.0,0.0,0.0,0.0,0.0,0.0,0.0,0.0,0.0,0.0,0.0,0.0,0.0,0.0,0.0,0.0,0.0,0.0,0.0,0.0,0.0,0.0,0.0,0.0,0.0,0.0,0.0,0.0,0.0,0.0,0.0,0.0,0.0,0.0,0.0,0.0,0.0,0.0,0.0,0.0,0.0,0.0,0.0,0.0,0.0,0.0,0.0,0.0,0.0,0.0,0.0,0.0,0.0,0.0,0.0,0.0,0.0,0.0,0.0,0.0,0.0,0.0,0.0,0.0,0.0,0.0,0.0,0.0,0.0,0.0,0.0,0.0,0.0,0.0,0.0,0.0,0.0,0.0,0.0,0.0,0.0,0.0,0.0,0.0,0.0,0.0,0.0,0.0,0.0,0.0,-3.0312,-3.4252,-3.7701,-4.0505,-4.0552,-4.0055,-3.9221,-3.6146,-3.2673,-2.8994,0.0,0.0,0.0,0.0,0.0,0.0,0.0,0.0,0.0,0.0,0.0,0.0,0.0,0.0,0.0,0.0,0.0,0.0,0.0,0.0,0.0,0.0,0.0,0.0,0.0,0.0,0.0,0.0,0.0,0.0,0.0,0.0,0.0,0.0,0.0,0.0,0.0,0.0,0.0,0.0,0.0,0.0,0.0,0.0,0.0,0.0,0.0,0.0,0.0,0.0,0.0,0.0,0.0,0.0,0.0,0.0,0.0,0.0,0.0,0.0,0.0,0.0,0.0,0.0,0.0,0.0,0.0,0.0,0.0,0.0,0.0,0.0,0.0,0.0,0.0,0.0,0.0,0.0,0.0,0.0,0.0,0.0,0.0,0.0,0.0,0.0,0.0,0.0,0.0,0.0,0.0,0.0,0.0,0.0,0.0,0.0,0.0,0.0,0.0,0.0,0.0,0.0,-3.0801,-3.4704,-3.8001,-4.0529,-4.067,-4.0232,-3.9369,-3.711,-3.3944,-2.9768,0.0,0.0,0.0,0.0,0.0,0.0,0.0,0.0,0.0,0.0,0.0,0.0,0.0,0.0,0.0,0.0,0.0,0.0,0.0,0.0,0.0,0.0,0.0,0.0,0.0,0.0,0.0,0.0,0.0,0.0,0.0,0.0,0.0,0.0,0.0,0.0,0.0,0.0,0.0,0.0,0.0,0.0,0.0,0.0,0.0,0.0,0.0,0.0,0.0,0.0,0.0,0.0,0.0,0.0,0.0,0.0,0.0,0.0,0.0,0.0,0.0,0.0,0.0,0.0,0.0,0.0,0.0,0.0,0.0,0.0,0.0,0.0,0.0,0.0,0.0,0.0,0.0,0.0,0.0,0.0,0.0,0.0,0.0,0.0,0.0,0.0,0.0,0.0,0.0,0.0,0.0,0.0,0.0,0.0,0.0,0.0,0.0,0.0,0.0,0.0,0.0,0.0,-3.1543,-3.5141,-3.8139,-4.0567,-4.0757,-4.0314,-3.9386,-3.7707,-3.4923,-3.0788,0.0,0.0,0.0,0.0,0.0,0.0,0.0,0.0,0.0,0.0,0.0,0.0,0.0,0.0,0.0,0.0,0.0,0.0,0.0,0.0,0.0,0.0,0.0,0.0,0.0,0.0,0.0,0.0,0.0,0.0,0.0,0.0,0.0,0.0,0.0,0.0,0.0,0.0,0.0,0.0,0.0,0.0,0.0,0.0,0.0,0.0,0.0,0.0,0.0,0.0,0.0,0.0,0.0,0.0,0.0,0.0,0.0,0.0,0.0,0.0,-2.2804,0.0,0.0,0.0,0.0,0.0,0.0,0.0,0.0,0.0,0.0,0.0,0.0,0.0,0.0,0.0,0.0,0.0,0.0,0.0,0.0,0.0,0.0,0.0,0.0,0.0,0.0,0.0,0.0,0.0,0.0,0.0,0.0,0.0,0.0,0.0,0.0,0.0,0.0,0.0,0.0,0.0,-3.1621,-3.5668,-3.884,-4.0745,-4.0809,-4.0337,-3.9443,-3.7732,-3.5192,-3.166,0.0,0.0,0.0,0.0,0.0,0.0,0.0,0.0,0.0,0.0,0.0,0.0,0.0,0.0,0.0,0.0,0.0,0.0,0.0,0.0,0.0,0.0,0.0,0.0,0.0,0.0,0.0,0.0,0.0,0.0,0.0,0.0,0.0,0.0,0.0,0.0,0.0,0.0,0.0,0.0,0.0,0.0,0.0,0.0,0.0,0.0,0.0,0.0,0.0,0.0,0.0,0.0,0.0,0.0,0.0,0.0,0.0,0.0,0.0,0.0,0.0,-2.5395,0.0,0.0,0.0,0.0,0.0,0.0,0.0,0.0,0.0,0.0,0.0,0.0,0.0,0.0,0.0,0.0,0.0,0.0,0.0,0.0,0.0,0.0,0.0,0.0,0.0,0.0,0.0,0.0,0.0,0.0,0.0,0.0,0.0,0.0,0.0,0.0,0.0,0.0,0.0,0.0,-3.2226,-3.6129,-3.9143,-4.0822,-4.0912,-4.0615,-4.0062,-3.8413,-3.6318,-3.368,-2.9506,0.0,0.0,0.0,0.0,0.0,0.0,0.0,0.0,0.0,0.0,0.0,0.0,0.0,0.0,0.0,0.0,0.0,0.0,0.0,0.0,0.0,0.0,0.0,0.0,0.0,0.0,0.0,0.0,0.0,0.0,0.0,0.0,0.0,0.0,0.0,0.0,0.0,0.0,0.0,0.0,0.0,0.0,0.0,0.0,0.0,0.0,0.0,0.0,0.0,0.0,0.0,0.0,0.0,-3.4651,-3.5071,-3.5895,-3.683,-3.725,-3.6942,-3.1288,-3.025,-3.2264,0.0,0.0,0.0,0.0,0.0,0.0,0.0,0.0,0.0,0.0,0.0,0.0,0.0,0.0,0.0,0.0,0.0,0.0,0.0,0.0,0.0,0.0,0.0,0.0,0.0,-3.4435,-3.412,0.0,0.0,0.0,0.0,0.0,0.0,0.0,0.0,0.0,0.0,0.0,0.0,-3.3086,-3.668,-3.9393,-4.0875,-4.1002,-4.0933,-4.0776,-3.9173,-3.7508,-3.5856,-3.1986,-2.8396,0.0,0.0,0.0,0.0,0.0,0.0,0.0,0.0,0.0,0.0,0.0,0.0,0.0,0.0,0.0,0.0,0.0,0.0,0.0,0.0,0.0,0.0,0.0,0.0,0.0,0.0,0.0,0.0,0.0,0.0,0.0,0.0,-1.0936,-1.6011,0.0,0.0,0.0,0.0,0.0,0.0,0.0,0.0,0.0,0.0,0.0,0.0,0.0,-2.9702,-3.2504,-3.5367,-3.7221,-3.8046,-3.8046,-4.0162,-4.4039,-4.4196,-4.4267,-4.4229,-4.3324,0.0,-3.8762,-3.2709,0.0,0.0,0.0,0.0,0.0,0.0,0.0,0.0,0.0,0.0,0.0,0.0,0.0,0.0,0.0,0.0,0.0,0.0,0.0,0.0,0.0,0.0,-3.8393,-3.8562,-3.9248,-3.9472,0.0,-3.3162,-2.8925,-2.8494,-2.6055,0.0,0.0,0.0,0.0,0.0,0.0,0.0,-3.4062,-3.7578,-4.0098,-4.1074,-4.1077,-4.099,-4.0955,-3.9263,-3.779,-3.6781,-3.4004,-3.1545,-2.9654,-2.6615,0.0,0.0,0.0,0.0,0.0,0.0,0.0,0.0,0.0,0.0,0.0,0.0,0.0,0.0,0.0,0.0,0.0,0.0,0.0,0.0,0.0,0.0,0.0,0.0,0.0,0.0,0.0,0.0,0.0,-1.1613,-1.5494,-1.9811,-2.0963,-1.9936,0.0,0.0,0.0,0.0,0.0,0.0,0.0,0.0,0.0,-2.9604,-3.2761,-3.6009,-3.9221,-4.0671,-4.1405,-4.1405,-4.1405,-4.2856,-4.5594,-4.5594,-4.5594,-4.5594,-4.5594,-4.4892,-4.3397,-3.8643,-3.4629,-3.1191,0.0,0.0,0.0,0.0,-2.9121,-3.3828,-3.4258,-3.6387,0.0,-3.6641,0.0,0.0,0.0,0.0,0.0,0.0,0.0,0.0,0.0,0.0,-4.0556,-4.102,-4.1684,-4.214,-4.1893,-3.9119,-3.5967,0.0,-3.1953,-2.9883,-2.6582,0.0,0.0,0.0,0.0,0.0,-3.5781,-3.8359,-4.0234,-4.1113,-4.1149,-4.108,-4.1017,-3.9312,-3.8073,-3.7665,-3.5115,-3.3083,-3.1872,-2.9462,-2.675,0.0,0.0,0.0,0.0,0.0,0.0,0.0,0.0,0.0,0.0,0.0,0.0,0.0,0.0,0.0,0.0,0.0,0.0,0.0,0.0,0.0,0.0,0.0,0.0,0.0,0.0,0.0,0.0,-1.399,-1.8626,-2.234,-2.5085,-2.4751,0.0,0.0,0.0,0.0,0.0,0.0,-2.6649,-3.199,-3.5422,-3.6266,-3.8652,-4.1075,-4.3478,-4.3515,-4.3515,-4.3496,-4.3868,-4.4581,-4.5594,-4.5594,-4.5594,-4.5594,-4.5594,-4.5864,-4.6094,-4.3555,-4.0976,-3.8242,-3.4414,-3.1582,-2.9668,-2.9668,-3.3476,-3.9004,-4.1601,-4.25,-4.207,-3.9473,0.0,-4.1191,-4.1191,0.0,0.0,0.0,0.0,-4.2109,-4.0351,-4.0927,-4.2186,-4.3066,-4.3659,-4.407,-4.4207,-4.3554,-4.1888,0.0,-3.7109,-3.5371,-3.1309,0.0,0.0,0.0,0.0,-3.5176,-3.7344,-3.9141,-4.0488,-4.1133,-4.1191,-4.1151,-4.1055,-3.936,-3.828,-3.8224,-3.5892,-3.4045,-3.2949,-3.15,-2.9231,-2.6038,0.0,0.0,0.0,0.0,0.0,0.0,0.0,0.0,0.0,0.0,0.0,0.0,0.0,0.0,0.0,0.0,0.0,0.0,0.0,0.0,0.0,0.0,0.0,0.0,0.0,0.0,0.0,0.0,0.0,-2.3449,-2.9562,0.0,0.0,0.0,0.0,-2.8271,-3.1513,-3.3311,-3.3311,-3.6578,-3.9845,-4.2927,-4.3184,-4.3349,-4.3515,-4.3515,-4.3515,-4.3513,-4.4858,-4.5531,-4.5594,-4.5594,-4.5594,-4.5594,-4.5594,-4.5864,-4.6289,-4.6113,-4.5937,-4.5762,-4.5508,-4.3359,-4.043,-4.043,-4.2695,-4.5801,-4.5976,-4.6035,-4.6016,-4.584,-4.3691,-4.1191,-4.1191,-4.082,0.0,0.0,-4.4707,-4.5644,-4.3906,-4.4012,-4.4838,-4.5699,-4.5839,-4.5815,-4.596,-4.5289,-4.4151,0.0,-4.0117,-3.8125,-3.7031,0.0,-3.4434,-3.4375,-3.5937,-3.7441,-3.8418,-4.0059,-4.1152,-4.1191,-4.1191,-4.1191,-4.1191,-3.9406,-3.8289,-3.8305,-3.6497,-3.4673,-3.2968,-3.2083,-3.0429,-2.7818,-2.526,0.0,0.0,0.0,0.0,0.0,0.0,0.0,0.0,0.0,0.0,0.0,0.0,0.0,0.0,0.0,0.0,0.0,0.0,0.0,0.0,0.0,0.0,0.0,0.0,0.0,0.0,0.0,0.0,-3.1083,-3.1237,0.0,-3.0393,-2.6631,-2.7273,-3.4692,-3.6321,-3.7863,-3.9918,-4.1148,-4.2304,-4.346,-4.3515,-4.3515,-4.3515,-4.3515,-4.3515,-4.3513,-4.4928,-4.5594,-4.5594,-4.5594,-4.5594,-4.5594,-4.5594,-4.5864,-4.6308,-4.6308,-4.6308,-4.6308,-4.6308,-4.5566,-4.4473,-4.4473,-4.5254,-4.6308,-4.6308,-4.6308,-4.6308,-4.6308,-4.5488,-4.4473,-4.4473,-4.4473,-4.4609,-4.5215,-4.582,-4.6152,-4.5527,-4.5565,-4.5834,-4.6147,-4.6199,-4.6173,-4.6223,-4.5971,-4.5602,-4.5019,-4.3262,-4.1269,-3.9316,-3.9355,-3.9297,-3.8203,-3.9492,-4.0684,-4.1016,-4.1582,-4.1777,-4.1269,-4.1191,-4.1191,-4.1191,-3.9451,-3.811,-3.7501,-3.5732,-3.4176,-3.2955,-3.2122,-3.0756,-2.8703,-2.6722,-2.3774,0.0,0.0,0.0,0.0,0.0,0.0,0.0,0.0,0.0,0.0,0.0,0.0,0.0,0.0,0.0,0.0,0.0,0.0,0.0,0.0,0.0,0.0,0.0,0.0,0.0,0.0,-2.7911,-3.3931,-3.2761,-3.1237,-3.0613,-2.8668,-3.1017,-3.9662,-4.0322,-4.124,-4.3404,-4.3515,-4.3515,-4.3515,-4.3515,-4.3515,-4.3515,-4.3515,-4.4065,-4.513,-4.6064,-4.6808,-4.7326,-4.7326,-4.7326,-4.7326,-4.7326,-4.6926,-4.6387,-4.7539,-4.7344,-4.6308,-4.6308,-4.6308,-4.6308,-4.6308,-4.6308,-4.6308,-4.6308,-4.6308,-4.6308,-4.6308,-4.6308,-4.6308,-4.6308,-4.6308,-4.6308,-4.6308,-4.6308,-4.6308,-4.6308,-4.6308,-4.6308,-4.6308,-4.6308,-4.6308,-4.6308,-4.6308,-4.6308,-4.6308,-4.5137,-4.3594,-4.1914,-4.2305,-4.2461,-4.1348,-4.2129,-4.2832,-4.2832,-4.2578,-4.2207,-4.166,-4.1367,-4.1191,-4.1191,-3.9226,-3.7845,-3.7481,-3.5193,-3.3596,-3.2987,-3.1863,-3.0583,-2.9127,-2.7178,-2.4802,-2.2029,0.0,0.0,0.0,0.0,0.0,0.0,0.0,0.0,0.0,0.0,0.0,0.0,0.0,0.0,0.0,0.0,0.0,0.0,0.0,0.0,0.0,0.0,0.0,-2.5236,-2.8136,-3.0944,-3.1507,-3.4412,-3.3293,-2.5419,-3.0375,-3.6707,-4.3037,-4.3515,-4.3515,-4.3515,-4.3515,-4.3515,-4.3515,-4.3606,-4.3662,-4.3662,-4.3662,-4.5204,-4.8306,-4.8345,-4.9187,-5.0712,-5.0712,-5.0712,-5.0712,-5.0712,-4.9083,-4.6719,-5.0039,-4.9433,-4.6425,-4.6348,-4.6308,-4.6308,-4.6308,-4.6308,-4.6308,-4.6308,-4.6308,-4.6308,-4.6308,-4.6308,-4.6308,-4.6308,-4.6308,-4.6308,-4.6308,-4.6308,-4.6308,-4.6308,-4.6308,-4.6308,-4.6308,-4.6308,-4.6308,-4.6308,-4.6308,-4.6308,-4.6308,-4.5625,-4.5039,-4.5039,-4.4336,-4.3789,-4.3789,-4.3789,0.0,-4.373,-4.3008,-4.2461,-4.2402,-4.1699,-4.123,-4.1191,-3.8777,-3.7546,-3.8287,-3.4975,-3.3016,-3.3054,-3.1391,-3.0025,-2.9165,-2.6697,-2.5453,-2.5541,0.0,0.0,0.0,0.0,0.0,0.0,0.0,0.0,0.0,0.0,0.0,0.0,0.0,0.0,0.0,0.0,0.0,0.0,0.0,0.0,0.0,0.0,-3.4486,-3.3164,-3.3278,-3.4021,-3.5371,-3.7019,-3.7165,-3.4926,-3.8414,-4.157,-4.3368,-4.3515,-4.3515,-4.3515,-4.3515,-4.3515,-4.3515,-4.5755,-4.6985,-4.6985,-4.6985,-4.7425,-4.8325,-4.947,-5.0272,-5.0712,-5.0712,-5.0712,-5.0712,-5.0712,-5.0421,-5.0078,-5.1016,-5.0659,-4.9285,-4.7137,-4.6308,-4.6308,-4.6308,-4.6308,-4.6308,-4.6308,-4.6308,-4.6308,-4.6308,-4.6308,-4.6308,-4.6308,-4.6308,-4.6308,-4.6308,-4.6308,-4.6308,-4.6308,-4.6308,-4.6308,-4.6308,-4.6308,-4.6308,-4.6308,-4.6308,-4.6308,-4.6308,-4.6113,-4.5937,-4.5937,-4.5742,-4.5586,-4.5586,-4.5586,0.0,-4.4726,-4.4433,-4.3808,-4.2539,-4.2207,-4.1836,-4.125,-3.9374,-3.7747,-3.6654,-3.446,-3.2911,-3.2197,-3.1686,-3.0983,-3.0063,-2.8736,-2.7517,0.0,0.0,0.0,0.0,0.0,0.0,0.0,0.0,0.0,0.0,0.0,0.0,0.0,0.0,0.0,0.0,0.0,0.0,0.0,0.0,0.0,0.0,-3.3899,-3.8303,-3.8303,-3.7159,-3.7004,-3.8894,-3.9662,-4.0212,-4.0671,-4.2396,-4.3515,-4.3515,-4.3515,-4.3515,-4.3515,-4.4782,-4.5498,-4.5498,-4.7315,-4.8306,-4.8306,-4.8306,-4.8306,-4.8325,-4.9936,-5.0712,-5.0712,-5.0712,-5.0712,0.0,-5.0712,-5.0971,-5.1406,-5.1406,-5.1247,0.0,0.0,0.0,0.0,0.0,-4.6308,-4.6308,-4.6308,-4.6168,-4.6037,-4.6245,-4.6308,-4.6308,-4.6308,-4.6308,-4.6308,-4.6308,-4.6308,-4.6308,-4.6308,-4.6308,-4.6308,-4.6308,-4.6308,-4.6308,-4.6308,-4.6308,-4.6308,-4.6308,-4.6308,0.0,-4.6308,-4.6308,-4.6308,-4.6308,-4.6308,-4.6113,-4.5605,-4.5234,-4.4609,-4.3594,-4.2832,-4.2207,-4.1738,-3.9805,0.0,0.0,0.0,-3.3243,-3.1907,-3.1812,0.0,0.0,0.0,0.0,0.0,0.0,0.0,0.0,-2.9512,-2.9609,0.0,0.0,0.0,0.0,0.0,0.0,0.0,0.0,0.0,0.0,0.0,0.0,0.0,0.0,0.0,0.0,-3.8395,-4.115,-4.1352,-4.0065,-3.979,-4.1679,-4.2009,-4.245,-4.3423,-4.3515,-4.3515,-4.3515,-4.3828,-4.4047,-4.4047,0.0,0.0,0.0,0.0,-4.8306,-4.8306,-4.8306,-4.8402,-4.8586,-5.0012,-5.0712,-5.0712,-5.0712,-5.0712,-5.0731,-5.1097,-5.132,-5.1406,-5.1406,-5.1386,-5.134,-5.09,-5.1009,-5.1035,-4.7988,-4.6875,-4.6875,-4.6875,0.0,0.0,-4.6518,-4.6465,-4.6308,-4.6308,-4.6308,-4.6308,-4.6308,-4.6308,-4.6308,-4.6308,-4.6308,-4.6308,-4.6308,-4.6308,-4.6308,-4.6308,-4.6308,-4.6308,-4.6308,-4.6308,-4.6308,-4.6308,-4.6308,-4.6308,-4.6308,-4.6308,-4.6308,-4.6308,-4.5625,-4.5117,-4.5019,0.0,0.0,-4.2422,-4.0234,-3.8809,-3.8613,-3.6279,-3.4179,-3.255,-3.2524,-3.2509,-3.2478,-3.3262,-3.4474,-3.6051,-3.691,-3.7412,-3.75,-3.3594,-3.334,0.0,0.0,0.0,0.0,0.0,0.0,0.0,0.0,0.0,0.0,0.0,0.0,0.0,0.0,0.0,-4.0344,-4.1332,-4.1535,-4.2837,-4.2213,-4.168,-4.1881,-4.267,-4.3276,-4.3478,-4.3515,-4.3515,-4.3515,-4.5902,-4.737,-4.737,-4.7957,-4.8306,-4.8306,-4.8306,-4.8306,-4.8306,-4.8306,-4.8947,-5.0249,0.0,0.0,-5.0712,-5.0712,-5.0712,-5.0846,-5.3549,-5.3476,-5.1406,-5.1406,-5.1339,-5.1222,-5.1084,-5.117,-5.1328,-5.0664,-5.041,-5.041,-5.041,-5.0347,-5.0079,-4.8807,-4.7441,-4.6308,-4.6308,-4.6308,0.0,-4.6308,-4.6308,-4.6308,-4.6308,-4.6308,-4.6308,-4.6308,-4.6308,-4.6308,-4.6308,-4.6308,-4.6308,-4.6308,-4.6308,-4.6308,-4.6308,-4.6308,-4.6308,-4.6308,-4.6308,-4.6308,-4.6308,-4.6152,-4.5781,-4.5078,-4.4707,-4.3926,-4.2519,-4.1348,-4.0098,-3.8691,-3.7409,-3.6547,-3.6187,-3.6735,-3.6722,-3.6021,-3.6862,-3.7172,-3.695,-3.7765,-3.858,-3.9355,-3.7812,-3.709,0.0,0.0,0.0,0.0,0.0,0.0,0.0,0.0,0.0,0.0,0.0,-3.1046,0.0,0.0,-3.524,-4.0884,-4.2084,-4.258,-4.3404,-4.3149,-4.2837,-4.2725,-4.3184,-4.3515,-4.3515,-4.3515,-4.4158,-4.5773,-4.7388,-4.8306,-4.8306,-4.9114,-4.9169,-4.8343,-4.9883,-5.0765,-5.0765,-5.0765,-5.1578,-5.3213,-5.3213,-5.3213,-5.3213,-5.3213,-5.3373,-5.374,-5.5418,-5.5266,-5.3718,-5.271,-5.2119,-5.181,-5.1411,-5.1277,-5.1318,-5.1386,-5.1406,-5.1406,-5.1406,-5.1406,-5.1269,-5.043,-4.9551,-4.8535,-4.6816,-4.6308,-4.6308,-4.6308,-4.6308,-4.6308,-4.6308,-4.6308,-4.6308,-4.6308,-4.6308,-4.6308,-4.6308,-4.6308,-4.6308,-4.6308,-4.6308,-4.6308,-4.6308,-4.6308,-4.6308,-4.6308,-4.6308,-4.6308,-4.6308,-4.6308,-4.6133,-4.5703,-4.5254,-4.4648,-4.3789,-4.2168,-4.0644,-3.9336,-3.8395,-3.7902,-3.7902,-3.8181,-3.8185,-3.7804,-3.8599,-3.8846,-3.8549,-3.9388,-4.027,-4.1133,-4.0703,-4.0273,0.0,0.0,0.0,0.0,0.0,0.0,0.0,0.0,-3.4448,-3.4576,-3.7306,-3.8302,-3.3744,-3.4878,-3.728,-3.9706,-4.1625,-4.2996,-4.3444,-4.3515,-4.3515,-4.3515,-4.3515,-4.3588,-4.379,-4.3919,-4.5168,-4.8086,-4.8306,-4.8453,-4.8783,-5.0068,-5.0406,-4.9529,-5.1914,-5.3185,-5.3185,-5.3185,-5.3888,-5.5224,-5.5535,-5.5703,-5.5695,-5.5826,-5.6142,-5.6582,-5.6367,-5.6165,-5.5857,-5.4087,-5.3023,-5.2474,-5.1873,-5.1479,-5.1244,-5.1365,-5.1406,-5.1406,-5.1406,-5.1406,-5.1406,-5.1406,-5.1289,-5.0683,-4.8086,-4.6836,-4.6348,-4.6562,-4.6465,-4.6308,-4.6308,-4.6308,-4.6308,-4.6308,-4.6308,-4.6308,-4.6308,-4.6308,-4.6308,-4.6308,-4.6308,-4.6308,-4.6308,-4.6308,-4.6308,-4.6308,-4.6308,-4.6308,-4.6308,-4.6308,-4.6308,-4.6308,-4.5664,-4.5176,-4.5019,-4.2969,-4.1387,-4.0684,-3.9824,-3.9336,-3.9336,-3.9074,-3.8994,-3.9101,-3.9834,-4.0283,-4.0391,-4.1269,-4.2012,-4.2656,-4.2656,-4.2656,-2.1221,-2.2927,0.0,-3.2448,-3.2845,-3.1842,0.0,0.0,-3.68,-3.7327,-3.7834,-3.8345,-3.8996,-3.9385,-3.9706,-4.0045,-4.0311,-4.1196,-4.3214,-4.3515,-4.3515,-4.3515,-4.3515,-4.3882,-4.4819,-4.5351,-4.6379,-4.8177,-4.8306,-4.8948,-5.0435,-5.071,-5.1712,-5.3739,-5.3399,-5.3185,-5.3185,-5.3185,-5.3274,-5.3484,-5.5002,-5.5703,-5.5726,-5.6242,-5.6539,-5.6543,-5.5527,-5.5145,-5.5151,-5.4272,-5.3418,-5.2675,-5.2598,-5.207,-5.1386,-5.1387,-5.1406,-5.1406,-5.1406,-5.1406,-5.1406,-5.1406,-5.0918,-5.0391,-5.0723,-4.8711,-4.6504,-4.7519,-4.707,-4.6308,-4.6308,-4.6308,-4.6308,-4.6308,-4.6308,-4.6308,-4.6308,-4.6308,-4.6308,-4.6308,-4.6308,-4.6308,-4.6308,-4.6308,-4.6308,-4.6308,-4.6308,-4.6308,-4.6308,-4.6308,-4.6308,-4.6308,-4.6211,-4.584,-4.5078,-4.4023,-4.3379,-4.3281,-4.2461,-4.1973,-4.1973,-4.1269,-4.0898,-4.0918,-4.1699,-4.2109,-4.2129,-4.3008,-4.3476,-4.3555,-4.3555,-4.3555,-2.5797,0.0,0.0,0.0,-3.4283,-3.4944,-3.4449,-3.5382,-3.689,-3.8795,-3.9174,-3.9385,-3.9994,-4.0096,-4.0096,0.0,-4.1201,-4.2406,-4.3356,-4.3515,-4.3515,-4.3515,-4.3515,-4.392,-4.5002,-4.5865,-4.6911,-4.8214,-4.8912,-4.9729,-5.0766,-5.1473,-5.2288,-5.3261,-5.3534,-5.3505,-5.3206,-5.3185,-5.3442,-5.3961,-5.5141,-5.5798,-5.5993,-5.6404,-5.6601,-5.6562,-5.6094,-5.5916,-5.5909,-5.5097,-5.4531,-5.4101,-5.3105,-5.248,-5.2109,-5.1582,-5.1406,-5.1406,-5.1406,-5.1406,-5.1406,-5.1406,-5.1172,-5.0879,-5.0742,-4.9707,-4.8457,-4.793,-4.7422,-4.6933,-4.6426,-4.6308,-4.6308,-4.6308,-4.6308,-4.6308,-4.6308,-4.6308,-4.6308,-4.6308,-4.6308,-4.6308,-4.6308,-4.6308,-4.6308,-4.6308,-4.6308,-4.6308,-4.6308,-4.6308,-4.6308,-4.6308,-4.6308,-4.5957,-4.5078,-4.4668,-4.4238,-4.373,-4.3359,-4.3164,-4.3164,-4.2832,-4.2656,-4.2656,-4.2988,-4.3164,-4.3164,-4.3516,-4.3965,-4.4453,-4.4453,-4.4726,-2.8864,0.0,0.0,-3.2804,-3.5366,-3.7244,-3.6182,-3.6594,-3.7717,-3.9525,-4.0014,-4.0096,-4.0096,-4.0096,0.0,-4.0096,-4.2006,-4.3515,-4.3515,-4.3515,-4.3515,-4.3515,-4.3515,-4.3883,-4.4892,-4.603,-4.7095,-4.8053,-4.9324,-5.0379,-5.1091,-5.2173,-5.288,-5.3147,-5.367,-5.3814,-5.3563,-5.3316,-5.3522,-5.4154,-5.5212,-5.588,-5.6202,-5.6484,-5.6601,-5.6601,-5.6601,-5.6601,-5.6543,-5.5918,-5.5527,-5.5176,-5.3906,-5.3262,-5.2949,-5.207,-5.1601,-5.1406,-5.1406,-5.1406,-5.1406,-5.1406,-5.1406,-5.1289,-5.0703,-5.0371,-4.9941,-4.8672,-4.8144,-4.7754,-4.6875,-4.666,-4.6601,-4.6367,-4.6308,-4.6308,-4.6308,-4.6308,-4.6308,-4.6308,-4.6308,-4.6308,-4.6308,-4.6308,-4.6308,-4.6308,-4.6308,-4.6308,-4.6308,-4.6308,-4.6308,-4.6308,-4.6308,-4.6035,-4.541,-4.5351,-4.5098,-4.4453,-4.4199,-4.4062,-4.4062,-4.3828,-4.3691,-4.3691,-4.3945,-4.4062,-4.4062,-4.4297,-4.4746,-4.5351,-4.5351,-4.5703,0.0,0.0,-3.0104,-3.5103,-3.7239,-3.8245,-3.892,-3.978,-4.0262,-3.9564,-3.9796,-4.0096,-4.0096,-4.0096,-4.0096,-4.0096,-4.2006,-4.3515,-4.3515,-4.3515,-4.3515,-4.3515,-4.3515,-4.3809,0.0,-4.592,-4.6984,-4.7655,-4.925,-5.0703,-5.1888,-5.2748,-5.3762,-5.4985,-5.4234,-5.4013,-5.4455,-5.3623,-5.3206,-5.3251,-5.4914,-5.588,-5.6202,-5.6484,-5.6601,-5.6601,-5.6601,-5.6601,-5.6601,-5.6562,-5.6055,-5.5293,-5.5234,-5.4707,-5.3848,-5.2988,-5.2129,-5.1406,-5.1406,-5.1406,-5.1406,-5.1406,-5.1406,-5.1406,-5.1367,-5.082,-5.0195,-5.0137,-4.9512,-4.8652,-4.7793,-4.7558,-4.7344,-4.6504,-4.6308,-4.6308,-4.6308,-4.6308,-4.6308,-4.6308,-4.6308,-4.6308,-4.6308,-4.6308,-4.6308,-4.6308,-4.6308,-4.6308,-4.6308,-4.6308,-4.6308,-4.6308,-4.6308,-4.6289,-4.6269,-4.6269,-4.625,-4.6211,-4.543,-4.4961,-4.4961,-4.4141,-4.3691,-4.3691,-4.4531,-4.4961,-4.4961,-4.5801,-4.623,-4.6269,-4.6269,-4.6269,0.0,0.0,-3.5317,-3.8187,-3.9747,-4.0581,-4.0489,-4.0644,-4.0612,-3.999,-3.9995,-4.0096,-4.0096,-4.0096,-4.0594,-4.2106,-4.2996,-4.3515,-4.3515,-4.4103,-4.4287,-4.3588,-4.4433,0.0,0.0,0.0,0.0,-4.7186,-4.9096,-5.0717,-5.1934,-5.3547,-5.477,-5.5489,-5.4716,-5.4338,-5.4503,-5.416,-5.3852,-5.3605,-5.4857,-5.5706,-5.6216,-5.6383,-5.6514,-5.6601,-5.6601,-5.6601,-5.6601,-5.6601,-5.6426,-5.6113,-5.5527,-5.5117,-5.4765,-5.3887,-5.3008,-5.2187,-5.1601,-5.1406,-5.1406,-5.1406,-5.1406,-5.1406,-5.1406,-5.1211,-5.0879,-5.0351,-4.998,-4.9551,-4.8691,-4.8027,-4.7539,-4.7226,-4.6719,-4.6308,-4.6308,-4.6308,-4.6308,-4.6308,-4.6308,-4.6308,-4.6308,-4.6308,-4.6308,-4.6308,-4.6308,-4.6308,-4.6308,-4.6308,-4.6308,-4.6308,-4.6308,-4.6308,-4.6308,-4.6308,-4.6308,-4.6308,-4.6016,-4.5859,-4.5859,-4.5586,-4.543,-4.543,-4.5703,-4.5859,-4.5859,-4.6152,-4.6308,-4.6308,-4.6308,-4.6308,0.0,-3.6754,-3.84,-4.0706,-4.1688,-4.1923,-4.1276,-4.0818,-4.0422,-4.0153,-3.969,-3.901,-3.804,-3.6904,-3.7547,-4.1934,-4.3608,-4.4287,-4.4102,-4.5002,-4.5333,-4.4452,-4.5516,0.0,0.0,0.0,0.0,-4.7449,-4.9836,-5.1607,-5.2389,-5.425,-5.5423,-5.5684,-5.5209,-5.4937,-5.4937,-5.4846,-5.4851,-5.4927,-5.5611,-5.6165,-5.6557,-5.6742,-5.6723,-5.6536,-5.6581,-5.6601,-5.6601,-5.6601,-5.6601,-5.6543,-5.5976,-5.5762,-5.5664,-5.4785,-5.4101,-5.3457,-5.2266,-5.166,-5.1406,-5.1406,-5.1406,-5.1406,-5.1406,-5.1406,-5.1289,-5.0762,-5.0625,-5.043,-4.957,-4.8711,-4.7988,-4.7676,-4.6933,-4.6308,-4.6308,-4.6308,-4.6308,-4.6308,-4.6308,-4.6308,-4.6308,-4.6308,-4.6308,-4.6308,-4.6308,-4.6308,-4.6308,-4.6308,-4.6308,-4.6308,-4.6308,-4.6308,-4.6308,-4.6308,-4.6308,-4.6308,-4.6308,-4.6308,-4.6308,-4.6308,-4.6308,-4.6308,-4.6308,-4.6308,-4.6308,-4.6308,-4.6308,-4.6308,-4.6308,-4.6308,-3.7468,-3.8459,-3.9337,-4.2591,-4.2875,-4.2162,-4.1349,-4.0386,-3.9704,-3.9736,-3.8563,-3.6646,0.0,0.0,-3.1904,-3.9646,-4.3608,-4.5553,-4.5131,-4.5993,-4.6489,0.0,0.0,0.0,0.0,0.0,0.0,-4.8494,0.0,-5.3162,-5.3206,-5.4827,-5.5761,-5.5761,-5.5765,-5.577,-5.577,-5.5683,-5.6073,-5.6958,-5.708,-5.7139,-5.721,-5.7449,-5.7157,-5.6414,-5.6537,-5.6582,-5.6601,-5.6601,-5.6601,-5.6601,-5.6601,-5.6601,-5.6504,-5.5664,-5.5332,-5.5058,-5.3418,-5.2226,-5.1465,-5.1406,-5.1406,-5.1406,-5.1406,-5.1406,-5.1406,-5.1406,-5.1406,-5.1211,-5.0469,-4.9629,-4.8769,-4.793,-4.7031,-4.6367,-4.6367,-4.6328,-4.6308,-4.6308,-4.6308,-4.6308,-4.6308,-4.6308,-4.6308,-4.6308,-4.6308,-4.6308,-4.6308,-4.6308,-4.6308,-4.6308,-4.6308,-4.6308,-4.6308,-4.6308,-4.6308,-4.6308,-4.6308,-4.6308,-4.6308,-4.6308,-4.6308,-4.6308,-4.6308,-4.6308,-4.6308,-4.6308,-4.6308,-4.6308,-4.6308,-4.6308,-3.9934,-4.1331,-4.2283,-4.3054,-4.2596,-4.1735,-4.0937,-3.929,-3.74,-3.5438,-3.3547,-3.1288,-2.8198,0.0,0.0,-3.7716,-4.0818,0.0,-4.4635,-4.5553,0.0,0.0,0.0,-4.893,-4.8893,-5.0196,0.0,0.0,-5.1816,-5.2567,-5.3177,-5.5418,-5.6676,-5.6676,-5.662,-5.6581,-5.6581,-5.6295,-5.6668,-5.7788,-5.7589,-5.7381,-5.7193,-5.7264,-5.6975,-5.6391,-5.6448,-5.6511,-5.6601,-5.6601,-5.6601,-5.6601,-5.6601,-5.6601,-5.6562,-5.6348,-5.5859,-5.5234,-5.4785,-5.3633,-5.2266,-5.1601,-5.1406,-5.1406,-5.1406,-5.1406,-5.1406,-5.1406,-5.1406,-5.1348,-5.1152,-5.0488,-4.9805,-4.959,-4.8379,-4.7266,-4.7266,-4.6758,-4.6308,-4.6308,-4.6308,-4.6308,-4.6308,-4.6308,-4.6308,-4.6308,-4.6308,-4.6308,-4.6308,-4.6308,-4.6308,-4.6308,-4.6308,-4.6308,-4.6308,-4.6308,-4.6308,-4.6308,-4.6308,-4.6308,-4.6308,-4.6308,-4.6308,-4.6308,-4.6308,-4.6308,-4.6308,-4.6308,-4.6308,-4.6308,-4.6308,-4.6308,-4.198,-4.3063,-4.3561,-4.3285,-4.205,-4.059,-3.9315,-3.7355,-3.5148,-3.2807,-3.0708,0.0,0.0,0.0,0.0,0.0,0.0,0.0,-4.4837,-4.6214,-4.726,0.0,-4.9627,0.0,-5.06,-5.1775,-5.2763,0.0,-5.3534,-5.3724,-5.3973,-5.6064,-5.7169,-5.6973,-5.7258,-5.7618,-5.7993,-5.7567,-5.7903,-5.8973,-5.8781,-5.8527,-5.8201,-5.7897,-5.7395,-5.6738,0.0,-5.6383,-5.6512,-5.6512,-5.6558,-5.6601,-5.6601,-5.6601,-5.6601,-5.6601,-5.6289,-5.582,-5.543,-5.4668,-5.3633,-5.2383,-5.1719,-5.1406,-5.1406,-5.1406,-5.1406,-5.1406,-5.1406,-5.1406,-5.1406,-5.0801,-5.0195,-5.0195,-4.916,-4.8066,-4.7676,-4.7226,-4.6758,-4.6367,-4.6308,-4.6308,-4.6308,-4.6308,-4.6308,-4.6308,-4.6308,-4.6308,-4.6308,-4.6308,-4.6308,-4.6308,-4.6308,-4.6308,-4.6308,-4.6308,-4.6308,-4.6308,-4.6308,-4.6308,-4.6308,-4.6308,-4.6308,-4.6308,-4.6308,-4.6308,-4.6308,-4.6308,-4.6308,-4.6308,-4.6308,-4.6308,-4.3596,-4.4056,-4.3792,-4.3162,-4.1348,-3.9151,-3.7005,-3.5002,-3.3045,-3.1069,0.0,0.0,-2.7065,0.0,-3.1617,-3.5349,0.0,-4.1167,-4.5314,-4.7186,-4.8526,-4.9554,-5.1041,-5.2055,-5.2208,-5.2918,-5.3904,-5.5173,-5.5749,-5.5794,-5.5275,-5.6905,-5.7657,-5.7243,-5.7972,-5.8671,-5.9302,-5.9028,-5.9284,-6.0103,-6.0161,-5.9951,-5.9484,-5.8906,-5.8108,-5.7163,0.0,0.0,-5.6374,-5.6386,-5.646,-5.6581,-5.6582,-5.6601,-5.6601,-5.6601,-5.6601,-5.6484,-5.5723,-5.539,-5.5019,-5.3262,-5.2187,-5.1543,-5.1445,-5.1406,-5.1406,-5.1406,-5.1406,-5.1406,-5.1406,-5.0879,-5.0351,-5.0351,-4.9707,-4.8867,-4.8105,-4.7754,-4.7344,-4.6465,-4.6308,-4.6308,-4.6308,-4.6308,-4.6308,-4.6308,-4.6308,-4.6308,-4.6308,-4.6308,-4.6308,-4.6308,-4.6308,-4.6308,-4.6308,-4.6308,-4.6308,-4.6308,-4.6308,-4.6308,-4.6308,-4.6308,-4.6308,-4.6308,-4.6308,-4.6308,-4.6308,-4.6308,-4.6308,-4.6308,-4.6308,-4.6308,-4.448,-4.4538,-4.38,-4.2416,-4.062,-3.8293,-3.4741,-3.302,0.0,0.0,0.0,-2.5628,-2.4886,-2.7226,0.0,-3.3697,0.0,0.0,0.0,0.0,-4.8103,0.0,0.0,0.0,0.0,0.0,0.0,0.0,0.0,-5.7421,-5.6603,-5.8225,-5.9117,-5.8972,-5.9472,-5.946,-5.8835,-5.9509,-5.9931,-6.0099,-6.0495,-6.0272,-5.9492,-5.9383,-5.8548,-5.7193,-5.7079,0.0,-5.6237,-5.6342,-5.6416,-5.6452,-5.656,-5.6601,-5.6601,-5.6601,-5.6601,-5.6582,-5.6426,-5.5898,-5.5019,-5.3262,-5.2598,-5.2344,-5.1621,-5.1406,-5.1406,-5.1406,-5.1406,-5.1406,-5.1406,-5.1308,-5.1191,-5.1191,-5.0566,-4.9922,-4.9785,-4.8613,-4.7344,-4.6465,-4.6308,-4.6308,-4.6308,-4.6308,-4.6308,-4.6308,-4.6308,-4.6308,-4.6308,-4.6308,-4.6308,-4.6308,-4.6308,-4.6308,-4.6308,-4.6308,-4.6308,-4.6308,-4.6308,-4.6308,-4.6308,-4.6308,-4.6308,-4.6308,-4.6308,-4.6308,-4.6308,-4.6308,-4.6308,-4.6308,-4.6308,-4.6308,-4.4613,-4.407,-4.2813,-4.1994,-4.0135,-3.7547,-3.3828,0.0,0.0,0.0,0.0,-2.4658,-2.4263,0.0,0.0,0.0,0.0,0.0,0.0,0.0,0.0,0.0,0.0,0.0,0.0,0.0,0.0,0.0,0.0,-5.8368,-5.7901,-5.8881,-5.9543,-5.9757,-5.9741,-5.9757,-5.9789,-5.9996,-6.0222,-6.0469,-6.069,-6.0569,-6.0165,-5.9704,-5.8866,-5.7738,-5.7284,0.0,-5.6051,-5.6113,-5.6241,-5.6414,-5.6462,-5.6538,-5.6601,-5.6601,-5.6601,-5.6601,-5.6601,-5.6328,-5.5762,-5.4473,-5.3437,-5.2617,-5.2207,-5.1758,-5.1406,-5.1406,-5.1406,-5.1406,-5.1406,-5.1406,-5.1406,-5.1406,-5.0781,-5.0195,-5.0195,-4.9199,-4.8027,-4.7148,-4.6973,-4.6836,-4.6387,-4.6308,-4.6308,-4.6308,-4.6308,-4.6308,-4.6308,-4.6308,-4.6308,-4.6308,-4.6308,-4.6308,-4.6308,-4.6308,-4.6308,-4.6308,-4.6308,-4.6308,-4.6308,-4.6308,-4.6308,-4.6308,-4.6308,-4.6308,-4.6308,-4.6308,-4.6308,-4.6308,-4.6308,-4.6268,-4.3904,-4.3113,-4.1759,-4.1782,-3.9652,-3.6617,-3.3062,-3.0761,0.0,0.0,0.0,-2.4257,-2.4257,0.0,0.0,0.0,0.0,0.0,0.0,0.0,0.0,0.0,0.0,0.0,0.0,0.0,0.0,0.0,0.0,0.0,-5.9224,-5.9428,-5.9709,-6.0103,-5.9839,-6.001,-6.0634,-6.0378,-6.0443,-6.08,-6.08,-6.08,-6.0781,-6.0089,-5.9242,-5.8261,-5.7569,0.0,0.0,-5.5899,-5.6058,-5.6297,-5.6377,-5.6458,-5.656,-5.6582,-5.6601,-5.6601,-5.6601,-5.6601,-5.6484,-5.5801,-5.4394,-5.2949,-5.2754,-5.209,-5.1406,-5.1406,-5.1406,-5.1406,-5.1406,-5.1406,-5.1406,-5.1406,-5.0918,-5.041,-5.0234,-4.9668,-4.8926,-4.8047,-4.7871,-4.7598,-4.6738,-4.6582,-4.6523,-4.6328,-4.6308,-4.6308,-4.6308,-4.6308,-4.6308,-4.6308,-4.6308,-4.6308,-4.6308,-4.6308,-4.6308,-4.6308,-4.6308,-4.6308,-4.6308,-4.6308,-4.6308,-4.6308,-4.6308,-4.6308,-4.6308,-4.6268,-4.6268,-4.6267,-4.6225,-4.617,-4.186,-4.1724,-4.1345,-4.1707,-3.8919,-3.5162,-3.1604,0.0,0.0,0.0,-2.4358,-2.4469,-2.4469,-2.5404,0.0,0.0,0.0,0.0,0.0,0.0,0.0,0.0,0.0,0.0,0.0,0.0,0.0,0.0,0.0,0.0,-6.063,-6.024,-6.0055,-6.0103,-6.0482,-6.0508,-6.0161,-6.0553,-6.0757,-6.08,-6.08,-6.08,-6.08,-6.0723,-5.98,-5.83,-5.8223,0.0,0.0,-5.5859,-5.592,-5.5976,-5.6285,-5.6414,-5.6426,-5.656,-5.6601,-5.6601,-5.6601,-5.6601,-5.6582,-5.6504,-5.5293,-5.373,-5.2949,-5.209,-5.1406,-5.1406,-5.1406,-5.1406,-5.1406,-5.1406,-5.1406,-5.1406,-5.1348,-5.1094,-5.0351,-5.0137,-4.9824,-4.8945,-4.8789,-4.8496,-4.7637,-4.748,-4.7207,-4.6426,-4.6308,-4.6308,-4.6308,-4.6308,-4.6308,-4.6308,-4.6308,-4.6308,-4.6308,-4.6308,-4.6308,-4.6308,-4.6308,-4.6308,-4.6308,-4.6308,-4.6308,-4.6308,-4.6308,-4.6308,-4.6308,-4.6175,-4.6117,-4.6115,-4.5992,-4.5924,-4.189,-4.1933,-4.1063,-4.0496,-3.8474,-3.5408,-3.0699,0.0,0.0,-2.5023,-2.4435,-2.4545,-2.4654,-2.492,-2.582,0.0,-2.9045,-3.1244,0.0,0.0,0.0,0.0,0.0,0.0,0.0,0.0,0.0,0.0,0.0,0.0,-6.08,-6.0622,-6.0508,-6.0508,-6.0702,-6.0702,-6.0508,-6.0702,-6.08,-6.08,-6.08,-6.08,-6.0781,-6.0262,-5.9396,-5.828,-5.7742,0.0,0.0,-5.5769,-5.5834,-5.5928,-5.6177,-5.6324,-5.6419,-5.6559,-5.6601,-5.6601,-5.6601,-5.6601,-5.6601,-5.6601,-5.5781,-5.4629,-5.375,-5.2871,-5.207,-5.1543,-5.1406,-5.1406,-5.1406,-5.1406,-5.1406,-5.1406,-5.1406,-5.1308,-5.0996,-5.0918,-5.0683,-4.9844,-4.9687,-4.9414,-4.8535,-4.8379,-4.8262,-4.793,-4.7851,-4.7851,-4.7851,-4.7402,-4.707,-4.707,-4.6601,-4.6308,-4.6308,-4.6308,-4.6308,-4.6308,-4.6308,-4.6308,-4.6308,-4.6308,-4.6308,-4.6308,-4.6223,-4.6175,-4.6175,-4.6042,-4.5981,-4.5981,-4.592,-4.6149,-4.0306,-4.0747,-4.0196,-3.9747,-3.8113,-3.548,0.0,0.0,-2.7951,-2.5161,-2.4612,-2.4678,-2.4823,-2.4799,-2.5152,-2.6429,-2.7109,-2.8968,-3.3202,0.0,0.0,0.0,0.0,0.0,0.0,0.0,0.0,0.0,0.0,0.0,0.0,-6.08,-6.08,-6.08,-6.08,-6.08,-6.08,-6.08,-6.08,-6.08,-6.08,-6.08,-6.0762,-5.9896,-5.9069,-5.8261,0.0,0.0,0.0,-5.5703,-5.5789,-5.592,-5.6115,-5.6288,-5.6419,-5.6559,-5.6601,-5.6601,-5.6601,-5.6601,-5.6601,-5.6601,-5.6172,-5.5527,-5.4648,-5.3594,-5.2519,-5.1641,-5.1406,-5.1406,-5.1406,-5.1406,-5.1406,-5.1406,-5.1406,-5.1406,-5.1406,-5.1406,-5.123,-5.0664,-5.0547,-5.0273,-4.9433,-4.9277,-4.9199,-4.8945,-4.8906,-4.8906,-4.8906,-4.8359,-4.7891,-4.7637,-4.7051,-4.6582,-4.6328,-4.6308,-4.6308,-4.6308,-4.6308,-4.6308,-4.6308,-4.6308,-4.6308,-4.6308,-4.6173,-4.6108,-4.6108,-4.5939,-4.5867,-4.5881,-4.6091,-4.6603,-3.6141,-3.7414,-3.8553,-3.9857,-3.7789,-3.4958,0.0,-3.0408,-2.7485,-2.5254,-2.4904,-2.5004,-2.5004,-2.5157,-2.5455,-2.5921,-2.8012,-3.0555,-3.3395,0.0,0.0,0.0,0.0,0.0,0.0,0.0,0.0,0.0,0.0,0.0,0.0,-6.08,-6.08,-6.08,-6.08,-6.08,-6.08,-6.08,-6.08,-6.08,-6.08,-6.08,-6.0762,-5.9896,-5.9069,0.0,0.0,0.0,0.0,-5.5703,-5.5789,-5.592,-5.6115,-5.6288,-5.6419,-5.6559,-5.6601,-5.6601,-5.6601,-5.6601,-5.6601,-5.6601,-5.6582,-5.6426,-5.5547,-5.4082,-5.2519,-5.1641,-5.1406,-5.1406,-5.1406,-5.1406,-5.1406,-5.1406,-5.1406,-5.1406,-5.1406,-5.1406,-5.1406,-5.1387,-5.1387,-5.1133,-5.0332,-5.0195,-4.9883,-4.9023,-4.8906,-4.8906,-4.8906,-4.8887,-4.8555,-4.7695,-4.7598,-4.7246,-4.6367,-4.6308,-4.6308,-4.6308,-4.6308,-4.6308,-4.6308,-4.6308,-4.6308,-4.6308,-4.6173,-4.6108,-4.6108,-4.5896,-4.5803,-4.5815,-4.6543,-4.7317,-3.2488,-3.4091,-3.5203,-3.5215,-3.4031,-3.233,-3.0294,-2.8614,-2.7002,-2.5283,-2.4974,-2.504,-2.5173,-2.5146,-2.6003,-2.8825,-2.9812,0.0,0.0,0.0,0.0,0.0,0.0,0.0,0.0,0.0,0.0,0.0,0.0,0.0,0.0,-6.08,-6.08,-6.08,-6.08,-6.08,-6.08,-6.08,-6.08,-6.08,-6.08,-6.08,-6.0742,-5.9338,0.0,0.0,0.0,0.0,0.0,-5.5703,-5.5789,-5.592,-5.6115,-5.6288,-5.6419,-5.6559,-5.6601,-5.6601,-5.6601,-5.6601,-5.6601,-5.6601,-5.6601,-5.6445,-5.5566,-5.4492,-5.3281,-5.1816,-5.1406,-5.1406,-5.1406,-5.1406,-5.1406,-5.1406,-5.1406,-5.1406,-5.1406,-5.1406,-5.1406,-5.1406,-5.1406,-5.1328,-5.1055,-5.1016,-5.0937,-5.0644,-5.0605,-5.0605,-5.0605,-5.0137,-4.9687,-4.9414,-4.8848,-4.7891,-4.6426,-4.6308,-4.6308,-4.6308,-4.6308,-4.6308,-4.6308,-4.6308,-4.6308,-4.6308,-4.6662,-4.6843,-4.684,-4.7196,-4.7364,-4.7383,-4.8219,-4.8759,0.0,-3.1274,-3.2533,-3.2474,-3.1678,-3.0492,-2.8878,-2.764,-2.6501,-2.5357,-2.5105,-2.5152,-2.5274,-2.5141,-2.5874,-2.8541,-2.9401,0.0,0.0,0.0,0.0,0.0,0.0,0.0,0.0,0.0,0.0,0.0,0.0,0.0,0.0,-6.08,-6.08,-6.08,-6.08,-6.08,-6.08,-6.08,-6.08,-6.08,-6.08,-6.0627,-6.0262,-5.8915,0.0,0.0,0.0,0.0,0.0,-5.5759,-5.5868,-5.6031,-5.6217,-5.6365,-5.6486,-5.6561,-5.6601,-5.6601,-5.6601,-5.6601,-5.6601,-5.6601,-5.6601,-5.6387,-5.5176,-5.4199,-5.3203,-5.1797,-5.1406,-5.1406,-5.1406,-5.1406,-5.1406,-5.1406,-5.1406,-5.1406,-5.1406,-5.1406,-5.1406,-5.1406,-5.1406,-5.1406,-5.1406,-5.1406,-5.1406,-5.1406,-5.1406,-5.1406,-5.1406,-5.0957,-5.0547,-5.0234,-4.9707,-4.8828,-4.7402,-4.7285,-4.7285,-4.7285,-4.7285,-4.7285,-4.7285,-4.7285,-4.7285,-4.7285,-4.7557,-4.7684,-4.7684,-4.7971,-4.8279,-4.8606,-4.9144,-4.9586,0.0,-2.8582,-3.0103,-3.0931,-3.0139,-2.9057,-2.856,-2.7252,0.0,-2.5412,-2.5308,-2.5365,-2.5538,-2.5294,-2.5457,-2.6548,0.0,0.0,0.0,0.0,0.0,0.0,0.0,0.0,0.0,0.0,0.0,0.0,0.0,0.0,0.0,-6.0742,-6.0742,-6.08,-6.0742,-6.0742,-6.08,-6.08,-6.08,-6.08,-6.08,-6.0339,-5.9473,-5.8665,0.0,0.0,0.0,0.0,0.0,-5.5851,-5.6024,-5.6207,-5.6358,-5.6484,-5.6601,-5.6601,-5.6601,-5.6601,-5.6601,-5.6601,-5.6601,-5.6601,-5.6601,-5.6269,-5.4531,-5.3437,-5.2598,-5.166,-5.1406,-5.1406,-5.1406,-5.1406,-5.1406,-5.1406,-5.1406,-5.1406,-5.1406,-5.1406,-5.1406,-5.1406,-5.1406,-5.1406,-5.1406,-5.1406,-5.1406,-5.1406,-5.1406,-5.1406,-5.1406,-5.1406,-5.1113,-5.0371,-5.0293,-4.9961,-4.9141,-4.8965,-4.8906,-4.8906,-4.8906,-4.8906,-4.8906,-4.8906,-4.8906,-4.8906,-4.8691,-4.8618,-4.8657,-4.8408,-4.8702,-4.949,-4.949,-4.9933,-2.2335,0.0,-2.4259,-2.5378,-2.5408,-2.533,0.0,-2.5798,-2.5474,-2.5336,0.0,-2.5904,-2.7852,-2.6954,-2.7651,0.0,0.0,0.0,0.0,0.0,0.0,0.0,0.0,0.0,0.0,0.0,0.0,0.0,0.0,0.0,0.0,-6.0165,-6.0108,-6.0781,-6.0146,-6.0127,-6.0781,-6.08,-6.08,-6.08,-6.08,-6.0339,-5.9473,-5.8665,0.0,0.0,0.0,0.0,-5.5705,-5.5851,-5.6024,-5.6207,-5.6358,-5.6484,-5.6601,-5.6601,-5.6601,-5.6601,-5.6601,-5.6601,-5.6601,-5.6601,-5.6601,-5.6269,-5.4531,-5.3867,-5.3379,-5.1836,-5.1406,-5.1406,-5.1406,-5.1406,-5.1406,-5.1406,-5.1406,-5.1406,-5.1406,-5.1406,-5.1406,-5.1406,-5.1406,-5.1406,-5.1406,-5.1406,-5.1406,-5.1406,-5.1406,-5.1406,-5.1406,-5.1406,-5.1328,-5.1133,-5.1113,-5.1035,-5.082,-4.9648,-4.8906,-4.8906,-4.8906,-4.8906,-4.8906,-4.8906,-4.8906,-4.8906,-4.9289,-4.971,-5.0182,-5.0124,-5.0183,-5.0385,-5.0385,-5.05,-2.0565,-2.2224,-2.4119,-2.4784,-2.5325,-2.582,-2.6374,0.0,0.0,0.0,0.0,-2.5846,-2.7621,0.0,0.0,0.0,0.0,0.0,0.0,0.0,0.0,0.0,0.0,0.0,0.0,0.0,0.0,0.0,0.0,0.0,0.0,-5.9204,-5.9165,-5.9646,-5.9204,-5.955,-6.0781,-6.08,-6.08,-6.08,-6.0396,-5.9762,-5.8915,-5.8088,-5.7223,0.0,0.0,0.0,-5.5788,-5.5978,-5.6139,-5.6309,-5.645,-5.6537,-5.6601,-5.6601,-5.6601,-5.6601,-5.6601,-5.6601,-5.6601,-5.6601,-5.6601,-5.6348,-5.5,-5.4316,-5.3633,-5.1894,-5.1406,-5.1406,-5.1406,-5.1406,-5.1406,-5.1406,-5.1406,-5.1406,-5.1406,-5.1406,-5.1406,-5.1406,-5.1406,-5.1406,-5.1406,-5.1406,-5.1406,-5.1406,-5.1406,-5.1406,-5.1406,-5.1406,-5.1406,-5.1406,-5.1406,-5.1406,-5.1406,-5.0566,-5.0058,-5.0058,-5.0058,-5.0058,-5.0058,-5.0058,-5.0018,-4.9951,-5.0244,-5.0525,-5.0799,-5.073,-5.0712,-5.0712,-5.0712,-5.0712,-2.0518,-2.3518,-2.6409,-2.5869,-2.6787,-2.7794,-2.7637,0.0,0.0,0.0,0.0,0.0,0.0,0.0,0.0,0.0,0.0,0.0,0.0,0.0,0.0,0.0,0.0,0.0,0.0,0.0,0.0,0.0,0.0,0.0,0.0,-5.8165,-5.8165,-5.83,-5.8165,-5.8858,-6.0396,-6.0416,-6.0416,-6.0416,-5.9665,-5.8896,-5.8088,-5.7338,-5.6522,0.0,0.0,0.0,-5.5912,-5.6128,-5.6288,-5.6416,-5.6558,-5.6601,-5.6601,-5.6601,-5.6601,-5.6601,-5.6601,-5.6601,-5.6601,-5.6601,-5.6601,-5.6445,-5.5566,-5.4785,-5.3848,-5.209,-5.1504,-5.1406,-5.1406,-5.1406,-5.1406,-5.1406,-5.1406,-5.1406,-5.1406,-5.1406,-5.1406,-5.1406,-5.1406,-5.1406,-5.1406,-5.1406,-5.1406,-5.1406,-5.1406,-5.1406,-5.1406,-5.1406,-5.1406,-5.1406,-5.1406,-5.1406,-5.1406,-5.1406,-5.1406,-5.1406,-5.1406,-5.1406,-5.1406,-5.1406,-5.1343,-5.1204,-5.1137,-5.102,-5.0908,-5.0775,-5.0712,-5.0712,-5.0712,-5.0712,-2.2871,-2.5523,-2.6913,-2.3858,-2.5342,-2.735,-2.6486,0.0,0.0,0.0,0.0,0.0,0.0,0.0,0.0,0.0,0.0,0.0,0.0,0.0,0.0,0.0,0.0,0.0,0.0,0.0,0.0,0.0,0.0,0.0,0.0,-5.7588,-5.753,-5.828,-5.7569,-5.7684,-5.8665,-5.8684,-5.8684,-5.8684,-5.855,-5.803,-5.7214,-5.706,-5.6522,0.0,0.0,-5.5779,-5.5912,-5.6128,-5.6288,-5.6416,-5.6558,-5.6601,-5.6601,-5.6601,-5.6601,-5.6601,-5.6601,-5.6601,-5.6601,-5.6601,-5.6601,-5.6445,-5.5566,-5.5215,-5.4746,-5.2988,-5.1973,-5.1406,-5.1406,-5.1406,-5.1406,-5.1406,-5.1406,-5.1406,-5.1406,-5.1406,-5.1406,-5.1406,-5.1406,-5.1406,-5.1406,-5.1406,-5.1406,-5.1406,-5.1406,-5.1406,-5.1406,-5.1406,-5.1406,-5.1406,-5.1406,-5.1406,-5.1406,-5.1406,-5.1406,-5.1406,-5.1406,-5.1406,-5.1406,-5.1406,-5.1343,-5.1204,-5.1137,-5.102,-5.0908,-5.0775,-5.0712,-5.0712,-5.0712,-5.0712,-2.2254,-2.4543,-2.6301,-2.546,-2.8086,-3.0687,-3.0082,0.0,0.0,0.0,0.0,0.0,0.0,0.0,0.0,0.0,0.0,0.0,0.0,0.0,0.0,0.0,0.0,0.0,0.0,0.0,0.0,0.0,0.0,0.0,0.0,0.0,-5.6472,-5.6876,-5.6511,-5.6492,-5.6896,-5.6896,-5.7376,-5.83,-5.7819,-5.7376,-5.6983,-5.6522,-5.6069,-5.5703,0.0,-5.5844,-5.6065,-5.6164,-5.632,-5.6514,-5.6581,-5.6601,-5.6601,-5.6601,-5.6601,-5.6601,-5.6601,-5.6601,-5.6601,-5.6601,-5.6601,-5.6523,-5.6113,-5.5664,-5.5039,-5.3769,-5.2773,-5.1992,-5.1523,-5.1406,-5.1406,-5.1406,-5.1406,-5.1406,-5.1406,-5.1406,-5.1406,-5.1406,-5.1406,-5.1406,-5.1406,-5.1406,-5.1406,-5.1406,-5.1406,-5.1406,-5.1406,-5.1406,-5.1406,-5.1406,-5.1406,-5.1406,-5.1406,-5.1406,-5.1406,-5.1406,-5.1406,-5.1406,-5.1406,-5.1406,-5.1366,-5.1318,-5.1163,-5.1058,-5.101,-5.0789,-5.0712,-5.0712,-5.0712,-5.0712,-2.1773,-2.3673,-2.5714,-2.7421,0.0,-3.2697,-3.3459,0.0,0.0,0.0,0.0,0.0,0.0,0.0,0.0,0.0,0.0,0.0,0.0,0.0,0.0,0.0,0.0,0.0,0.0,0.0,0.0,0.0,0.0,0.0,0.0,0.0,-5.5703,-5.5703,-5.5703,-5.5703,-5.5703,-5.5703,-5.6376,-5.7684,-5.7011,-5.6695,-5.6676,-5.5992,-5.5703,-5.5695,-5.5738,-5.591,-5.6197,-5.6227,-5.6383,-5.6601,-5.6601,-5.6601,-5.6601,-5.6601,-5.6601,-5.6601,-5.6601,-5.6601,-5.6601,-5.6601,-5.6601,-5.6601,-5.6601,-5.6133,-5.543,-5.4551,-5.3828,-5.3008,-5.1738,-5.1406,-5.1406,-5.1406,-5.1406,-5.1406,-5.1406,-5.1406,-5.1406,-5.1406,-5.1406,-5.1406,-5.1406,-5.1406,-5.1406,-5.1406,-5.1406,-5.1406,-5.1406,-5.1406,-5.1406,-5.1406,-5.1406,-5.1406,-5.1406,-5.1406,-5.1406,-5.1406,-5.1406,-5.1406,-5.1406,-5.1406,-5.1406,-5.1406,-5.1203,-5.1089,-5.1089,-5.0819,-5.0712,-5.0712,-5.0712,-5.0712,-2.324,-2.4582,-2.5838,-2.8055,-2.8745,0.0,-3.3799,-3.3197,0.0,-3.6056,0.0,0.0,0.0,0.0,0.0,0.0,0.0,0.0,0.0,0.0,0.0,0.0,0.0,0.0,0.0,0.0,0.0,0.0,0.0,0.0,0.0,0.0,0.0,-5.5703,-5.5703,-5.5703,-5.5703,-5.5703,-5.5761,-5.5895,-5.5818,-5.578,-5.578,-5.5722,-5.5703,-5.5705,-5.5824,-5.6003,-5.6202,-5.6331,-5.6462,-5.6601,-5.6601,-5.6601,-5.6601,-5.6601,-5.6601,-5.6601,-5.6601,-5.6601,-5.6601,-5.6601,-5.6601,-5.6601,-5.6601,-5.6562,-5.6328,-5.5449,-5.5156,-5.4531,-5.2051,-5.1406,-5.1406,-5.1406,-5.1406,-5.1406,-5.1406,-5.1406,-5.1406,-5.1406,-5.1406,-5.1406,-5.1406,-5.1406,-5.1406,-5.1406,-5.1406,-5.1406,-5.1406,-5.1406,-5.1406,-5.1406,-5.1406,-5.1406,-5.1406,-5.1406,-5.1406,-5.1406,-5.1406,-5.1406,-5.1406,-5.1406,-5.1406,-5.1406,-5.1203,-5.1089,-5.1089,-5.0819,-5.0712,-5.0712,-5.0712,-5.0712,-2.2759,-2.5067,-2.7509,-2.9954,-3.1058,0.0,0.0,-3.6005,-3.7507,-3.9851,0.0,0.0,0.0,0.0,0.0,0.0,0.0,0.0,0.0,0.0,0.0,0.0,0.0,0.0,0.0,0.0,0.0,0.0,0.0,0.0,0.0,0.0,0.0,-5.5703,-5.5703,-5.5703,-5.5703,-5.5703,-5.5703,-5.5703,-5.5703,-5.5703,-5.5703,-5.5703,-5.5739,-5.5834,-5.5883,-5.6058,-5.6324,-5.6377,-5.6483,-5.6601,-5.6601,-5.6601,-5.6601,-5.6601,-5.6601,-5.6601,-5.6601,-5.6601,-5.6601,-5.6601,-5.6601,-5.6601,-5.6601,-5.6601,-5.6426,-5.5547,-5.5293,-5.4941,-5.3418,-5.3027,-5.3027,-5.3027,-5.3027,-5.3027,-5.3027,-5.2598,-5.2207,-5.2207,-5.1777,-5.1406,-5.1406,-5.1406,-5.1406,-5.1406,-5.1406,-5.1406,-5.1406,-5.1406,-5.1406,-5.1406,-5.1406,-5.1406,-5.1406,-5.1406,-5.1366,-5.1273,-5.1345,-5.1406,-5.1406,-5.1406,-5.1365,-5.1271,-5.1156,-5.1067,-5.0972,-5.0791,-5.0712,-5.0712,-5.0712,-5.0971,-2.2489,-2.5106,-2.8102,-3.066,0.0,0.0,-3.6129,-3.8122,-4.0223,0.0,0.0,0.0,0.0,0.0,0.0,0.0,0.0,0.0,0.0,0.0,0.0,0.0,0.0,0.0,0.0,0.0,0.0,0.0,0.0,0.0,0.0,0.0,0.0,0.0,-5.5703,-5.5703,-5.5703,-5.5703,-5.5703,-5.5703,-5.5703,-5.5703,-5.5703,-5.5703,-5.5779,-5.5904,-5.5974,-5.6142,-5.6391,-5.6452,-5.6514,-5.6601,-5.6601,-5.6601,-5.6601,-5.6601,-5.6601,-5.6601,-5.6601,-5.6601,-5.6601,-5.6601,-5.6601,-5.6601,-5.6601,-5.6601,-5.6484,-5.5879,-5.5703,-5.5566,-5.498,-5.4414,-5.4004,-5.4004,-5.4004,-5.4004,-5.4004,-5.3535,-5.3027,-5.2754,-5.2226,-5.1719,-5.1445,-5.1406,-5.1406,-5.1406,-5.1406,-5.1406,-5.1406,-5.1406,-5.1406,-5.1406,-5.1406,-5.1406,-5.1406,-5.1406,-5.1344,-5.1206,-5.1294,-5.134,-5.1309,-5.1309,-5.1254,-5.1167,-5.1079,-5.0991,-5.0908,-5.0775,-5.0827,-5.1087,-5.1087,-5.1529,-2.2816,-2.4697,-2.7255,0.0,0.0,0.0,0.0,-3.9129,-3.9989,0.0,0.0,0.0,0.0,0.0,0.0,0.0,0.0,0.0,0.0,0.0,0.0,0.0,0.0,0.0,0.0,0.0,0.0,0.0,0.0,0.0,0.0,0.0,0.0,0.0,-5.5703,-5.5703,-5.5703,-5.5703,-5.5703,-5.5703,-5.5703,-5.5703,-5.5703,-5.5703,-5.5779,-5.5912,-5.6103,-5.6284,-5.6416,-5.6558,-5.6601,-5.6601,-5.6601,-5.6601,-5.6601,-5.6601,-5.6601,-5.6601,-5.6601,-5.6601,-5.6601,-5.6601,-5.6601,-5.6601,-5.6601,-5.6601,-5.6601,-5.6601,-5.6601,-5.6601,-5.6601,-5.5312,-5.4023,-5.4023,-5.4023,-5.4023,-5.4023,-5.4023,-5.3769,-5.2891,-5.2715,-5.2422,-5.1562,-5.1406,-5.1406,-5.1406,-5.1406,-5.1406,-5.1406,-5.1406,-5.1406,-5.1406,-5.1426,-5.1426,-5.1406,-5.1426,-5.1363,-5.1206,-5.1201,-5.1187,-5.1099,-5.1089,-5.1089,-5.1108,-5.0959,-5.0908,-5.0908,-5.0766,-5.1125,-5.1904,-5.1904,-5.2385,-2.3701,-2.6876,0.0,0.0,0.0,0.0,0.0,0.0,0.0,0.0,0.0,0.0,0.0,0.0,0.0,0.0,0.0,0.0,0.0,0.0,0.0,0.0,0.0,0.0,0.0,0.0,0.0,0.0,0.0,0.0,0.0,0.0,0.0,0.0,-5.5703,-5.5703,-5.5703,-5.5703,-5.5703,-5.5703,-5.5703,-5.5703,-5.5703,-5.5703,-5.5854,-5.6109,-5.6175,-5.6328,-5.6539,-5.6582,-5.6601,-5.6601,-5.6601,-5.6601,-5.6601,-5.6601,-5.6601,-5.6601,-5.6601,-5.6601,-5.6601,-5.6601,-5.6601,-5.6601,-5.6601,-5.6601,-5.6601,-5.6601,-5.6601,-5.6601,-5.6601,-5.6211,-5.582,-5.582,-5.582,-5.582,-5.582,-5.5351,-5.4844,-5.457,-5.3535,-5.2617,-5.2363,-5.1816,-5.1406,-5.1406,-5.1406,-5.1406,-5.1406,-5.1933,-5.2305,-5.2305,-5.2851,-5.2948,-5.2225,-5.2747,-5.2483,-5.1084,-5.1526,-5.1614,-5.1128,-5.1089,-5.1067,-5.0953,-5.0918,-5.0859,-5.0757,-5.1299,-5.1673,-5.1904,-5.2519,-5.328,-2.6236,0.0,0.0,0.0,0.0,0.0,0.0,0.0,0.0,0.0,0.0,0.0,0.0,0.0,0.0,0.0,0.0,0.0,0.0,0.0,0.0,0.0,0.0,0.0,0.0,0.0,0.0,0.0,0.0,0.0,0.0,0.0,0.0,0.0,-5.5703,-5.5703,-5.5703,-5.5703,-5.5703,-5.5703,-5.5703,-5.5728,-5.5789,-5.5789,-5.5935,-5.6216,-5.6317,-5.6454,-5.6601,-5.6601,-5.6601,-5.6601,-5.6601,-5.6601,-5.6601,-5.6601,-5.6601,-5.6601,-5.6601,-5.6601,-5.6601,-5.6601,-5.6601,-5.6601,-5.6601,-5.6601,-5.6601,-5.6601,-5.6601,-5.6601,-5.6601,-5.6601,-5.6601,-5.6601,-5.6601,-5.6601,-5.6601,-5.6191,-5.5703,-5.5371,-5.4453,-5.3613,-5.3281,-5.2773,-5.2422,-5.2422,-5.2422,-5.2305,-5.1953,-5.2676,-5.3223,-5.3223,-5.3691,-5.3726,-5.306,-5.3498,-5.3249,-5.1976,-5.2353,-5.2407,-5.1946,-5.1598,-5.1547,-5.1807,-5.1799,-5.1776,-5.1683,-5.2183,-5.2577,-5.2953,-5.3472,-5.4164,0.0,0.0,0.0,0.0,0.0,0.0,0.0,0.0,0.0,0.0,0.0,0.0,0.0,0.0,0.0,0.0,0.0,0.0,0.0,0.0,0.0,0.0,0.0,0.0,0.0,0.0,0.0,0.0,0.0,0.0,0.0,0.0,0.0,-5.5453,-5.5472,-5.5472,-5.5472,-5.5472,-5.5472,0.0,-5.5581,-5.5673,-5.5788,-5.5857,-5.6024,-5.6227,-5.6488,-5.6601,-5.6601,-5.6601,-5.6601,-5.6601,-5.6601,-5.6601,-5.6601,-5.6601,-5.6601,-5.6601,-5.6601,-5.6601,-5.6601,-5.6601,-5.6601,-5.6601,-5.6601,-5.6601,-5.6601,-5.6601,-5.6601,-5.6601,-5.6601,-5.6601,-5.6601,-5.6601,-5.6601,-5.6601,-5.6601,-5.6601,-5.6367,-5.5566,-5.5351,-5.5058,-5.4258,-5.4043,-5.4004,-5.4004,-5.4004,-5.3711,-5.293,-5.3574,-5.4121,-5.4121,-5.4199,-5.4155,-5.3925,-5.3975,-5.3831,-5.3418,-5.3464,-5.3458,-5.3328,-5.2481,-5.2385,-5.3183,-5.3203,-5.3203,-5.3203,-5.328,-5.3722,-5.4491,-5.4587,-5.4991,0.0,0.0,0.0,0.0,0.0,0.0,0.0,0.0,0.0,0.0,0.0,0.0,0.0,0.0,0.0,0.0,0.0,0.0,0.0,0.0,0.0,0.0,0.0,0.0,0.0,0.0,0.0,0.0,0.0,0.0,0.0,0.0,0.0,-5.3741,-5.3741,-5.3741,-5.3741,-5.3741,-5.3741,0.0,-5.4532,-5.4943,-5.4983,-5.5614,-5.6071,-5.6371,-5.6536,-5.6601,-5.6601,-5.6601,-5.6601,-5.6601,-5.6601,-5.6601,-5.6601,-5.6601,-5.6601,-5.6601,-5.6601,-5.6601,-5.6601,-5.6601,-5.6601,-5.6601,-5.6601,-5.6601,-5.6601,-5.6601,-5.6601,-5.6601,-5.6601,-5.6601,-5.6601,-5.6601,-5.6601,-5.6601,-5.6601,-5.6601,-5.6543,-5.6367,-5.5762,-5.5234,-5.5058,-5.4453,-5.4004,-5.4004,-5.4004,-5.3926,-5.373,-5.4473,-5.5019,-5.5019,-5.5625,-5.5672,-5.4736,-5.5278,-5.4983,-5.3359,-5.388,-5.4245,-5.4222,-5.3376,-5.301,-5.3203,-5.3203,-5.3203,-5.3203,-5.3895,-5.4318,-5.4511,-5.5145,-5.553,0.0,0.0,0.0,0.0,0.0,0.0,0.0,0.0,0.0,0.0,0.0,0.0,0.0,0.0,0.0,0.0,0.0,0.0,0.0,0.0,0.0,0.0,0.0,0.0,0.0,0.0,0.0,0.0,0.0,0.0,0.0,-5.2577,-5.2779,-5.3203,-5.3203,-5.3203,-5.3203,-5.3203,-5.3203,-5.3203,-5.3804,-5.4141,-5.4308,-5.5578,-5.6266,-5.651,-5.6561,-5.6601,-5.6601,-5.6601,-5.6601,-5.6601,-5.6601,-5.6601,-5.6601,-5.6601,-5.6601,-5.6601,-5.6601,-5.6601,-5.6601,-5.6601,-5.6601,-5.6601,-5.6601,-5.6601,-5.6601,-5.6601,-5.6601,-5.6601,-5.6601,-5.6601,-5.6601,-5.6601,-5.6601,-5.6601,-5.6601,-5.6601,-5.6601,-5.6601,-5.623,-5.5918,-5.5918,-5.5547,-5.5058,-5.4512,-5.4902,-5.4941,-5.4101,-5.5137,-5.5918,-5.5918,-5.6328,-5.6313,-5.558,-5.5944,-5.5689,-5.4465,-5.4818,-5.5068,-5.5068,-5.4645,-5.4395,-5.4395,-5.4395,-5.4395,-5.4395,-5.4857,-5.5068,-5.5068,-5.5491,-5.5703,0.0,0.0,0.0,0.0,0.0,0.0,0.0,0.0,0.0,0.0,0.0,0.0,0.0,0.0,0.0,0.0,0.0,0.0,0.0,0.0,0.0,0.0,0.0,0.0,0.0,0.0,0.0,0.0,0.0,0.0,-5.1654,-5.1692,-5.2029,-5.276,-5.2779,-5.2779,-5.2779,-5.2779,-5.278,-5.281,-5.31,-5.3457,-5.3886,-5.5333,-5.6137,-5.6387,-5.6387,-5.6465,-5.6601,-5.6601,-5.6601,-5.6601,-5.6601,-5.6601,-5.6601,-5.6601,-5.6601,-5.6601,-5.6601,-5.6601,-5.6601,-5.6601,-5.6601,-5.6601,-5.6601,-5.6601,-5.6601,-5.6601,-5.6601,-5.6601,-5.6601,-5.6601,-5.6601,-5.6601,-5.6601,-5.6601,-5.6601,-5.6601,-5.6601,-5.6601,-5.6601,-5.6601,-5.6601,-5.6601,-5.6289,-5.5332,-5.5996,-5.6074,-5.4629,-5.5703,-5.6601,-5.6601,-5.6601,-5.651,-5.6237,-5.6202,-5.605,-5.5726,-5.5703,-5.5703,-5.5703,-5.5703,-5.5703,-5.5703,-5.5703,-5.5703,-5.5703,-5.5703,-5.5703,-5.5703,-5.5703,-5.5703,0.0,0.0,0.0,0.0,0.0,0.0,0.0,0.0,0.0,0.0,0.0,0.0,0.0,0.0,0.0,0.0,0.0,0.0,0.0,0.0,0.0,0.0,0.0,0.0,0.0,0.0,0.0,0.0,0.0,0.0,-5.0837,-5.0856,-5.0923,-5.1039,-5.1039,-5.1039,-5.1039,-5.1039,-5.1085,-5.1219,-5.2173,-5.3108,-5.3983,-5.4217,-5.4745,-5.5469,-5.5469,-5.5898,-5.6601,-5.6601,-5.6601,-5.6601,-5.6601,-5.6601,-5.6601,-5.6601,-5.6601,-5.6601,-5.6601,-5.6601,-5.6601,-5.6601,-5.6601,-5.6601,-5.6601,-5.6601,-5.6601,-5.6601,-5.6601,-5.6601,-5.6601,-5.6601,-5.6601,-5.6601,-5.6601,-5.6601,-5.6601,-5.6601,-5.6601,-5.6601,-5.6601,-5.6601,-5.6601,-5.6601,-5.6543,-5.6406,-5.6504,-5.6523,-5.6289,-5.6465,-5.6601,-5.6601,-5.6601,-5.6516,-5.6308,-5.6237,-5.605,-5.5726,-5.5703,-5.5703,-5.5703,-5.5703,-5.5703,-5.5703,-5.5703,-5.5703,-5.5703,-5.5703,-5.5703,-5.5703,-5.5703,-5.5703,0.0,0.0,0.0,0.0,0.0,0.0,0.0,0.0,0.0,0.0,0.0,0.0,0.0,0.0,0.0,0.0,0.0,0.0,0.0,0.0,0.0,0.0,0.0,0.0,0.0,0.0,0.0,0.0,0.0,-5.0712,-5.0712,-5.0712,-5.0712,-5.0712,-5.0712,-5.0712,-5.0712,-5.0712,-5.0816,-5.1022,-5.1537,-5.2031,-5.2539,-5.2539,-5.3281,-5.457,-5.457,-5.4785,-5.5137,-5.5137,-5.5137,-5.5137,-5.5137,-5.5137,-5.5137,-5.5137,-5.5137,-5.5137,-5.5137,-5.5469,-5.5879,-5.5879,-5.6191,-5.6601,-5.6601,-5.6601,-5.6601,-5.6601,-5.6601,-5.6601,-5.6601,-5.6601,-5.6601,-5.6601,-5.6601,-5.6601,-5.6601,-5.6601,-5.6601,-5.6601,-5.6601,-5.6601,-5.6601,-5.6601,-5.6601,-5.6601,-5.6601,-5.6601,-5.6601,-5.6601,-5.6601,-5.6601,-5.6601,-5.6516,-5.6319,-5.6177,-5.5971,-5.5716,-5.5703,-5.5703,-5.5703,-5.5703,-5.5703,-5.5703,-5.5703,-5.5703,-5.5703,-5.5703,-5.5703,-5.5703,-5.5703,-5.5703,0.0,0.0,0.0,0.0,0.0,0.0,0.0,0.0,0.0,0.0,0.0,0.0,0.0,0.0,0.0,0.0,0.0,0.0,0.0,0.0,0.0,0.0,0.0,0.0,0.0,0.0,0.0,0.0,0.0,-5.0712,-5.0712,-5.0712,-5.0712,-5.0712,-5.0712,-5.0712,-5.0712,-5.0775,-5.0889,-5.1094,-5.1205,-5.1297,-5.1406,-5.1406,-5.2109,-5.3359,-5.3574,-5.3808,-5.4004,-5.4004,-5.4004,-5.4004,-5.4004,-5.4004,-5.4004,-5.4004,-5.4004,-5.4004,-5.4004,-5.4433,-5.5019,-5.5234,-5.5742,-5.6308,-5.6523,-5.6601,-5.6601,-5.6601,-5.6601,-5.6601,-5.6601,-5.6601,-5.6601,-5.6601,-5.6601,-5.6601,-5.6601,-5.6601,-5.6601,-5.6601,-5.6601,-5.6601,-5.6601,-5.6601,-5.6601,-5.6601,-5.6601,-5.6601,-5.6601,-5.6601,-5.6601,-5.6601,-5.6601,-5.6515,-5.6297,-5.6102,-5.5907,-5.5716,-5.5703,-5.5703,-5.5703,-5.5703,-5.5703,-5.5703,-5.5703,-5.5703,-5.5703,-5.5703,-5.5703,-5.5703,-5.5703,-5.5703,0.0,0.0,0.0,0.0,0.0,0.0,0.0,0.0,0.0,0.0,0.0,0.0,0.0,0.0,0.0,0.0,0.0,0.0,0.0,0.0,0.0,0.0,0.0,0.0,0.0,0.0,0.0,0.0,0.0,-5.0712,-5.0712,-5.0712,-5.0712,-5.0712,-5.0712,-5.0712,-5.0712,-5.094,-5.1098,-5.1094,-5.1306,-5.1387,-5.1406,-5.1406,-5.1445,-5.1582,-5.2402,-5.3242,-5.4004,-5.4004,-5.4004,-5.4004,-5.4004,-5.4004,-5.4004,-5.4004,-5.4004,-5.4004,-5.4004,-5.4023,-5.4199,-5.5039,-5.5332,-5.5527,-5.6348,-5.6601,-5.6601,-5.6601,-5.6601,-5.6601,-5.6601,-5.6601,-5.6601,-5.6601,-5.6601,-5.6601,-5.6601,-5.6601,-5.6601,-5.6601,-5.6601,-5.6601,-5.6601,-5.6601,-5.6601,-5.6601,-5.6601,-5.6601,-5.6601,-5.6601,-5.6601,-5.6601,-5.6601,-5.6489,-5.6222,-5.6084,-5.5915,-5.5716,-5.5703,-5.5703,-5.5703,-5.5703,-5.5703,-5.5703,-5.5703,-5.5703,-5.5703,-5.5703,-5.5703,-5.5703,-5.5703,-5.5703,0.0,0.0,0.0,0.0,0.0,0.0,0.0,0.0,0.0,0.0,0.0,0.0,0.0,0.0,0.0,0.0,0.0,0.0,0.0,0.0,0.0,0.0,0.0,0.0,0.0,0.0,0.0,0.0,0.0,0.0,-5.0712,-5.0712,-5.0712,-5.0712,-5.0712,-5.0712,-5.0712,-5.0979,-5.1089,-5.1094,-5.1307,-5.1406,-5.1406,-5.1406,-5.1406,-5.1426,-5.1738,-5.2031,-5.2324,-5.2324,-5.2324,-5.2324,-5.2324,-5.2324,-5.2324,-5.2324,-5.2324,-5.2324,-5.2324,-5.2695,-5.3223,-5.3535,-5.4004,-5.4512,-5.4844,-5.5312,-5.5762,-5.5762,-5.6172,-5.6601,-5.6601,-5.6601,-5.6601,-5.6601,-5.6601,-5.6601,-5.6601,-5.6601,-5.6601,-5.6601,-5.6601,-5.6601,-5.6601,-5.6601,-5.6601,-5.6601,-5.6601,-5.6601,-5.6601,-5.6601,-5.6601,-5.6601,-5.6452,-5.6273,-5.609,-5.591,-5.5789,-5.5695,-5.5703,-5.5703,-5.5703,-5.5703,-5.5703,-5.5703,-5.5703,-5.5703,-5.5703,-5.5703,-5.5703,-5.5703,-5.5703,-5.5703,0.0,0.0,0.0,0.0,0.0,0.0,0.0,0.0,0.0,0.0,0.0,0.0,0.0,0.0,0.0,0.0,0.0,0.0,0.0,0.0,0.0,0.0,0.0,0.0,0.0,0.0,0.0,0.0,0.0,0.0,-4.9817,-5.0087,-5.0404,-5.0693,-5.0712,-5.0712,-5.0775,-5.0985,-5.1113,-5.1137,-5.1315,-5.1406,-5.1406,-5.1406,-5.1406,-5.1406,-5.1406,-5.1406,-5.1406,-5.1406,-5.1406,-5.1406,-5.1406,-5.1406,-5.1406,-5.1406,-5.1406,-5.1406,-5.1406,-5.1777,-5.2305,-5.2598,-5.3086,-5.3613,-5.3906,-5.4394,-5.4863,-5.4863,-5.5488,-5.6152,-5.6152,-5.6387,-5.6601,-5.6601,-5.6601,-5.6601,-5.6601,-5.6601,-5.6601,-5.6601,-5.6601,-5.6601,-5.6601,-5.6601,-5.6601,-5.6601,-5.6601,-5.6601,-5.6601,-5.6601,-5.6601,-5.6601,-5.6269,-5.6022,-5.601,-5.5817,-5.5703,-5.5703,-5.5703,-5.5703,-5.5703,-5.5703,-5.5703,-5.5703,-5.5703,-5.5703,-5.5703,-5.5703,-5.5703,-5.5703,-5.5703,-5.5703,0.0,0.0,0.0,0.0,0.0,0.0,0.0,0.0,0.0,0.0,0.0,0.0,0.0,0.0,0.0,0.0,0.0,0.0,0.0,0.0,0.0,0.0,0.0,0.0,0.0,0.0,0.0,0.0,0.0,-4.8105,-4.8105,-4.8894,-4.976,-5.0635,-5.0673,-5.0736,-5.0908,-5.1025,-5.1137,-5.1204,-5.1342,-5.1406,-5.1406,-5.1406,-5.1406,-5.1406,-5.1406,-5.1406,-5.1406,-5.1406,-5.1406,-5.1406,-5.1406,-5.1406,-5.1406,-5.1406,-5.1406,-5.1406,-5.1406,-5.1406,-5.1543,-5.2383,-5.2656,-5.2812,-5.3672,-5.3945,-5.3965,-5.3965,-5.459,-5.5273,-5.5293,-5.5937,-5.6562,-5.6582,-5.6601,-5.6601,-5.6601,-5.6601,-5.6601,-5.6601,-5.6601,-5.6601,-5.6601,-5.6601,-5.6601,-5.6601,-5.6601,-5.6601,-5.6601,-5.6601,-5.6601,-5.6582,-5.6065,-5.5798,-5.5974,-5.5808,-5.5703,-5.5703,-5.5703,-5.5703,-5.5703,-5.5703,-5.5703,-5.5703,-5.5703,-5.5703,-5.5703,-5.5703,-5.5703,-5.5703,-5.5703,-5.5703,-2.237,0.0,0.0,0.0,0.0,0.0,0.0,0.0,0.0,0.0,0.0,0.0,0.0,0.0,0.0,0.0,0.0,0.0,0.0,0.0,0.0,0.0,0.0,0.0,0.0,0.0,0.0,0.0,-4.8105,-4.8105,-4.8105,-4.8336,-4.8856,-4.9721,-4.9854,-5.0217,-5.0889,-5.1083,-5.1183,-5.1204,-5.1342,-5.1406,-5.1406,-5.1406,-5.1406,-5.1406,-5.1406,-5.1406,-5.1406,-5.1406,-5.1406,-5.1406,-5.1406,-5.1406,-5.1406,-5.1406,-5.1406,-5.1406,-5.1406,-5.1406,-5.1445,-5.168,-5.1758,-5.1797,-5.2051,-5.2558,-5.3066,-5.3066,-5.3691,-5.4492,-5.5137,-5.5488,-5.582,-5.6445,-5.6601,-5.6601,-5.6601,-5.6601,-5.6601,-5.6601,-5.6601,-5.6601,-5.6601,-5.6601,-5.6601,-5.6601,-5.6601,-5.6601,-5.6601,-5.6601,-5.6539,-5.6402,-5.6225,-5.6083,-5.5944,-5.5798,-5.5703,-5.5703,-5.5703,-5.5703,-5.5703,-5.5703,-5.5703,-5.5703,-5.5703,-5.5703,-5.5703,-5.5703,-5.5703,-5.5703,-5.5703,-5.5703,0.0,0.0,0.0,0.0,0.0,0.0,0.0,0.0,0.0,0.0,0.0,0.0,0.0,0.0,0.0,0.0,0.0,0.0,0.0,0.0,0.0,0.0,0.0,0.0,0.0,0.0,0.0,-4.7028,-4.7067,-4.7221,-4.7586,-4.7605,-4.799,-4.8836,-4.8995,-4.9336,-4.9892,-5.0435,-5.0727,-5.0785,-5.1209,-5.1406,-5.1406,-5.1406,-5.1406,-5.1406,-5.1406,-5.1406,-5.1406,-5.1406,-5.1406,-5.1406,-5.1406,-5.1406,-5.1406,-5.1406,-5.1406,-5.1406,-5.1406,-5.1406,-5.1406,-5.1406,-5.1406,-5.1406,-5.1406,-5.1758,-5.2168,-5.2168,-5.2793,-5.3652,-5.4531,-5.4765,-5.4941,-5.5703,-5.5898,-5.6015,-5.6504,-5.6601,-5.6601,-5.6601,-5.6601,-5.6601,-5.6601,-5.6601,-5.6601,-5.6601,-5.6601,-5.6601,-5.6601,-5.6601,-5.6463,-5.609,-5.6045,-5.6005,-5.5912,-5.5779,-5.5703,-5.5703,-5.5703,-5.5703,-5.5703,-5.5703,-5.5703,-5.5703,-5.5703,-5.5703,-5.5703,-5.5703,-5.5703,-5.5703,-5.5703,-5.5703,-2.5221,-2.539,0.0,0.0,0.0,0.0,0.0,-2.9525,0.0,0.0,0.0,0.0,0.0,0.0,0.0,0.0,0.0,0.0,0.0,0.0,0.0,0.0,0.0,0.0,0.0,-4.5594,-4.5594,-4.5594,-4.5594,-4.5932,-4.6721,-4.6759,-4.7134,-4.795,-4.8118,-4.8281,-4.8528,-4.9421,-4.9944,-5.0058,-5.0781,-5.1172,-5.1269,-5.1269,-5.1328,-5.1406,-5.1406,-5.1406,-5.1406,-5.1406,-5.1406,-5.1406,-5.1406,-5.1406,-5.1406,-5.1406,-5.1406,-5.1406,-5.1406,-5.1406,-5.1406,-5.1406,-5.1406,-5.1406,-5.1406,-5.1406,-5.1406,-5.1406,-5.1953,-5.2754,-5.3633,-5.3887,-5.4082,-5.4746,-5.5,-5.5371,-5.6387,-5.6601,-5.6601,-5.6601,-5.6601,-5.6601,-5.6601,-5.6601,-5.6601,-5.6601,-5.6601,-5.6601,-5.6601,-5.6539,-5.6289,-5.5749,-5.5703,-5.5749,-5.5866,-5.5769,-5.5703,-5.5703,-5.5703,-5.5703,-5.5703,-5.5703,-5.5703,-5.5703,-5.5703,-5.5703,-5.5703,-5.5703,-5.5703,-5.5703,-5.5703,-5.5703,-2.9442,-2.9788,-3.0044,0.0,0.0,0.0,0.0,-2.8288,0.0,0.0,0.0,0.0,0.0,0.0,0.0,0.0,0.0,0.0,0.0,0.0,0.0,0.0,0.0,0.0,0.0,-4.5594,-4.5594,-4.5594,-4.5594,-4.5671,-4.5845,-4.5855,-4.6268,-4.7197,-4.7342,-4.7812,-4.8641,-4.8951,-4.912,-4.916,-4.9316,-4.9766,-5.043,-5.043,-5.0781,-5.1406,-5.1406,-5.1406,-5.1406,-5.1406,-5.1406,-5.1406,-5.1406,-5.1406,-5.1406,-5.1406,-5.1406,-5.1406,-5.1406,-5.1406,-5.1406,-5.1406,-5.1406,-5.1406,-5.1406,-5.1406,-5.1406,-5.1406,-5.1523,-5.1855,-5.2734,-5.3144,-5.3613,-5.4648,-5.5605,-5.6328,-5.6543,-5.6601,-5.6601,-5.6601,-5.6601,-5.6601,-5.6601,-5.6601,-5.6601,-5.6601,-5.6601,-5.6601,-5.6601,-5.6179,-5.5835,-5.5716,-5.5703,-5.5705,-5.5748,-5.5716,-5.5703,-5.5703,-5.5703,-5.5703,-5.5703,-5.5703,-5.5703,-5.5703,-5.5703,-5.5703,-5.5703,-5.5703,-5.5703,-5.5703,-5.5703,-5.5703,0.0,-3.166,-3.2102,-3.1262,0.0,0.0,0.0,0.0,0.0,0.0,0.0,0.0,0.0,0.0,0.0,0.0,0.0,0.0,0.0,0.0,0.0,0.0,0.0,0.0,0.0,-4.496,-4.5133,-4.5575,-4.5594,-4.5594,-4.5594,-4.5594,-4.5819,-4.6283,-4.646,-4.6785,-4.7301,-4.7938,-4.8242,-4.8262,-4.8691,-4.9121,-4.9551,-4.9551,-5.0019,-5.0801,-5.0801,-5.1035,-5.1406,-5.1406,-5.1406,-5.1406,-5.1406,-5.1406,-5.1406,-5.1406,-5.1406,-5.1406,-5.1406,-5.1406,-5.1406,-5.1406,-5.1406,-5.1406,-5.1406,-5.1406,-5.1406,-5.1406,-5.1406,-5.1504,-5.1933,-5.2187,-5.2441,-5.3027,-5.3594,-5.4473,-5.6211,-5.6601,-5.6601,-5.6601,-5.6601,-5.6601,-5.6601,-5.6601,-5.6601,-5.6601,-5.6601,-5.6492,-5.6188,-5.5885,-5.5703,-5.5703,-5.5703,-5.5703,-5.5703,-5.5703,-5.5703,-5.5703,-5.5703,-5.5703,-5.5703,-5.5703,-5.5703,-5.5703,-5.5703,-5.5703,-5.5703,-5.5703,-5.5703,-5.5703,-5.5703,-5.5703,0.0,0.0,0.0,0.0,0.0,-3.2968,0.0,0.0,0.0,-3.0525,0.0,0.0,0.0,0.0,0.0,0.0,0.0,0.0,0.0,0.0,0.0,0.0,0.0,0.0,0.0,-4.3431,-4.3835,-4.5037,-4.4806,-4.4825,-4.5325,-4.5518,-4.5612,-4.5635,-4.5801,-4.5909,-4.5932,-4.6851,-4.7323,-4.7363,-4.8066,-4.8496,-4.8652,-4.8652,-4.9121,-4.9941,-4.9941,-5.041,-5.1172,-5.1172,-5.1269,-5.1406,-5.1406,-5.1406,-5.1406,-5.1406,-5.1406,-5.1406,-5.1406,-5.1406,-5.1406,-5.1406,-5.1406,-5.1406,-5.1406,-5.1406,-5.1406,-5.1406,-5.1406,-5.1406,-5.1406,-5.1406,-5.1406,-5.1406,-5.1406,-5.2168,-5.498,-5.6133,-5.6601,-5.6601,-5.6601,-5.6601,-5.6601,-5.6601,-5.6601,-5.6601,-5.6494,-5.6258,-5.5759,-5.5703,-5.5703,-5.5703,-5.5703,-5.5703,-5.5703,-5.5703,-5.5703,-5.5703,-5.5703,-5.5703,-5.5703,-5.5703,-5.5703,-5.5703,-5.5703,-5.5703,-5.5703,-5.5703,-5.5703,-5.5703,-5.5703,-5.5703,0.0,0.0,0.0,0.0,-3.6295,0.0,0.0,0.0,-3.1448,-2.8852,0.0,0.0,0.0,0.0,0.0,0.0,0.0,0.0,0.0,0.0,0.0,0.0,0.0,0.0,0.0,0.0,-4.0854,-4.3201,-4.1958,-4.2074,-4.4335,-4.519,-4.5648,-4.5763,-4.5809,-4.5901,-4.6077,-4.621,-4.6333,-4.6445,-4.6543,-4.6992,-4.7754,-4.7754,-4.8223,-4.9043,-4.9043,-4.9531,-5.0332,-5.0332,-5.0762,-5.1406,-5.1406,-5.1406,-5.1406,-5.1406,-5.1406,-5.1406,-5.1406,-5.1406,-5.1406,-5.1406,-5.1406,-5.1406,-5.1406,-5.1406,-5.1406,-5.1406,-5.1406,-5.1406,-5.1406,-5.1406,-5.1406,-5.1406,-5.1406,-5.1504,-5.1914,-5.4414,-5.6601,-5.6601,-5.6601,-5.6601,-5.6601,-5.6601,-5.6601,-5.6601,-5.6147,-5.5789,-5.5705,-5.5703,-5.5703,-5.5703,-5.5703,-5.5703,-5.5703,-5.5703,-5.5703,-5.5703,-5.5703,-5.5703,-5.5703,-5.5703,-5.5703,-5.5703,-5.5703,-5.5703,-5.5703,-5.5703,-5.5703,-5.5703,-5.5703,-5.5703,0.0,0.0,0.0,0.0,0.0,0.0,0.0,0.0,-3.0723,0.0,0.0,0.0,0.0,0.0,0.0,0.0,0.0,0.0,0.0,0.0,0.0,0.0,0.0,0.0,0.0,0.0,0.0,0.0,0.0,-4.0935,-4.3513,-4.4486,-4.5247,-4.5836,-4.5861,-4.5946,-4.6108,-4.6108,-4.6173,-4.6308,-4.6308,-4.6484,-4.6855,-4.6855,-4.7324,-4.8144,-4.8144,-4.8633,-4.9453,-4.9453,-4.9941,-5.0703,-5.0703,-5.0996,-5.1406,-5.1406,-5.1406,-5.1406,-5.1406,-5.1406,-5.1406,-5.1406,-5.1406,-5.1406,-5.1406,-5.1406,-5.1406,-5.1406,-5.1406,-5.1406,-5.1406,-5.1406,-5.1406,-5.1406,-5.1406,-5.1406,-5.1406,-5.2558,-5.3574,-5.3574,-5.5215,-5.6601,-5.6601,-5.6601,-5.6489,-5.6136,-5.5851,-5.5703,-5.5703,-5.5703,-5.5703,-5.5703,-5.5703,-5.5703,-5.5703,-5.5703,-5.5703,-5.5703,-5.5703,-5.5703,-5.5703,-5.5703,-5.5703,-5.5703,-5.5703,-5.5703,-5.5703,-5.5703,-5.5703,-5.5703,-5.5703,-5.5703,-3.9508,0.0,0.0,0.0,0.0,0.0,0.0,0.0,0.0,0.0,0.0,0.0,0.0,0.0,0.0,0.0,0.0,0.0,0.0,0.0,0.0,0.0,0.0,0.0,0.0,0.0,0.0,0.0,0.0,0.0,-4.2286,-4.3537,-4.456,-4.5497,-4.5755,-4.5944,-4.6108,-4.6053,-4.612,-4.6308,-4.6308,-4.6308,-4.6308,-4.6308,-4.6641,-4.7246,-4.7246,-4.7734,-4.8535,-4.8535,-4.9062,-4.9863,-5.0117,-5.0566,-5.1094,-5.1328,-5.1406,-5.1406,-5.1406,-5.1406,-5.1406,-5.1406,-5.1406,-5.1406,-5.1406,-5.1406,-5.1406,-5.1406,-5.1406,-5.1406,-5.1406,-5.1406,-5.1406,-5.1406,-5.1406,-5.1406,-5.1406,-5.1406,-5.1406,-5.1406,-5.3828,-5.6015,-5.6426,-5.6543,-5.6402,-5.5789,-5.5703,-5.5703,-5.5703,-5.5703,-5.5703,-5.5703,-5.5703,-5.5703,-5.5703,-5.5703,-5.5703,-5.5703,-5.5703,-5.5703,-5.5703,-5.5703,-5.5703,-5.5703,-5.5703,-5.5703,-5.5703,-5.5703,-5.5703,-5.5703,-5.5703,-5.5703,0.0,0.0,0.0,-3.7019,0.0,0.0,0.0,0.0,-3.3609,0.0,0.0,0.0,0.0,0.0,0.0,-2.9802,0.0,0.0,0.0,0.0,0.0,0.0,0.0,0.0,0.0,0.0,0.0,0.0,0.0,0.0,-4.0312,-4.2273,-4.364,-4.4511,-4.5364,-4.5896,-4.6108,-4.5978,-4.6039,-4.6308,-4.6308,-4.6308,-4.6308,-4.6308,-4.6328,-4.6348,-4.6348,-4.6836,-4.7637,-4.7637,-4.8164,-4.9023,-4.9863,-5.0215,-5.0332,-5.1113,-5.1406,-5.1406,-5.1406,-5.1406,-5.1406,-5.1406,-5.1406,-5.1406,-5.1406,-5.1406,-5.1406,-5.1406,-5.1406,-5.1406,-5.1406,-5.1406,-5.1406,-5.1406,-5.1406,-5.1406,-5.1406,-5.1406,-5.1406,-5.1406,-5.2851,-5.4531,-5.5976,-5.6426,-5.6402,-5.5789,-5.5703,-5.5703,-5.5703,-5.5703,-5.5703,-5.5703,-5.5703,-5.5703,-5.5703,-5.5703,-5.5703,-5.5703,-5.5703,-5.5703,-5.5703,-5.5703,-5.5703,-5.5703,-5.5703,-5.5703,-5.5703,-5.5703,-5.5703,-5.5703,-5.5703,-5.5703,0.0,0.0,-4.3412,-3.9719,0.0,0.0,0.0,0.0,0.0,0.0,0.0,0.0,0.0,0.0,-3.1578,-3.0623,-2.9492,0.0,0.0,0.0,0.0,0.0,0.0,0.0,0.0,0.0,0.0,0.0,0.0,0.0,0.0,-4.1175,-4.3156,-4.4777,-4.5492,-4.599,-4.6225,-4.6108,-4.6119,-4.6308,-4.6308,-4.6308,-4.6308,-4.6308,-4.6308,-4.6308,-4.6308,-4.6465,-4.6738,-4.6738,-4.7246,-4.8125,-4.9004,-4.9687,-5.0293,-5.1094,-5.1406,-5.1406,-5.1406,-5.1406,-5.1406,-5.1406,-5.1406,-5.1406,-5.1406,-5.1406,-5.1406,-5.1406,-5.1406,-5.1406,-5.1406,-5.1406,-5.1406,-5.1406,-5.1406,-5.1406,-5.1406,-5.1406,-5.1406,-5.1406,-5.2812,-5.4468,-5.5942,-5.6083,-5.5939,-5.5728,-5.5703,-5.5703,-5.5703,-5.5703,-5.5703,-5.5703,-5.5703,-5.5703,-5.5703,-5.5703,-5.5703,-5.5703,-5.5703,-5.5703,-5.5703,-5.5703,-5.5703,-5.5703,-5.5703,-5.5703,-5.5703,-5.5703,-5.5703,-5.5703,-5.5703,-5.5703,-4.3605,-4.4124,0.0,-4.1208,-3.9912,0.0,-3.5372,0.0,0.0,0.0,0.0,0.0,0.0,0.0,0.0,-3.1859,-3.0053,0.0,0.0,0.0,0.0,0.0,0.0,0.0,0.0,0.0,-2.7844,-3.0604,0.0,0.0,0.0,0.0,-4.2334,-4.3928,-4.5259,-4.608,-4.6308,-4.6173,-4.6173,-4.6308,-4.6308,-4.6308,-4.6308,-4.6308,-4.6308,-4.6308,-4.6308,-4.6308,-4.6308,-4.6308,-4.6621,-4.7226,-4.8105,-4.8965,-4.9863,-5.0996,-5.1406,-5.1406,-5.1406,-5.1406,-5.1406,-5.1406,-5.1406,-5.1406,-5.1406,-5.1406,-5.1406,-5.1406,-5.1406,-5.1406,-5.1406,-5.1406,-5.1406,-5.1406,-5.1406,-5.1406,-5.1406,-5.1406,-5.1406,-5.1406,-5.2558,-5.3917,-5.5061,-5.5567,-5.5779,-5.5705,-5.5703,-5.5703,-5.5703,-5.5703,-5.5703,-5.5703,-5.5703,-5.5703,-5.5703,-5.5703,-5.5703,-5.5703,-5.5703,-5.5703,-5.5703,-5.5703,-5.5703,-5.5703,-5.5703,-5.5703,-5.5703,-5.5703,-5.5703,-5.5703,-5.5703,-5.5703]},{"header":{"parameterUnit":"m.s-1","parameterCategory":1,"la1":30.6,"la2":29.2853,"lo1":-89.7004,"lo2":-87.6739,"dy":0.0162,"dx":0.0183,"nx":112,"ny":82,"refTime":"2024-07-20T06:00:00:Z","depth":0,"parameterNumber":3,"parameterNumberName":"V-component_of_WINDS"},"data":[0.0,0.0,0.0,0.0,0.0,0.0,0.0,0.0,0.0,0.0,0.0,0.0,0.0,0.0,0.0,0.0,0.0,0.0,0.0,0.0,0.0,0.0,0.0,0.0,0.0,0.0,0.0,0.0,0.0,0.0,0.0,0.0,0.0,0.0,0.0,0.0,0.0,0.0,0.0,0.0,0.0,0.0,0.0,0.0,0.0,0.0,0.0,0.0,0.0,0.0,0.0,0.0,0.0,0.0,0.0,0.0,0.0,0.0,0.0,0.0,0.0,0.0,0.0,0.0,0.0,0.0,0.0,0.0,0.0,0.0,0.0,0.0,0.0,0.0,0.0,0.0,0.0,0.0,0.0,0.0,0.0,0.0,0.0,0.0,0.0,0.0,0.0,0.0,0.0,0.0,0.0,0.3033,0.6322,1.0315,1.4477,1.549,1.5857,1.5752,0.0,0.0,0.0,0.0,0.0,0.0,0.0,0.0,0.0,0.0,0.0,0.0,0.0,0.0,0.0,0.0,0.0,0.0,0.0,0.0,0.0,0.0,0.0,0.0,0.0,0.0,0.0,0.0,0.0,0.0,0.0,0.0,0.0,0.0,0.0,0.0,0.0,0.0,0.0,0.0,0.0,0.0,0.0,0.0,0.0,0.0,0.0,0.0,0.0,0.0,0.0,0.0,0.0,0.0,0.0,0.0,0.0,0.0,0.0,0.0,0.0,0.0,0.0,0.0,0.0,0.0,0.0,0.0,0.0,0.0,0.0,0.0,0.0,0.0,0.0,0.0,0.0,0.0,0.0,0.0,0.0,0.0,0.0,0.0,0.0,0.0,0.0,0.0,0.0,0.0,0.0,0.0,0.0,0.0,0.0,0.0,0.0,0.0,0.0,0.0,0.0,0.0,0.0,0.0,0.3994,0.3509,0.6646,1.0213,1.3766,1.4926,1.6008,1.7184,0.0,0.0,0.0,0.0,0.0,0.0,0.0,0.0,0.0,0.0,0.0,0.0,0.0,0.0,0.0,0.0,0.0,0.0,0.0,0.0,0.0,0.0,0.0,0.0,0.0,0.0,0.0,0.0,0.0,0.0,0.0,0.0,0.0,0.0,0.0,0.0,0.0,0.0,0.0,0.0,0.0,0.0,0.0,0.0,0.0,0.0,0.0,0.0,0.0,0.0,0.0,0.0,0.0,0.0,0.0,0.0,0.0,0.0,0.0,0.0,0.0,0.0,0.0,0.0,0.0,0.0,0.0,0.0,0.0,0.0,0.0,0.0,0.0,0.0,0.0,0.0,0.0,0.0,0.0,0.0,0.0,0.0,0.0,0.0,0.0,0.0,0.0,0.0,0.0,0.0,0.0,0.0,0.0,0.0,0.0,0.0,0.0,0.0,0.0,0.0,0.0,0.0,0.0,0.4822,0.4001,0.4373,0.7038,0.9924,1.2758,1.467,1.5774,1.5917,1.4016,0.0,0.0,0.0,0.0,0.0,0.0,0.0,0.0,0.0,0.0,0.0,0.0,0.0,0.0,0.0,0.0,0.0,0.0,0.0,0.0,0.0,0.0,0.0,0.0,0.0,0.0,0.0,0.0,0.0,0.0,0.0,0.0,0.0,0.0,0.0,0.0,0.0,0.0,0.0,0.0,0.0,0.0,0.0,0.0,0.0,0.0,0.0,0.0,0.0,0.0,0.0,0.0,0.0,0.0,0.0,0.0,0.0,0.0,0.0,0.0,0.0,0.0,0.0,0.0,0.0,0.0,0.0,0.0,0.0,0.0,0.0,0.0,0.0,0.0,0.0,0.0,0.0,0.0,0.0,0.0,0.0,0.0,0.0,0.0,0.0,0.0,0.0,0.0,0.0,0.0,0.0,0.0,0.0,0.0,0.0,0.0,0.0,0.0,0.0,0.0,0.0,0.0,0.4919,0.4234,0.4712,0.7446,1.0029,1.2016,1.4127,1.5046,1.4342,1.2845,0.0,0.0,0.0,0.0,0.0,0.0,0.0,0.0,0.0,0.0,0.0,0.0,0.0,0.0,0.0,0.0,0.0,0.0,0.0,0.0,0.0,0.0,0.0,0.0,0.0,0.0,0.0,0.0,0.0,0.0,0.0,0.0,0.0,0.0,0.0,0.0,0.0,0.0,0.0,0.0,0.0,0.0,0.0,0.0,0.0,0.0,0.0,0.0,0.0,0.0,0.0,0.0,0.0,0.0,0.0,0.0,0.0,0.0,0.0,0.0,0.0,0.0,0.0,0.0,0.0,0.0,0.0,0.0,0.0,0.0,0.0,0.0,0.0,0.0,0.0,0.0,0.0,0.0,0.0,0.0,0.0,0.0,0.0,0.0,0.0,0.0,0.0,0.0,0.0,0.0,0.0,0.0,0.0,0.0,0.0,0.0,0.0,0.0,0.0,0.0,0.0,0.0,0.4049,0.455,0.3774,0.7782,1.0924,1.2107,1.2989,1.3522,1.365,1.0968,0.0,0.0,0.0,0.0,0.0,0.0,0.0,0.0,0.0,0.0,0.0,0.0,0.0,0.0,0.0,0.0,0.0,0.0,0.0,0.0,0.0,0.0,0.0,0.0,0.0,0.0,0.0,0.0,0.0,0.0,0.0,0.0,0.0,0.0,0.0,0.0,0.0,0.0,0.0,0.0,0.0,0.0,0.0,0.0,0.0,0.0,0.0,0.0,0.0,0.0,0.0,0.0,0.0,0.0,0.0,0.0,0.0,0.0,0.0,0.0,0.0,0.0,0.0,0.0,0.0,0.0,0.0,0.0,0.0,0.0,0.0,0.0,0.0,0.0,0.0,0.0,0.0,0.0,0.0,0.0,0.0,0.0,0.0,0.0,0.0,0.0,0.0,0.0,0.0,0.0,0.0,0.0,0.0,0.0,0.0,0.0,0.0,0.0,0.0,0.0,0.0,0.0,0.399,0.4619,0.0,0.7545,0.9701,1.011,1.1742,1.2276,1.1163,0.0,0.0,0.0,0.0,0.0,0.0,0.0,0.0,0.0,0.0,0.0,0.0,0.0,0.0,0.0,0.0,0.0,0.0,0.0,0.0,0.0,0.0,0.0,0.0,0.0,0.0,0.0,0.0,0.0,0.0,0.0,0.0,0.0,0.0,0.0,0.0,0.0,0.0,0.0,0.0,0.0,0.0,0.0,0.0,0.0,0.0,0.0,0.0,0.0,0.0,0.0,0.0,0.0,0.0,0.0,0.0,0.0,0.0,0.0,0.0,0.0,0.0,0.0,0.0,0.0,0.0,0.0,0.0,0.0,0.0,0.0,0.0,0.0,0.0,0.0,0.0,0.0,0.0,0.0,0.0,0.0,0.0,0.0,0.0,0.0,0.0,0.0,0.0,0.0,0.0,0.0,0.0,0.0,0.0,0.0,0.0,0.0,0.0,0.0,0.0,0.0,0.0,0.2214,0.3412,0.4305,0.0,0.7189,0.8865,0.8849,1.0245,1.0527,0.9099,0.0,0.0,0.0,0.0,0.0,0.0,0.0,0.0,0.0,0.0,0.0,0.0,0.0,0.0,0.0,0.0,0.0,0.0,0.0,0.0,0.0,0.0,0.0,0.0,0.0,0.0,0.0,0.0,0.0,0.0,0.0,0.0,0.0,0.0,0.0,0.0,0.0,0.0,0.0,0.0,0.0,0.0,0.0,0.0,0.0,0.0,0.0,0.0,0.0,0.0,0.0,0.0,0.0,0.0,0.0,0.0,0.0,0.0,0.0,0.0,0.0,0.0,0.0,0.0,0.0,0.0,0.0,0.0,0.0,0.0,0.0,0.0,0.0,0.0,0.0,0.0,0.0,0.0,0.0,0.0,0.0,0.0,0.0,0.0,0.0,0.0,0.0,0.0,0.0,0.0,0.0,0.0,0.0,0.0,0.0,0.0,0.0,0.0,0.0,0.0,0.0,0.0,0.0066,0.21,0.3605,0.3583,0.6757,0.8814,0.8709,0.8509,0.82,0.0,0.0,0.0,0.0,0.0,0.0,0.0,0.0,0.0,0.0,0.0,0.0,0.0,0.0,0.0,0.0,0.0,0.0,0.0,0.0,0.0,0.0,0.0,0.0,0.0,0.0,0.0,0.0,0.0,0.0,0.0,0.0,0.0,0.0,0.0,0.0,0.0,0.0,0.0,0.0,0.0,0.0,0.0,0.0,0.0,0.0,0.0,0.0,0.0,0.0,0.0,0.0,0.0,0.0,0.0,0.0,0.0,0.0,0.0,0.0,0.0,0.0,0.0,0.0,0.0,0.0,0.0,0.0,0.0,0.0,0.0,0.0,0.0,0.0,0.0,0.0,0.0,0.0,0.0,0.0,0.0,0.0,0.0,0.0,0.0,0.0,0.0,0.0,0.0,0.0,0.0,0.0,0.0,0.0,0.0,0.0,0.0,0.0,0.0,0.0,0.0,0.0,0.0,0.0033,0.2095,0.3589,0.3588,0.6015,0.7559,0.7446,0.7683,0.7468,0.6561,0.0,0.0,0.0,0.0,0.0,0.0,0.0,0.0,0.0,0.0,0.0,0.0,0.0,0.0,0.0,0.0,0.0,0.0,0.0,0.0,0.0,0.0,0.0,0.0,0.0,0.0,0.0,0.0,0.0,0.0,0.0,0.0,0.0,0.0,0.0,0.0,0.0,0.0,0.0,0.0,0.0,0.0,0.0,0.0,0.0,0.0,0.0,0.0,0.0,0.0,0.0,0.0,0.0,0.0,0.0,0.0,0.0,0.0,0.0,0.0,0.0,0.0,0.0,0.0,0.0,0.0,0.0,0.0,0.0,0.0,0.0,0.0,0.0,0.0,0.0,0.0,0.0,0.0,0.0,0.0,0.0,0.0,0.0,0.0,0.0,0.0,0.0,0.0,0.0,0.0,0.0,0.0,0.0,0.0,0.0,0.0,0.0,0.0,0.0,0.0,0.0,0.0,0.0,0.1705,0.3074,0.3546,0.5309,0.6552,0.6853,0.7046,0.6752,0.582,0.0,0.0,0.0,0.0,0.0,0.0,0.0,0.0,0.0,0.0,0.0,0.0,0.0,0.0,0.0,0.0,0.0,0.0,0.0,0.0,0.0,0.0,0.0,0.0,0.0,0.0,0.0,0.0,0.0,0.0,0.0,0.0,0.0,0.0,0.0,0.0,0.0,0.0,0.0,0.0,0.0,0.0,0.0,0.0,0.0,0.0,0.0,0.0,0.0,0.0,0.0,0.0,0.0,0.0,0.0,0.0,0.0,0.0,0.0,0.0,0.0,0.0,0.0,0.0,0.0,0.0,0.0,0.0,0.0,0.0,0.0,0.0,0.0,0.0,0.0,0.0,0.0,0.0,0.0,0.0,0.0,0.0,0.0,0.0,0.0,0.0,0.0,0.0,0.0,0.0,0.0,0.0,0.0,0.0,0.0,0.0,0.0,0.0,0.0,0.0,0.0,0.0,0.0,0.1035,0.2207,0.3326,0.4599,0.5755,0.6635,0.6606,0.6197,0.5463,0.0,0.0,0.0,0.0,0.0,0.0,0.0,0.0,0.0,0.0,0.0,0.0,0.0,0.0,0.0,0.0,0.0,0.0,0.0,0.0,0.0,0.0,0.0,0.0,0.0,0.0,0.0,0.0,0.0,0.0,0.0,0.0,0.0,0.0,0.0,0.0,0.0,0.0,0.0,0.0,0.0,0.0,0.0,0.0,0.0,0.0,0.0,0.0,0.0,0.0,0.0,0.0,0.0,0.0,0.0,0.0,0.0,0.0,0.0,0.0,-0.4175,0.0,0.0,0.0,0.0,0.0,0.0,0.0,0.0,0.0,0.0,0.0,0.0,0.0,0.0,0.0,0.0,0.0,0.0,0.0,0.0,0.0,0.0,0.0,0.0,0.0,0.0,0.0,0.0,0.0,0.0,0.0,0.0,0.0,0.0,0.0,0.0,0.0,0.0,0.0,0.0,0.0,0.0,0.1051,0.1908,0.2135,0.4109,0.5445,0.5499,0.6103,0.6245,0.5583,0.0,0.0,0.0,0.0,0.0,0.0,0.0,0.0,0.0,0.0,0.0,0.0,0.0,0.0,0.0,0.0,0.0,0.0,0.0,0.0,0.0,0.0,0.0,0.0,0.0,0.0,0.0,0.0,0.0,0.0,0.0,0.0,0.0,0.0,0.0,0.0,0.0,0.0,0.0,0.0,0.0,0.0,0.0,0.0,0.0,0.0,0.0,0.0,0.0,0.0,0.0,0.0,0.0,0.0,0.0,0.0,0.0,0.0,0.0,0.0,0.0,-0.2781,0.0,0.0,0.0,0.0,0.0,0.0,0.0,0.0,0.0,0.0,0.0,0.0,0.0,0.0,0.0,0.0,0.0,0.0,0.0,0.0,0.0,0.0,0.0,0.0,0.0,0.0,0.0,0.0,0.0,0.0,0.0,0.0,0.0,0.0,0.0,0.0,0.0,0.0,0.0,0.0,0.0,0.0552,0.1153,0.1738,0.2906,0.409,0.5141,0.5527,0.5793,0.5939,0.5203,0.0,0.0,0.0,0.0,0.0,0.0,0.0,0.0,0.0,0.0,0.0,0.0,0.0,0.0,0.0,0.0,0.0,0.0,0.0,0.0,0.0,0.0,0.0,0.0,0.0,0.0,0.0,0.0,0.0,0.0,0.0,0.0,0.0,0.0,0.0,0.0,0.0,0.0,0.0,0.0,0.0,0.0,0.0,0.0,0.0,0.0,0.0,0.0,0.0,0.0,0.0,0.0,0.0,-1.2612,-1.2247,-1.1447,-0.8123,-0.661,-0.6555,-0.5552,-0.3647,-0.1162,0.0,0.0,0.0,0.0,0.0,0.0,0.0,0.0,0.0,0.0,0.0,0.0,0.0,0.0,0.0,0.0,0.0,0.0,0.0,0.0,0.0,0.0,0.0,0.0,0.0,-0.3051,-0.3661,0.0,0.0,0.0,0.0,0.0,0.0,0.0,0.0,0.0,0.0,0.0,0.0,0.0,0.0,0.0387,0.1383,0.1656,0.2593,0.4601,0.4853,0.523,0.596,0.5532,0.4975,0.0,0.0,0.0,0.0,0.0,0.0,0.0,0.0,0.0,0.0,0.0,0.0,0.0,0.0,0.0,0.0,0.0,0.0,0.0,0.0,0.0,0.0,0.0,0.0,0.0,0.0,0.0,0.0,0.0,0.0,0.0,0.0,-0.5891,-0.9221,0.0,0.0,0.0,0.0,0.0,0.0,0.0,0.0,0.0,0.0,0.0,0.0,0.0,-1.0847,-1.183,-1.2872,-1.3547,-1.3848,-1.3848,-1.1992,-0.856,-0.8042,-0.7756,-0.7749,-0.7591,0.0,-0.5836,-0.1714,0.0,0.0,0.0,0.0,0.0,0.0,0.0,0.0,0.0,0.0,0.0,0.0,0.0,0.0,0.0,0.0,0.0,0.0,0.0,0.0,0.0,0.0,-0.2222,-0.3162,-0.4385,-0.4978,0.0,-0.2574,-0.1516,-0.0311,-0.0028,0.0,0.0,0.0,0.0,0.0,0.0,0.0,0.0,0.0,0.0044,0.0224,0.1165,0.1924,0.2236,0.3867,0.4891,0.4924,0.5424,0.5562,0.5262,0.4723,0.0,0.0,0.0,0.0,0.0,0.0,0.0,0.0,0.0,0.0,0.0,0.0,0.0,0.0,0.0,0.0,0.0,0.0,0.0,0.0,0.0,0.0,0.0,0.0,0.0,0.0,0.0,0.0,0.0,-0.6322,-0.8945,-1.1467,-1.0395,-0.9376,0.0,0.0,0.0,0.0,0.0,0.0,0.0,0.0,0.0,-1.0775,-1.1924,-1.3106,-1.4275,-1.4803,-1.507,-1.507,-1.507,-1.2593,-0.7988,-0.7988,-0.7988,-0.7988,-0.7988,-0.6159,-0.2939,-0.0843,0.0,0.0,0.0,0.0,0.0,0.0,0.0,0.0,0.0,0.0,0.0,0.0,0.0,0.0,0.0,0.0,0.0,0.0,0.0,0.0,0.0,0.0,-0.1992,-0.2464,-0.3555,-0.415,-0.2884,-0.2179,-0.1452,0.0,0.0,0.0,0.0,0.0,0.0,0.0,0.0,0.0,0.0,0.0,0.0,0.0,0.0494,0.1076,0.1746,0.3094,0.417,0.4792,0.5522,0.5833,0.562,0.5228,0.4747,0.0,0.0,0.0,0.0,0.0,0.0,0.0,0.0,0.0,0.0,0.0,0.0,0.0,0.0,0.0,0.0,0.0,0.0,0.0,0.0,0.0,0.0,0.0,0.0,0.0,0.0,0.0,0.0,-0.7955,-1.0431,-1.1692,-1.0584,-0.9749,0.0,0.0,0.0,0.0,0.0,0.0,-0.9699,-1.1643,-1.2893,-1.32,-1.4068,-1.495,-1.5771,-1.5784,-1.5784,-1.5778,-1.4465,-1.1789,-0.7988,-0.7988,-0.7988,-0.7988,-0.7988,-0.4972,0.0,0.0,0.0,0.0,0.0,0.0,0.0,0.0,0.0,0.0,0.0,0.0,0.0,0.0,0.0,0.0,0.0,0.0,0.0,0.0,0.0,0.0,0.0,-0.0938,-0.1842,-0.1833,-0.2814,-0.3372,-0.2123,-0.1854,-0.1463,0.0,0.0,0.0,0.0,0.0,0.0,0.0,0.0,0.0,0.0,0.0,0.0,0.0,0.0,0.0359,0.1254,0.2407,0.3475,0.4397,0.5484,0.6003,0.581,0.559,0.5187,0.4621,0.0,0.0,0.0,0.0,0.0,0.0,0.0,0.0,0.0,0.0,0.0,0.0,0.0,0.0,0.0,0.0,0.0,0.0,0.0,0.0,0.0,0.0,0.0,0.0,0.0,0.0,0.0,0.0,0.0,-0.9001,-1.0833,0.0,0.0,0.0,0.0,-1.0325,-1.147,-1.2124,-1.2124,-1.3313,-1.4502,-1.5571,-1.5664,-1.5724,-1.5784,-1.5784,-1.5784,-1.573,-1.0769,-0.8233,-0.7988,-0.7988,-0.7988,-0.7988,-0.7988,-0.4972,0.0,0.0,0.0,0.0,0.0,0.0,0.0,0.0,0.0,0.0,0.0,0.0,0.0,0.0,0.0,0.0,0.0,0.0,0.0,0.0,0.0,0.0,0.0,-0.1008,-0.2007,-0.1995,-0.3004,-0.3606,-0.2258,-0.1977,-0.159,0.0,0.0,0.0,0.0,0.0,0.0,0.0,0.0,0.0,0.0,0.0,0.0,0.0,0.0,0.0045,0.009,0.1936,0.314,0.3183,0.5129,0.6153,0.5813,0.5657,0.5365,0.4874,0.4426,0.0,0.0,0.0,0.0,0.0,0.0,0.0,0.0,0.0,0.0,0.0,0.0,0.0,0.0,0.0,0.0,0.0,0.0,0.0,0.0,0.0,0.0,0.0,0.0,0.0,0.0,0.0,0.0,-1.1506,-1.1369,0.0,-1.1062,-0.9693,-0.9927,-1.267,-1.322,-1.3781,-1.4529,-1.4977,-1.5398,-1.5764,-1.5784,-1.5784,-1.5784,-1.5784,-1.5784,-1.573,-1.0476,-0.7988,-0.7988,-0.7988,-0.7988,-0.7988,-0.7988,-0.4972,0.0,0.0,0.0,0.0,0.0,0.0,0.0,0.0,0.0,0.0,0.0,0.0,0.0,0.0,0.0,0.0,0.0,0.0,0.0,0.0,0.0,0.0,0.0,-0.0348,-0.07,-0.0705,-0.1058,-0.131,-0.0807,-0.0702,-0.0547,-0.0098,0.0,0.0,0.0,0.0,0.0,0.0,0.0,0.0,0.0,0.0,0.0,0.0,0.0,0.0,0.0,0.1292,0.2373,0.2951,0.4348,0.5336,0.5774,0.5664,0.5423,0.5029,0.4682,0.4192,0.0,0.0,0.0,0.0,0.0,0.0,0.0,0.0,0.0,0.0,0.0,0.0,0.0,0.0,0.0,0.0,0.0,0.0,0.0,0.0,0.0,0.0,0.0,0.0,0.0,0.0,-1.1419,-1.2476,-1.1924,-1.1369,-1.1142,-1.0434,-1.1289,-1.4436,-1.4676,-1.501,-1.5744,-1.5784,-1.5784,-1.5784,-1.5784,-1.5784,-1.5784,-1.5784,-1.5984,-1.637,-1.2883,-1.0217,-0.8292,-0.8292,-0.8292,-0.8292,-0.8292,-0.5139,0.0,0.0,0.0,0.0,0.0,0.0,0.0,0.0,0.0,0.0,0.0,0.0,0.0,0.0,0.0,0.0,0.0,0.0,0.0,0.0,0.0,0.0,0.0,0.0,0.0,0.0,0.0,0.0,0.0,0.0,0.0,0.0,0.0,0.0,0.0,0.0,0.0,0.0,0.0,0.0,0.0,0.0,0.0,0.0,0.0,0.0,0.0,0.0984,0.1859,0.2416,0.3738,0.4722,0.5225,0.5439,0.5393,0.5103,0.4792,0.4206,0.3366,0.0,0.0,0.0,0.0,0.0,0.0,0.0,0.0,0.0,0.0,0.0,0.0,0.0,0.0,0.0,0.0,0.0,0.0,0.0,0.0,0.0,0.0,0.0,-0.9185,-1.0241,-1.1263,-1.1429,-1.2525,-1.2118,-0.9252,-1.1056,-1.336,-1.5611,-1.5784,-1.5784,-1.5784,-1.5784,-1.5784,-1.5784,-1.5818,-1.5838,-1.5838,-1.5838,-1.6453,-1.7582,-1.7417,-1.4395,-0.8885,-0.8885,-0.8885,-0.8885,-0.8885,-0.5538,0.0,0.0,-0.0108,-0.0253,-0.0051,0.0,0.0,0.0,0.0,0.0,0.0,0.0,0.0,0.0,0.0,0.0,0.0,0.0,0.0,0.0,0.0,0.0,0.0,0.0,0.0,0.0,0.0,0.0,0.0,0.0,0.0,0.0,0.0,0.0,0.0,0.0,0.0,0.0,0.0,0.0,0.0,0.0,0.0,0.0,0.0,0.0,0.0,0.0973,0.1557,0.1588,0.3368,0.4347,0.4205,0.4937,0.5294,0.511,0.4707,0.3974,0.2882,0.0,0.0,0.0,0.0,0.0,0.0,0.0,0.0,0.0,0.0,0.0,0.0,0.0,0.0,0.0,0.0,0.0,0.0,0.0,0.0,0.0,0.0,-1.2552,-1.2071,-1.2608,-1.3017,-1.2918,-1.3474,-1.3527,-1.2712,-1.3981,-1.513,-1.5731,-1.5784,-1.5784,-1.5784,-1.5784,-1.5784,-1.5784,-1.6653,-1.7101,-1.7101,-1.7101,-1.7261,-1.7529,-1.3313,-1.0457,-0.8885,-0.8885,-0.8885,-0.8885,-0.8885,-0.5522,0.0,0.0,-0.2544,-0.5997,-0.1698,0.0,0.0,0.0,0.0,0.0,0.0,0.0,0.0,0.0,0.0,0.0,0.0,0.0,0.0,0.0,0.0,0.0,0.0,0.0,0.0,0.0,0.0,0.0,0.0,0.0,0.0,0.0,0.0,0.0,0.0,0.0,0.0,0.0,0.0,0.0,0.0,0.0,0.0,0.0,0.0,0.0,0.0,0.0258,0.07,0.136,0.1881,0.2771,0.4132,0.4418,0.4769,0.5301,0.5067,0.4174,0.0,0.0,0.0,0.0,0.0,0.0,0.0,0.0,0.0,0.0,0.0,0.0,0.0,0.0,0.0,0.0,0.0,0.0,0.0,0.0,0.0,0.0,-1.2338,-1.3941,-1.3941,-1.3939,-1.4019,-1.4204,-1.4436,-1.4636,-1.4803,-1.5431,-1.5784,-1.5784,-1.5784,-1.5784,-1.5784,-1.6299,-1.656,-1.656,-1.7221,-1.7582,-1.7582,-1.7582,-1.7582,-1.7529,-1.1701,-0.8885,-0.8885,-0.8885,-0.8885,0.0,-0.8885,-0.5526,0.0,0.0,-0.2069,0.0,0.0,0.0,0.0,0.0,0.0,0.0,0.0,-0.1461,-0.2967,-0.0706,0.0,0.0,0.0,0.0,0.0,0.0,0.0,0.0,0.0,0.0,0.0,0.0,0.0,0.0,0.0,0.0,0.0,0.0,0.0,0.0,0.0,0.0,0.0,0.0,0.0,0.0,0.0,0.0,0.0,0.0,0.0,0.0,0.0,0.0,0.0,0.0,0.0,0.196,0.3424,0.3906,0.0,0.0,0.0,0.0,0.0,0.0,0.0,0.0,0.0064,0.0,0.0,0.0,0.0,0.0,0.0,0.0,0.0,0.0,0.0,0.0,0.0,0.0,0.0,0.0,0.0,0.0,-1.3975,-1.5028,-1.5102,-1.4583,-1.4482,-1.5118,-1.5238,-1.5398,-1.5751,-1.5784,-1.5784,-1.5784,-1.5952,-1.5977,-1.5977,0.0,0.0,0.0,0.0,-1.7582,-1.7582,-1.7582,-1.7259,-1.6552,-1.1374,-0.8885,-0.8885,-0.8885,-0.8885,-0.8888,-0.8952,-0.5564,0.0,0.0,-0.0112,-0.0896,-0.6306,-0.4968,0.0,0.0,0.0,0.0,0.0,0.0,0.0,-0.1523,0.0,0.0,0.0,0.0,0.0,0.0,0.0,0.0,0.0,0.0,0.0,0.0,0.0,0.0,0.0,0.0,0.0,0.0,0.0,0.0,0.0,0.0,0.0,0.0,0.0,0.0,0.0,0.0,0.0,0.0,0.0,0.0,0.0,0.0,0.0,0.0,0.0831,0.1642,0.2383,0.3347,0.3489,0.2556,0.3423,0.3054,0.1298,0.1329,0.0857,0.0,0.0,0.0,0.0,0.0,0.0,0.0,0.0,0.0,0.0,0.0,0.0,0.0,0.0,0.0,0.0,0.0,0.0,-1.5235,-1.5044,-1.5169,-1.5591,-1.5364,-1.517,-1.5192,-1.5478,-1.5698,-1.5771,-1.5784,-1.5784,-1.5784,-1.6707,-1.7241,-1.7241,-1.7455,-1.7582,-1.7582,-1.7582,-1.7582,-1.7582,-1.7582,-1.5257,-1.0566,0.0,0.0,-0.8885,-0.8885,-0.8885,-0.8908,-0.9442,-0.5975,0.0,0.0,-0.0952,-0.2628,-0.4582,-0.3186,0.0,0.0,0.0,0.0,0.0,-0.0659,-0.1366,-0.0319,0.0,0.0,0.0,0.0,0.0,0.0,0.0,0.0,0.0,0.0,0.0,0.0,0.0,0.0,0.0,0.0,0.0,0.0,0.0,0.0,0.0,0.0,0.0,0.0,0.0,0.0,0.0,0.0,0.0,0.0,0.0,0.0,0.0,0.0,0.0,0.0,0.098,0.1596,0.1778,0.273,0.3132,0.2835,0.3103,0.264,0.129,0.1443,0.101,0.0,0.0,0.0,0.0,0.0,0.0,0.0,0.0,0.0,0.0,0.0,0.0,0.0,0.0,-1.5861,0.0,0.0,-1.9333,-1.9446,-1.7163,-1.5498,-1.5744,-1.5705,-1.5591,-1.5498,-1.5664,-1.5784,-1.5784,-1.5784,-1.6072,-1.666,-1.7248,-1.7582,-1.7582,-1.7876,-1.7896,-1.7595,-1.8218,-1.8477,-1.8477,-1.8477,-1.5401,-0.9323,-0.9323,-0.9323,-0.9323,-0.9323,-0.7561,-0.4465,-0.4788,-0.3986,-0.2345,-0.069,-0.1023,-0.2602,-0.2357,-0.1791,-0.1008,-0.028,0.0,0.0,0.0,0.0,0.0,0.0,0.0,0.0,0.0,0.0,0.0,0.0,0.0,0.0,0.0,0.0,0.0,0.0,0.0,0.0,0.0,0.0,0.0,0.0,0.0,0.0,0.0,0.0,0.0,0.0,0.0,0.0,0.0,0.0,0.0,0.0,0.0,0.0,0.0,0.0,0.0,0.0,0.0503,0.0786,0.0786,0.1792,0.2085,0.1444,0.2023,0.1781,0.0631,0.073,0.0527,0.0,0.0,0.0,0.0,0.0,0.0,0.0,0.0,0.0,0.0,0.0,-1.3483,-1.4057,-1.8804,-2.2058,-1.9482,-2.0137,-2.1523,-2.2867,-1.9798,-1.6882,-1.592,-1.5784,-1.5784,-1.5784,-1.5784,-1.5811,-1.5884,-1.5931,-1.644,-1.7502,-1.7582,-1.7635,-1.7756,-1.8223,-1.8035,-1.7054,-1.8575,-1.9424,-1.9424,-1.9424,-1.6797,-1.1675,-1.0418,-0.9822,-0.9758,-0.8468,-0.5035,0.0,0.0,-0.1716,-0.4212,-0.1239,-0.0694,-0.1661,-0.0453,-0.073,-0.1622,-0.0448,0.0,0.0,0.0,0.0,0.0,0.0,0.0,0.0,0.0,0.0,0.0,0.0,0.0,0.0,0.0,0.0,0.0,0.0,0.0,0.0,0.0,0.0,0.0,0.0,0.0,0.0,0.0,0.0,0.0,0.0,0.0,0.0,0.0,0.0,0.0,0.0,0.0,0.0,0.0,0.0,0.0,0.0,0.0,0.0,0.0,0.081,0.0893,0.0,0.0869,0.0879,0.0,0.0,0.0,0.0,0.0,0.0,0.2324,0.0325,0.0,-0.291,-0.6162,-0.9546,0.0,0.0,-1.78,-2.032,-2.146,-2.2139,-2.2457,-2.2682,-2.2867,-2.3062,-2.2633,-2.0764,-1.6426,-1.5784,-1.5784,-1.5784,-1.5784,-1.5917,-1.6313,-1.6506,-1.6881,-1.7535,-1.7582,-1.7816,-1.8357,-1.8457,-1.7428,-1.5029,-1.7867,-1.9424,-1.9424,-1.9424,-1.9062,-1.8286,-1.2509,-0.9822,-0.9576,-0.3748,-0.0678,0.0,0.0,-0.1083,-0.2649,-0.077,-0.0117,-0.023,-0.0057,-0.0114,-0.0224,-0.0056,0.0,0.0,0.0,0.0,0.0,0.0,0.0,0.0,0.0,0.0,0.0,0.0,0.0,0.0,0.0,0.0,0.0,0.0,0.0,0.0,0.0,0.0,0.0,0.0,0.0,0.0,0.0,0.0,0.0,0.0,0.0,0.0,0.0,0.0,0.0,0.0,0.0,0.0,0.0,0.0,0.0,0.0,0.0,0.0,0.0,0.0135,0.0134,0.0,0.0136,0.0138,0.0,0.0,0.0,0.0,0.0,0.0,0.2059,0.0,0.0,0.0,-0.5891,-0.9568,-1.2538,-1.5019,-1.7794,-2.1782,-2.2617,-2.2682,-2.3033,-2.3091,-2.3091,0.0,-2.0711,-1.8164,-1.6103,-1.5784,-1.5784,-1.5784,-1.5784,-1.5985,-1.638,-1.6693,-1.7074,-1.7549,-1.7802,-1.7488,-1.6495,-1.7035,-1.6675,-1.521,-1.6687,-1.8163,-1.9366,-1.9424,-1.8467,-1.6562,-1.1972,-0.8775,-0.6813,-0.2155,0.0,0.0,0.0,-0.0427,-0.0976,-0.0301,0.0,0.0,0.0,0.0,0.0,0.0,0.0,0.0,0.0,0.0,0.0,0.0,0.0,0.0,0.0,0.0,0.0,0.0,0.0,0.0,0.0,0.0,0.0,0.0,0.0,0.0,0.0,0.0,0.0,0.0,0.0,0.0,0.0,0.0,0.0,0.0,0.0,0.0,0.0,0.0,0.0,0.0,0.0,0.0,0.0,0.0,0.0,0.0,0.0,0.0,0.0,0.0,0.0,0.0,0.0,0.0,0.0,0.0,0.0,0.0,0.0,0.0,0.1892,0.0,0.0,-0.3086,-0.6157,-0.9502,-1.268,-1.5158,-1.7738,-2.1182,-2.2524,-2.3091,-2.3091,-2.3091,0.0,-2.3091,-1.8977,-1.5784,-1.5784,-1.5784,-1.5784,-1.5784,-1.5784,-1.5972,-1.6339,-1.6754,-1.6967,-1.6898,-1.7285,-1.6673,-1.4771,-1.5454,-1.5476,-1.4677,-1.5834,-1.6968,-1.8052,-1.8946,-1.8233,-1.5849,-1.1736,-0.8102,-0.4794,-0.1479,0.0,0.0,0.0,0.0,0.0,0.0,0.0,0.0,0.0,0.0,0.0,0.0,0.0,0.0,0.0,0.0,0.0,0.0,0.0,0.0,0.0,0.0,0.0,0.0,0.0,0.0,0.0,0.0,0.0,0.0,0.0,0.0,0.0,0.0,0.0,0.0,0.0,0.0,0.0,0.0,0.0,0.0,0.0,0.0,0.0,0.0,0.0,0.0,0.0,0.0,0.0,0.0,0.0,0.0,0.0,0.0,0.0,0.0,0.0,0.0,0.0,0.0,0.0,0.0,0.0,0.0,0.0,0.0,0.0,0.0,-0.0887,-0.4505,-0.7407,-0.9846,-1.1714,-1.572,-1.8935,-1.8765,-2.1049,-2.3091,-2.3091,-2.3091,-2.3091,-2.3091,-1.8977,-1.5784,-1.5784,-1.5784,-1.5784,-1.5784,-1.5784,-1.5945,0.0,-1.6714,-1.6465,-1.5197,-1.5529,-1.526,-1.4025,-1.4134,-1.3654,-1.2316,-1.5359,-1.6256,-1.4782,-1.7812,-1.9366,-1.9185,-1.2804,-0.8102,-0.4794,-0.1479,0.0,0.0,0.0,0.0,0.0,0.0,0.0,0.0,0.0,0.0,0.0,0.0,0.0,0.0,0.0,0.0,0.0,0.0,0.0,0.0,0.0,0.0,0.0,0.0,0.0,0.0,0.0,0.0,0.0,0.0,0.0,0.0,0.0,0.0,0.0,0.0,0.0,0.0,0.0,0.0,0.0,0.0,0.0,0.0,0.0,0.0,0.0,0.0,0.0,0.0,0.0,0.0,0.0,0.0,0.0,0.0,0.0,0.0,0.0,0.0,0.0,0.0,0.0,0.0,0.0,0.0,0.0,0.0,0.0,0.0,-0.3673,-0.6347,-1.0279,-1.3825,-1.5239,-1.8149,-2.0749,-2.1431,-2.2398,-2.3091,-2.3091,-2.3091,-2.2041,-1.8802,-1.6882,-1.5784,-1.5784,-1.6052,-1.6119,-1.5811,-1.6172,0.0,0.0,0.0,0.0,-1.6478,-1.6011,-1.5143,-1.3855,-1.3227,-1.2205,-1.066,-1.3706,-1.5133,-1.4604,-1.7991,-1.907,-1.7741,-1.235,-0.8077,-0.4856,-0.2647,-0.1048,0.0,0.0,0.0,0.0,0.0,0.0,0.0,0.0,0.0,0.0,0.0,0.0,0.0,0.0,0.0,0.0,0.0,0.0,0.0,0.0,0.0,0.0,0.0,0.0,0.0,0.0,0.0,0.0,0.0,0.0,0.0,0.0,0.0,0.0,0.0,0.0,0.0,0.0,0.0,0.0,0.0,0.0,0.0,0.0,0.0,0.0,0.0,0.0,0.0,0.0,0.0,0.0,0.0,0.0,0.0,0.0,0.0,0.0,0.0,0.0,0.0,0.0,0.0,0.0,0.0,0.0,0.0,0.0,-0.2449,-0.6254,-0.8097,-1.2547,-1.6832,-1.8216,-1.9853,-2.1493,-2.2833,-2.2857,-2.1959,-1.9644,-1.8905,-1.7959,-1.5835,-1.5872,-1.6119,-1.5997,-1.638,-1.65,-1.6179,-1.6567,0.0,0.0,0.0,0.0,-1.5704,-1.5355,-1.4312,-1.2276,-1.1655,-1.0899,-0.9819,-1.3,-1.472,-1.472,-1.8218,-1.8753,-1.6335,-1.2647,-0.9084,-0.582,-0.3595,-0.1981,-0.0863,-0.0247,0.0,0.0,0.0,0.0,0.0,0.0,0.0,0.0,0.0,0.0,0.0,0.0,0.0,0.0,0.0,0.0,0.0,0.0,0.0,0.0,0.0,0.0,0.0,0.0,0.0,0.0,0.0,0.0,0.0,0.0,0.0,0.0,0.0,0.0,0.0,0.0,0.0,0.0,0.0,0.0,0.0,0.0,0.0,0.0,0.0,0.0,0.0,0.0,0.0,0.0,0.0,0.0,0.0,0.0,0.0,0.0,0.0,0.0,0.0,0.0,0.0,0.0,0.0,0.0,0.0,0.0981,-0.3661,-0.8451,-0.9833,-1.4294,-1.8772,-2.0279,-2.0633,-2.1055,-2.2539,-2.2152,-1.9691,0.0,0.0,-1.1651,-1.4479,-1.5872,-1.658,-1.6426,-1.674,-1.6921,0.0,0.0,0.0,0.0,0.0,0.0,-1.3107,0.0,-1.2825,-0.9801,-0.9729,-0.9832,-0.9832,-1.3195,-1.5009,-1.5009,-1.8362,-1.849,-1.5328,-1.3572,-1.0977,-0.7468,-0.4395,-0.2808,-0.2401,-0.0802,-0.0062,0.0,0.0,0.0,0.0,0.0,0.0,0.0,0.0,0.0,0.0,0.0,0.0,0.0,0.0,0.0,0.0,0.0,0.0,0.0,0.0,0.0,0.0,0.0,0.0,0.0,0.0,0.0,0.0,0.0,0.0,0.0,0.0,0.0,0.0,0.0,0.0,0.0,0.0,0.0,0.0,0.0,0.0,0.0,0.0,0.0,0.0,0.0,0.0,0.0,0.0,0.0,0.0,0.0,0.0,0.0,0.0,0.0,0.0,0.0,0.0,0.0,0.0,0.0,0.0,-0.2617,-0.6223,-1.02,-1.342,-1.6725,-1.924,-1.9471,-1.9858,-1.9938,-1.9092,-1.8073,-1.6287,-1.2776,0.0,0.0,-1.3728,-1.4856,0.0,-1.6246,-1.658,0.0,0.0,0.0,-1.7809,-1.7796,-1.827,0.0,0.0,-1.3763,-1.3595,-1.3012,-1.1023,-0.993,-0.993,-1.3397,-1.5227,-1.5227,-1.7211,-1.7393,-1.5552,-1.3627,-1.0959,-0.7593,-0.6714,-0.4922,-0.2462,-0.2033,-0.1171,0.0,0.0,0.0,0.0,0.0,0.0,0.0,0.0,0.0,0.0,0.0,0.0,0.0,0.0,0.0,0.0,0.0,0.0,0.0,0.0,0.0,0.0,0.0,0.0,0.0,0.0,0.0,0.0,0.0,0.0,0.0,0.0,0.0,0.0,0.0,0.0,0.0,0.0,0.0,0.0,0.0,0.0,0.0,0.0,0.0,0.0,0.0,0.0,0.0,0.0,0.0,0.0,0.0,0.0,0.0,0.0,0.0,0.0,0.0,0.0,0.0,0.0,0.0,0.0,-0.3765,-0.7496,-1.152,-1.4851,-1.7903,-1.9742,-1.8699,-1.888,-1.864,-1.6491,-1.5185,0.0,0.0,0.0,0.0,0.0,0.0,0.0,-1.6319,-1.682,-1.7201,0.0,-1.8063,0.0,-1.8417,-1.8844,-1.8039,0.0,-1.4595,-1.3957,-1.3457,-1.2045,-1.1631,-1.237,-1.4409,-1.5506,-1.5539,-1.7189,-1.6877,-1.4635,-1.3503,-1.1509,-0.8828,-0.8072,-0.6603,-0.4715,0.0,-0.2647,-0.111,-0.111,-0.0679,0.0,0.0,0.0,0.0,0.0,0.0,0.0,0.0,0.0,0.0,0.0,0.0,0.0,0.0,0.0,0.0,0.0,0.0,0.0,0.0,0.0,0.0,0.0,0.0,0.0,0.0,0.0,0.0,0.0,0.0,0.0,0.0,0.0,0.0,0.0,0.0,0.0,0.0,0.0,0.0,0.0,0.0,0.0,0.0,0.0,0.0,0.0,0.0,0.0,0.0,0.0,0.0,0.0,0.0,0.0,0.0,0.0,0.0,0.0,0.0,0.0,-0.4102,-0.8265,-1.2661,-1.5497,-1.8247,-1.9787,-1.8049,-1.769,-1.6928,-1.42,0.0,0.0,-1.0153,0.0,-1.1469,-1.2866,0.0,-1.4983,-1.6493,-1.7174,-1.7662,-1.8036,-1.8577,-1.8818,-1.868,-1.913,-1.8626,-1.6737,-1.5526,-1.43,-1.2888,-1.2681,-1.351,-1.5472,-1.5466,-1.5652,-1.6237,-1.7275,-1.6302,-1.3325,-1.3062,-1.2061,-1.0422,-0.8869,-0.7973,-0.7526,0.0,0.0,-0.2831,-0.2585,-0.1663,-0.0309,-0.0062,0.0,0.0,0.0,0.0,0.0,0.0,0.0,0.0,0.0,0.0,0.0,0.0,0.0,0.0,0.0,0.0,0.0,0.0,0.0,0.0,0.0,0.0,0.0,0.0,0.0,0.0,0.0,0.0,0.0,0.0,0.0,0.0,0.0,0.0,0.0,0.0,0.0,0.0,0.0,0.0,0.0,0.0,0.0,0.0,0.0,0.0,0.0,0.0,0.0,0.0,0.0,0.0,0.0,0.0,0.0,0.0,0.0,0.0,0.0,-0.6946,-1.0078,-1.3915,-1.7841,-1.8298,-1.7704,-1.7558,-1.5971,0.0,0.0,0.0,-0.9646,-0.9119,-0.9943,0.0,-1.2265,0.0,0.0,0.0,0.0,-1.7568,0.0,0.0,0.0,0.0,0.0,0.0,0.0,0.0,-1.5185,-1.4836,-1.231,-1.2431,-1.5733,-1.4484,-1.5101,-1.7988,-1.5459,-1.3905,-1.3255,-1.1828,-1.0899,-1.049,-1.0204,-0.9142,-0.7593,-0.7261,0.0,-0.4364,-0.3076,-0.234,-0.191,-0.0555,0.0,0.0,0.0,0.0,0.0,0.0,0.0,0.0,0.0,0.0,0.0,0.0,0.0,0.0,0.0,0.0,0.0,0.0,0.0,0.0,0.0,0.0,0.0,0.0,0.0,0.0,0.0,0.0,0.0,0.0,0.0,0.0,0.0,0.0,0.0,0.0,0.0,0.0,0.0,0.0,0.0,0.0,0.0,0.0,0.0,0.0,0.0,0.0,0.0,0.0,0.0,0.0,0.0,0.0,0.0,0.0,0.0,0.0,0.0,-0.7816,-1.1809,-1.6327,-1.8862,-1.8929,-1.7959,-1.6453,0.0,0.0,0.0,0.0,-0.8944,-0.8831,0.0,0.0,0.0,0.0,0.0,0.0,0.0,0.0,0.0,0.0,0.0,0.0,0.0,0.0,0.0,0.0,-1.4148,-1.4168,-1.3594,-1.3678,-1.4553,-1.4619,-1.4553,-1.4423,-1.3713,-1.2869,-1.196,-1.1111,-1.068,-1.0609,-1.0527,-0.9983,-0.9016,-0.8881,0.0,-0.6139,-0.5341,-0.4056,-0.2401,-0.1602,-0.074,0.0,0.0,0.0,0.0,0.0,0.0,0.0,0.0,0.0,0.0,0.0,0.0,0.0,0.0,0.0,0.0,0.0,0.0,0.0,0.0,0.0,0.0,0.0,0.0,0.0,0.0,0.0,0.0,0.0,0.0,0.0,0.0,0.0,0.0,0.0,0.0,0.0,0.0,0.0,0.0,0.0,0.0,0.0,0.0,0.0,0.0,0.0,0.0,0.0,0.0,0.0,0.0,0.0,0.0,0.0,0.0,0.0,0.0353,-0.9783,-1.4321,-1.8811,-1.9372,-1.9126,-1.7909,-1.472,-1.3057,0.0,0.0,0.0,-0.856,-0.856,0.0,0.0,0.0,0.0,0.0,0.0,0.0,0.0,0.0,0.0,0.0,0.0,0.0,0.0,0.0,0.0,0.0,-1.2588,-1.4336,-1.4749,-1.3325,-1.4297,-1.3648,-1.1306,-1.2215,-1.2091,-1.0721,-1.0721,-1.0721,-1.0717,-1.0595,-1.0446,-1.0273,-1.0151,0.0,0.0,-0.7545,-0.5892,-0.3505,-0.277,-0.1725,-0.0494,-0.0123,0.0,0.0,0.0,0.0,0.0,0.0,0.0,0.0,0.0,0.0,0.0,0.0,0.0,0.0,0.0,0.0,0.0,0.0,0.0,0.0,0.0,0.0,0.0,0.0,0.0,0.0,0.0,0.0,0.0,0.0,0.0,0.0,0.0,0.0,0.0,0.0,0.0,0.0,0.0,0.0,0.0,0.0,0.0,0.0,0.0,0.0,0.0,0.0,0.0,0.0,0.0,0.0303,0.0404,0.0454,0.0706,0.1411,-1.5755,-1.8795,-2.0333,-1.967,-1.7839,-1.538,-1.2171,0.0,0.0,0.0,-0.8268,-0.7803,-0.7803,-0.7555,0.0,0.0,0.0,0.0,0.0,0.0,0.0,0.0,0.0,0.0,0.0,0.0,0.0,0.0,0.0,0.0,-1.0895,-1.2598,-1.3451,-1.3325,-1.1894,-1.1762,-1.3062,-1.1633,-1.085,-1.0721,-1.0721,-1.0721,-1.0721,-1.0707,-1.0544,-1.028,-1.0266,0.0,0.0,-0.7975,-0.7238,-0.6625,-0.3689,-0.2401,-0.2094,-0.0555,0.0,0.0,0.0,0.0,0.0,0.0,0.0,0.0,0.0,0.0,0.0,0.0,0.0,0.0,0.0,0.0,0.0,0.0,0.0,0.0,0.0,0.0,0.0,0.0,0.0,0.0,0.0,0.0,0.0,0.0,0.0,0.0,0.0,0.0,0.0,0.0,0.0,0.0,0.0,0.0,0.0,0.0,0.0,0.0,0.0,0.0,0.0,0.0,0.0,0.0,0.0,0.1209,0.1812,0.1862,0.3065,0.3715,-1.5506,-1.8615,-2.0418,-1.9262,-1.6679,-1.3814,-1.1363,0.0,0.0,-0.8494,-0.791,-0.7563,-0.7128,-0.7264,-0.7802,0.0,-0.9648,-1.0644,0.0,0.0,0.0,0.0,0.0,0.0,0.0,0.0,0.0,0.0,0.0,0.0,-1.0721,-1.1372,-1.1762,-1.1762,-1.1045,-1.1045,-1.1762,-1.1045,-1.0721,-1.0721,-1.0721,-1.0721,-1.0717,-1.0626,-1.0473,-1.0276,-1.0181,0.0,0.0,-0.9083,-0.8282,-0.7177,-0.4853,-0.3383,-0.2278,-0.0617,0.0,0.0,0.0,0.0,0.0,0.0,0.0,0.0,0.0,0.0,0.0,0.0,0.0,0.0,0.0,0.0,0.0,0.0,0.0,0.0,0.0,0.0,0.0,0.0,0.0,0.0,0.0,0.0,0.0,0.0,0.0,0.0,0.0,0.0,0.0,0.0,0.0,0.0,0.0,0.0,0.0,0.0,0.0,0.0,0.0,0.0,0.0,0.0,0.0807,0.1209,0.1209,0.2564,0.3215,0.3215,0.3765,0.4494,-1.472,-1.777,-1.9659,-1.8376,-1.5982,-1.3354,0.0,0.0,-0.959,-0.7752,-0.7203,-0.6902,-0.6362,-0.6529,-0.7093,-0.808,-0.8972,-1.0116,-1.1676,0.0,0.0,0.0,0.0,0.0,0.0,0.0,0.0,0.0,0.0,0.0,0.0,-1.0721,-1.0721,-1.0721,-1.0721,-1.0721,-1.0721,-1.0721,-1.0721,-1.0721,-1.0721,-1.0721,-1.0714,-1.0561,-1.0415,-1.0273,0.0,0.0,0.0,-0.9822,-0.8836,-0.7238,-0.5527,-0.3936,-0.2278,-0.0617,0.0,0.0,0.0,0.0,0.0,0.0,0.0,0.0,0.0,0.0,0.0,0.0,0.0,0.0,0.0,0.0,0.0,0.0,0.0,0.0,0.0,0.0,0.0,0.0,0.0,0.0,0.0,0.0,0.0,0.0,0.0,0.0,0.0,0.0,0.0,0.0,0.0,0.0,0.0,0.0,0.0,0.0,0.0,0.0,0.0,0.0,0.0,0.0,0.131,0.2013,0.2013,0.3767,0.4568,0.462,0.5048,0.5877,-1.451,-1.6854,-1.7978,-1.7072,-1.5895,-1.4257,0.0,-0.988,-0.8567,-0.6944,-0.6036,-0.5515,-0.5515,-0.4976,-0.5179,-0.7097,-0.8032,-0.9415,-1.1949,0.0,0.0,0.0,0.0,0.0,0.0,0.0,0.0,0.0,0.0,0.0,0.0,-1.0721,-1.0721,-1.0721,-1.0721,-1.0721,-1.0721,-1.0721,-1.0721,-1.0721,-1.0721,-1.0721,-1.0714,-1.0561,-1.0415,0.0,0.0,0.0,0.0,-0.9822,-0.8836,-0.7238,-0.5527,-0.3936,-0.2278,-0.0617,0.0,0.0,0.0,0.0,0.0,0.0,0.0,0.0,0.0,0.0,0.0,0.0,0.0,0.0,0.0,0.0,0.0,0.0,0.0,0.0,0.0,0.0,0.0,0.0,0.0,0.0,0.0,0.0,0.0,0.0,0.0,0.0,0.0,0.0,0.0,0.0,0.0,0.0,0.0,0.0,0.0,0.0,0.0,0.0,0.0,0.0,0.0,0.0,0.131,0.2013,0.2013,0.4672,0.5979,0.6032,0.7528,0.8343,-1.1986,-1.3429,-1.3911,-1.2948,-1.226,-1.133,-0.9334,-0.8408,-0.7584,-0.6128,-0.5651,-0.5351,-0.4893,-0.503,-0.5884,-0.8028,-0.8972,0.0,0.0,0.0,0.0,0.0,0.0,0.0,0.0,0.0,0.0,0.0,0.0,0.0,0.0,-1.0721,-1.0721,-1.0721,-1.0721,-1.0721,-1.0721,-1.0721,-1.0721,-1.0721,-1.0721,-1.0721,-1.0711,-1.0463,0.0,0.0,0.0,0.0,0.0,-0.9822,-0.8836,-0.7238,-0.5527,-0.3936,-0.2278,-0.0617,0.0,0.0,0.0,0.0,0.0,0.0,0.0,0.0,0.0,0.0,0.0,0.0,0.0,0.0,0.0,0.0,0.0,0.0,0.0,0.0,0.0,0.0,0.0,0.0,0.0,0.0,0.0,0.0,0.0,0.0,0.0,0.0,0.0,0.0,0.0,0.0,0.0,0.0,0.0,0.0,0.0,0.0,0.0,0.0,0.0,0.0,0.0,0.0,0.2292,0.3481,0.3532,0.6318,0.7714,0.7717,0.8286,0.8598,0.0,-1.1152,-1.1281,-1.0787,-1.014,-0.9286,-0.7907,-0.7245,-0.6577,-0.5361,-0.5136,-0.5003,-0.457,-0.5058,-0.6093,-0.7882,-0.8639,0.0,0.0,0.0,0.0,0.0,0.0,0.0,0.0,0.0,0.0,0.0,0.0,0.0,0.0,-1.0721,-1.0721,-1.0721,-1.0721,-1.0721,-1.0721,-1.0721,-1.0721,-1.0721,-1.0721,-1.069,-1.0626,-1.0388,0.0,0.0,0.0,0.0,0.0,-0.9143,-0.7914,-0.6322,-0.461,-0.3016,-0.1417,-0.037,0.0,0.0,0.0,0.0,0.0,0.0,0.0,0.0,0.0,0.0,0.0,0.0,0.0,0.0,0.0,0.0,0.0,0.0,0.0,0.0,0.0,0.0,0.0,0.0,0.0,0.0,0.0,0.0,0.0,0.0,0.0,0.0,0.0,0.0,0.0,0.0,0.0,0.0,0.0,0.0,0.0,0.0,0.0,0.0,0.0,0.0,0.0,0.0,0.2753,0.4224,0.4224,0.7116,0.8513,0.857,0.8665,0.8743,0.0,-0.9737,-0.9745,-0.9976,-0.9107,-0.7922,-0.6955,-0.6292,0.0,-0.4681,-0.4491,-0.4501,-0.4532,-0.5089,-0.5906,-0.7021,0.0,0.0,0.0,0.0,0.0,0.0,0.0,0.0,0.0,0.0,0.0,0.0,0.0,0.0,0.0,-1.0711,-1.0711,-1.0721,-1.0711,-1.0711,-1.0721,-1.0721,-1.0721,-1.0721,-1.0721,-1.0639,-1.0487,-1.0344,0.0,0.0,0.0,0.0,0.0,-0.8036,-0.6383,-0.4732,-0.3139,-0.1479,0.0,0.0,0.0,0.0,0.0,0.0,0.0,0.0,0.0,0.0,0.0,0.0,0.0,0.0,0.0,0.0,0.0,0.0,0.0,0.0,0.0,0.0,0.0,0.0,0.0,0.0,0.0,0.0,0.0,0.0,0.0,0.0,0.0,0.0,0.0,0.0,0.0,0.0,0.0,0.0,0.0,0.0,0.0,0.0,0.0,0.0,0.0,0.0,0.0,0.0,0.2765,0.4307,0.4524,0.7235,0.8587,0.8726,0.8726,0.8804,-0.6431,0.0,-0.7562,-0.6711,-0.6276,-0.5848,0.0,-0.4956,-0.4779,-0.4553,0.0,-0.4597,-0.4911,-0.5453,-0.6384,0.0,0.0,0.0,0.0,0.0,0.0,0.0,0.0,0.0,0.0,0.0,0.0,0.0,0.0,0.0,0.0,-1.0609,-1.0599,-1.0717,-1.0605,-1.0602,-1.0717,-1.0721,-1.0721,-1.0721,-1.0721,-1.0639,-1.0487,-1.0344,0.0,0.0,0.0,0.0,-0.9697,-0.8036,-0.6383,-0.4732,-0.3139,-0.1479,0.0,0.0,0.0,0.0,0.0,0.0,0.0,0.0,0.0,0.0,0.0,0.0,0.0,0.0,0.0,0.0,0.0,0.0,0.0,0.0,0.0,0.0,0.0,0.0,0.0,0.0,0.0,0.0,0.0,0.0,0.0,0.0,0.0,0.0,0.0,0.0,0.0,0.0,0.0,0.0,0.0,0.0,0.0,0.0,0.0,0.0,0.0,0.0,0.0,0.0,0.2907,0.5554,0.778,0.85,0.8849,0.8828,0.8828,0.8848,-0.5032,-0.5799,-0.635,-0.5693,-0.5325,-0.5048,-0.474,0.0,0.0,0.0,0.0,-0.4586,-0.487,0.0,0.0,0.0,0.0,0.0,0.0,0.0,0.0,0.0,0.0,0.0,0.0,0.0,0.0,0.0,0.0,0.0,0.0,-1.0439,-1.0432,-1.0517,-1.0439,-1.05,-1.0717,-1.0721,-1.0721,-1.0721,-1.0649,-1.0538,-1.0388,-1.0243,-1.009,0.0,0.0,0.0,-0.8587,-0.6935,-0.5282,-0.3629,-0.1971,-0.0802,0.0,0.0,0.0,0.0,0.0,0.0,0.0,0.0,0.0,0.0,0.0,0.0,0.0,0.0,0.0,0.0,0.0,0.0,0.0,0.0,0.0,0.0,0.0,0.0,0.0,0.0,0.0,0.0,0.0,0.0,0.0,0.0,0.0,0.0,0.0,0.0,0.0,0.0,0.0,0.0,0.0,0.0,0.0,0.0,0.0,0.0,0.0,0.0,0.0327,0.0981,0.3293,0.5645,0.7875,0.8546,0.8885,0.8885,0.8885,0.8885,-0.4361,-0.4999,-0.5674,-0.5676,-0.5389,-0.512,-0.5216,0.0,0.0,0.0,0.0,0.0,0.0,0.0,0.0,0.0,0.0,0.0,0.0,0.0,0.0,0.0,0.0,0.0,0.0,0.0,0.0,0.0,0.0,0.0,0.0,-1.0256,-1.0256,-1.028,-1.0256,-1.0378,-1.0649,-1.0653,-1.0653,-1.0653,-1.0521,-1.0385,-1.0243,-1.011,-0.9903,0.0,0.0,0.0,-0.7299,-0.559,-0.3936,-0.234,-0.0679,0.0,0.0,0.0,0.0,0.0,0.0,0.0,0.0,0.0,0.0,0.0,0.0,0.0,0.0,0.0,0.0,0.0,0.0,0.0,0.0,0.0,0.0,0.0,0.0,0.0,0.0,0.0,0.0,0.0,0.0,0.0,0.0,0.0,0.0,0.0,0.0,0.0,0.0,0.0,0.0,0.0,0.0,0.0,0.0,0.0,0.0,0.0,0.0,0.0,0.0672,0.218,0.3688,0.525,0.6702,0.8156,0.8885,0.8885,0.8885,0.8885,-0.4136,-0.4615,-0.5049,-0.518,-0.5618,-0.6126,-0.6634,0.0,0.0,0.0,0.0,0.0,0.0,0.0,0.0,0.0,0.0,0.0,0.0,0.0,0.0,0.0,0.0,0.0,0.0,0.0,0.0,0.0,0.0,0.0,0.0,-1.0154,-1.0144,-1.0276,-1.0151,-1.0171,-1.0344,-1.0348,-1.0348,-1.0348,-1.0324,-1.0232,-1.0024,-0.9997,-0.9903,0.0,0.0,-0.8897,-0.7299,-0.559,-0.3936,-0.234,-0.0679,0.0,0.0,0.0,0.0,0.0,0.0,0.0,0.0,0.0,0.0,0.0,0.0,0.0,0.0,0.0,0.0,0.0,0.0,0.0,0.0,0.0,0.0,0.0,0.0,0.0,0.0,0.0,0.0,0.0,0.0,0.0,0.0,0.0,0.0,0.0,0.0,0.0,0.0,0.0,0.0,0.0,0.0,0.0,0.0,0.0,0.0,0.0,0.0,0.0,0.0672,0.218,0.3688,0.525,0.6702,0.8156,0.8885,0.8885,0.8885,0.8885,-0.3924,-0.4328,-0.4815,-0.5441,-0.6323,-0.7297,-0.8096,0.0,0.0,0.0,0.0,0.0,0.0,0.0,0.0,0.0,0.0,0.0,0.0,0.0,0.0,0.0,0.0,0.0,0.0,0.0,0.0,0.0,0.0,0.0,0.0,0.0,-0.9958,-1.0029,-0.9964,-0.9961,-1.0032,-1.0032,-1.0117,-1.028,-1.0195,-1.0117,-0.9984,-0.9903,-0.9886,-0.9822,0.0,-0.8346,-0.6016,-0.5223,-0.3445,-0.1048,-0.0309,0.0,0.0,0.0,0.0,0.0,0.0,0.0,0.0,0.0,0.0,0.0,0.0,0.0,0.0,0.0,0.0,0.0,0.0,0.0,0.0,0.0,0.0,0.0,0.0,0.0,0.0,0.0,0.0,0.0,0.0,0.0,0.0,0.0,0.0,0.0,0.0,0.0,0.0,0.0,0.0,0.0,0.0,0.0,0.0,0.0,0.0,0.0,0.0,0.0,0.0336,0.1008,0.3297,0.486,0.553,0.7817,0.8885,0.8885,0.8885,0.8885,-0.3839,-0.4201,-0.4766,-0.5891,0.0,-0.7963,-0.8926,0.0,0.0,0.0,0.0,0.0,0.0,0.0,0.0,0.0,0.0,0.0,0.0,0.0,0.0,0.0,0.0,0.0,0.0,0.0,0.0,0.0,0.0,0.0,0.0,0.0,-0.9822,-0.9822,-0.9822,-0.9822,-0.9822,-0.9822,-0.9941,-1.0171,-1.0053,-0.9933,-0.993,-0.9873,-0.9822,-0.9758,-0.939,-0.7609,-0.4855,-0.4487,-0.2647,0.0,0.0,0.0,0.0,0.0,0.0,0.0,0.0,0.0,0.0,0.0,0.0,0.0,0.0,0.0,0.0,0.0,0.0,0.0,0.0,0.0,0.0,0.0,0.0,0.0,0.0,0.0,0.0,0.0,0.0,0.0,0.0,0.0,0.0,0.0,0.0,0.0,0.0,0.0,0.0,0.0,0.0,0.0,0.0,0.0,0.0,0.0,0.0,0.0,0.0,0.0,0.0,0.0,0.2964,0.4526,0.4526,0.7482,0.8885,0.8885,0.8885,0.8885,-0.4072,-0.4334,-0.4847,-0.6284,-0.71,0.0,-0.8466,-0.9363,0.0,-0.9872,0.0,0.0,0.0,0.0,0.0,0.0,0.0,0.0,0.0,0.0,0.0,0.0,0.0,0.0,0.0,0.0,0.0,0.0,0.0,0.0,0.0,0.0,0.0,-0.9822,-0.9822,-0.9822,-0.9822,-0.9822,-0.9832,-0.9856,-0.9842,-0.9836,-0.9836,-0.9825,-0.9822,-0.9697,-0.8218,-0.6566,-0.4794,-0.326,-0.1602,0.0,0.0,0.0,0.0,0.0,0.0,0.0,0.0,0.0,0.0,0.0,0.0,0.0,0.0,0.0,0.0,0.0,0.0,0.0,0.0,0.0,0.0,0.0,0.0,0.0,0.0,0.0,0.0,0.0,0.0,0.0,0.0,0.0,0.0,0.0,0.0,0.0,0.0,0.0,0.0,0.0,0.0,0.0,0.0,0.0,0.0,0.0,0.0,0.0,0.0,0.0,0.0,0.0,0.2964,0.4526,0.4526,0.7482,0.8885,0.8885,0.8885,0.8885,-0.3987,-0.4392,-0.4943,-0.5788,-0.717,0.0,0.0,-1.1742,-1.2915,-1.3237,0.0,0.0,0.0,0.0,0.0,0.0,0.0,0.0,0.0,0.0,0.0,0.0,0.0,0.0,0.0,0.0,0.0,0.0,0.0,0.0,0.0,0.0,0.0,-0.9822,-0.9822,-0.9822,-0.9822,-0.9822,-0.9822,-0.9822,-0.9822,-0.9822,-0.9822,-0.9822,-0.9265,-0.8282,-0.7667,-0.5892,-0.3383,-0.277,-0.1541,0.0,0.0,0.0,0.0,0.0,0.0,0.0,0.0,0.0,0.0,0.0,0.0,0.0,0.0,0.0,0.0,0.0,0.0,0.0,0.0,0.0,0.0,0.0,0.0,0.0,0.0,0.0,0.0,0.0,0.0,0.0,0.0,0.0,0.0,0.0,0.0,0.0,0.0,0.0,0.0,0.0,0.0,0.0,0.0,0.0,0.0392,0.1287,0.0504,0.0,0.0,0.0,0.0448,0.1343,0.3409,0.4973,0.5864,0.7931,0.8885,0.8885,0.8885,0.8988,-0.394,-0.4399,-0.4955,-0.5406,0.0,0.0,-1.1089,-1.2987,-1.4491,0.0,0.0,0.0,0.0,0.0,0.0,0.0,0.0,0.0,0.0,0.0,0.0,0.0,0.0,0.0,0.0,0.0,0.0,0.0,0.0,0.0,0.0,0.0,0.0,0.0,-0.9822,-0.9822,-0.9822,-0.9822,-0.9822,-0.9822,-0.9822,-0.9822,-0.9822,-0.9822,-0.8897,-0.736,-0.6811,-0.5035,-0.2462,-0.191,-0.1048,0.0,0.0,0.0,0.0,0.0,0.0,0.0,0.0,0.0,0.0,0.0,0.0,0.0,0.0,0.0,0.0,0.0,0.0,0.0,0.0,0.0,0.0,0.0,0.0,0.0,0.0,0.0,0.0,0.0,0.0,0.0,0.0,0.0,0.0,0.0,0.0,0.0,0.0,0.0,0.0,0.0,0.0,0.0,0.0,0.0,0.0616,0.2124,0.1231,0.0896,0.14,0.14,0.1902,0.2905,0.4413,0.5697,0.6702,0.8156,0.8905,0.9008,0.9008,0.9086,-0.3998,-0.4355,-0.4806,0.0,0.0,0.0,0.0,-1.2619,-1.4161,0.0,0.0,0.0,0.0,0.0,0.0,0.0,0.0,0.0,0.0,0.0,0.0,0.0,0.0,0.0,0.0,0.0,0.0,0.0,0.0,0.0,0.0,0.0,0.0,0.0,-0.9822,-0.9822,-0.9822,-0.9822,-0.9822,-0.9822,-0.9822,-0.9822,-0.9822,-0.9822,-0.8897,-0.7299,-0.5649,-0.3997,-0.234,-0.0679,0.0,0.0,0.0,0.0,0.0,0.0,0.0,0.0,0.0,0.0,0.0,0.0,0.0,0.0,0.0,0.0,0.0,0.0,0.0,0.0,0.0,0.0,0.0,0.0,0.0,0.0,0.0,0.0,0.0,0.0,0.0,0.0,0.0,0.0,0.0,0.0,0.0,0.0,0.0,0.0,0.0,0.0,0.0,0.0,0.0,0.0,0.0672,0.2124,0.2235,0.2907,0.4414,0.4526,0.4526,0.4528,0.5975,0.6702,0.6702,0.8211,0.9015,0.921,0.921,0.9296,-0.4153,-0.4709,0.0,0.0,0.0,0.0,0.0,0.0,0.0,0.0,0.0,0.0,0.0,0.0,0.0,0.0,0.0,0.0,0.0,0.0,0.0,0.0,0.0,0.0,0.0,0.0,0.0,0.0,0.0,0.0,0.0,0.0,0.0,0.0,-0.9822,-0.9822,-0.9822,-0.9822,-0.9822,-0.9822,-0.9822,-0.9822,-0.9822,-0.9822,-0.8285,-0.5588,-0.51,-0.3322,-0.0678,-0.0185,0.0,0.0,0.0,0.0,0.0,0.0,0.0,0.0,0.0,0.0,0.0,0.0,0.0,0.0,0.0,0.0,0.0,0.0,0.0,0.0,0.0,0.0,0.0,0.0,0.0,0.0,0.0,0.0,0.0,0.0,0.0,0.0,0.0,0.0,0.0,0.0,0.0,0.0,0.0,0.0,0.0,0.0,0.0,0.0404,0.1482,0.1669,0.2808,0.52,0.5472,0.5197,0.4529,0.4526,0.4973,0.6031,0.6478,0.7204,0.8266,0.8815,0.9169,0.921,0.932,0.9395,-0.4626,0.0,0.0,0.0,0.0,0.0,0.0,0.0,0.0,0.0,0.0,0.0,0.0,0.0,0.0,0.0,0.0,0.0,0.0,0.0,0.0,0.0,0.0,0.0,0.0,0.0,0.0,0.0,0.0,0.0,0.0,0.0,0.0,0.0,-0.9822,-0.9822,-0.9822,-0.9822,-0.9822,-0.9822,-0.9822,-0.9451,-0.8836,-0.8836,-0.7426,-0.4856,-0.3506,-0.1848,0.0,0.0,0.0,0.0,0.0,0.0,0.0,0.0,0.0,0.0,0.0,0.0,0.0,0.0,0.0,0.0,0.0,0.0,0.0,0.0,0.0,0.0,0.0,0.0,0.0,0.0,0.0,0.0,0.0,0.0,0.0,0.0,0.0,0.0,0.0,0.0,0.0,0.0,0.0,0.0,0.0,0.0,0.0,0.0,0.0,0.0645,0.2201,0.2453,0.3724,0.667,0.6951,0.6841,0.6436,0.6393,0.6786,0.7743,0.7799,0.8201,0.9113,0.9201,0.933,0.9337,0.9429,0.9551,0.0,0.0,0.0,0.0,0.0,0.0,0.0,0.0,0.0,0.0,0.0,0.0,0.0,0.0,0.0,0.0,0.0,0.0,0.0,0.0,0.0,0.0,0.0,0.0,0.0,0.0,0.0,0.0,0.0,0.0,0.0,0.0,0.0,-0.9778,-0.9781,-0.9781,-0.9781,-0.9781,-0.9781,0.0,-0.9613,-0.8818,-0.7345,-0.7416,-0.6383,-0.4487,-0.1356,0.0,0.0,0.0,0.0,0.0,0.0,0.0,0.0,0.0,0.0,0.0,0.0,0.0,0.0,0.0,0.0,0.0,0.0,0.0,0.0,0.0,0.0,0.0,0.0,0.0,0.0,0.0,0.0,0.0,0.0,0.0,0.0,0.0,0.0,0.0,0.0,0.0,0.0,0.0,0.0,0.0,0.0,0.0,0.0,0.0,0.0,0.0709,0.2531,0.2711,0.4059,0.7092,0.7336,0.793,0.9343,0.9313,0.9296,0.9378,0.9381,0.9381,0.9381,0.9395,0.9473,0.9608,0.9625,0.9696,0.0,0.0,0.0,0.0,0.0,0.0,0.0,0.0,0.0,0.0,0.0,0.0,0.0,0.0,0.0,0.0,0.0,0.0,0.0,0.0,0.0,0.0,0.0,0.0,0.0,0.0,0.0,0.0,0.0,0.0,0.0,0.0,0.0,-0.9476,-0.9476,-0.9476,-0.9476,-0.9476,-0.9476,0.0,-0.8272,-0.7477,-0.7178,-0.7322,-0.577,-0.2893,-0.0863,0.0,0.0,0.0,0.0,0.0,0.0,0.0,0.0,0.0,0.0,0.0,0.0,0.0,0.0,0.0,0.0,0.0,0.0,0.0,0.0,0.0,0.0,0.0,0.0,0.0,0.0,0.0,0.0,0.0,0.0,0.0,0.0,0.0,0.0,0.0,0.0,0.0,0.0,0.0,0.0,0.0,0.0,0.0,0.0,0.0,0.0,0.1154,0.4008,0.435,0.5658,0.869,0.9016,0.9199,0.9561,0.9412,0.9347,0.9381,0.9381,0.9381,0.9381,0.9503,0.9578,0.9612,0.9724,0.9791,0.0,0.0,0.0,0.0,0.0,0.0,0.0,0.0,0.0,0.0,0.0,0.0,0.0,0.0,0.0,0.0,0.0,0.0,0.0,0.0,0.0,0.0,0.0,0.0,0.0,0.0,0.0,0.0,0.0,0.0,0.0,-0.933,-0.9306,-0.9381,-0.9381,-0.9381,-0.9381,-0.9381,-0.9381,-0.9381,-0.7861,-0.6348,-0.493,-0.4985,-0.3688,-0.1233,-0.037,0.0,0.0,0.0,0.0,0.0,0.0,0.0,0.0,0.0,0.0,0.0,0.0,0.0,0.0,0.0,0.0,0.0,0.0,0.0,0.0,0.0,0.0,0.0,0.0,0.0,0.0,0.0,0.0,0.0,0.0,0.0,0.0,0.0,0.0,0.0,0.0,0.0,0.0,0.0,0.0,0.0,0.0,0.0,0.0,0.0,0.0,0.129,0.4496,0.4833,0.6222,0.942,0.9666,0.971,0.971,0.9635,0.9591,0.9591,0.9591,0.9591,0.9591,0.9673,0.971,0.971,0.9785,0.9822,0.0,0.0,0.0,0.0,0.0,0.0,0.0,0.0,0.0,0.0,0.0,0.0,0.0,0.0,0.0,0.0,0.0,0.0,0.0,0.0,0.0,0.0,0.0,0.0,0.0,0.0,0.0,0.0,0.0,0.0,-0.9166,-0.9173,-0.9174,-0.9303,-0.9306,-0.9306,-0.9306,-0.9306,-0.9188,-0.8897,-0.7109,-0.4794,-0.2058,-0.2053,-0.1286,0.0,0.0,0.0,0.0,0.0,0.0,0.0,0.0,0.0,0.0,0.0,0.0,0.0,0.0,0.0,0.0,0.0,0.0,0.0,0.0,0.0,0.0,0.0,0.0,0.0,0.0,0.0,0.0,0.0,0.0,0.0,0.0,0.0,0.0,0.0,0.0,0.0,0.0,0.0,0.0,0.0,0.0,0.0,0.0,0.0,0.0,0.0,0.0,0.1233,0.4364,0.4794,0.6324,0.9576,0.9822,0.9822,0.9822,0.9822,0.9822,0.9822,0.9822,0.9822,0.9822,0.9822,0.9822,0.9822,0.9822,0.9822,0.0,0.0,0.0,0.0,0.0,0.0,0.0,0.0,0.0,0.0,0.0,0.0,0.0,0.0,0.0,0.0,0.0,0.0,0.0,0.0,0.0,0.0,0.0,0.0,0.0,0.0,0.0,0.0,0.0,0.0,-0.8964,-0.8967,-0.8922,-0.8942,-0.8942,-0.8942,-0.8942,-0.8942,-0.832,-0.7028,-0.4221,-0.1971,-0.0353,-0.0355,-0.0239,0.0,0.0,0.0,0.0,0.0,0.0,0.0,0.0,0.0,0.0,0.0,0.0,0.0,0.0,0.0,0.0,0.0,0.0,0.0,0.0,0.0,0.0,0.0,0.0,0.0,0.0,0.0,0.0,0.0,0.0,0.0,0.0,0.0,0.0,0.0,0.0,0.0,0.0,0.0,0.0,0.0,0.0,0.0,0.0,0.0,0.0,0.0,0.0,0.0925,0.3321,0.4364,0.6324,0.9576,0.9822,0.9822,0.9822,0.9822,0.9822,0.9822,0.9822,0.9822,0.9822,0.9822,0.9822,0.9822,0.9822,0.9822,0.0,0.0,0.0,0.0,0.0,0.0,0.0,0.0,0.0,0.0,0.0,0.0,0.0,0.0,0.0,0.0,0.0,0.0,0.0,0.0,0.0,0.0,0.0,0.0,0.0,0.0,0.0,0.0,0.0,-0.8885,-0.8885,-0.8885,-0.8885,-0.8885,-0.8885,-0.8885,-0.8885,-0.8885,-0.7765,-0.5419,-0.3265,-0.1419,0.0,0.0,0.0,0.0,0.0,0.0,0.0,0.0,0.0,0.0,0.0,0.0,0.0,0.0,0.0,0.0,0.0,0.0,0.0,0.0,0.0,0.0,0.0,0.0,0.0,0.0,0.0,0.0,0.0,0.0,0.0,0.0,0.0,0.0,0.0,0.0,0.0,0.0,0.0,0.0,0.0,0.0,0.0,0.0,0.0,0.0,0.0,0.0,0.0,0.0,0.0,0.0925,0.3136,0.4853,0.6996,0.9636,0.9822,0.9822,0.9822,0.9822,0.9822,0.9822,0.9822,0.9822,0.9822,0.9822,0.9822,0.9822,0.9822,0.9822,0.0,0.0,0.0,0.0,0.0,0.0,0.0,0.0,0.0,0.0,0.0,0.0,0.0,0.0,0.0,0.0,0.0,0.0,0.0,0.0,0.0,0.0,0.0,0.0,0.0,0.0,0.0,0.0,0.0,-0.8885,-0.8885,-0.8885,-0.8885,-0.8885,-0.8885,-0.8885,-0.8885,-0.8156,-0.67,-0.447,-0.2572,-0.1063,0.0,0.0,0.0,0.0,0.0,0.0,0.0,0.0,0.0,0.0,0.0,0.0,0.0,0.0,0.0,0.0,0.0,0.0,0.0,0.0,0.0,0.0,0.0,0.0,0.0,0.0,0.0,0.0,0.0,0.0,0.0,0.0,0.0,0.0,0.0,0.0,0.0,0.0,0.0,0.0,0.0,0.0,0.0,0.0,0.0,0.0,0.0,0.0,0.0,0.0,0.0,0.0986,0.3505,0.5464,0.7484,0.9636,0.9822,0.9822,0.9822,0.9822,0.9822,0.9822,0.9822,0.9822,0.9822,0.9822,0.9822,0.9822,0.9822,0.9822,0.0,0.0,0.0,0.0,0.0,0.0,0.0,0.0,0.0,0.0,0.0,0.0,0.0,0.0,0.0,0.0,0.0,0.0,0.0,0.0,0.0,0.0,0.0,0.0,0.0,0.0,0.0,0.0,0.0,-0.8885,-0.8885,-0.8885,-0.8885,-0.8885,-0.8885,-0.8885,-0.8885,-0.6142,-0.4639,-0.447,-0.1512,-0.0056,0.0,0.0,0.0,0.0,0.0,0.0,0.0,0.0,0.0,0.0,0.0,0.0,0.0,0.0,0.0,0.0,0.0,0.0,0.0,0.0,0.0,0.0,0.0,0.0,0.0,0.0,0.0,0.0,0.0,0.0,0.0,0.0,0.0,0.0,0.0,0.0,0.0,0.0,0.0,0.0,0.0,0.0,0.0,0.0,0.0,0.0,0.0,0.0,0.0,0.0,0.0,0.1294,0.4548,0.5833,0.7423,0.9636,0.9822,0.9822,0.9822,0.9822,0.9822,0.9822,0.9822,0.9822,0.9822,0.9822,0.9822,0.9822,0.9822,0.9822,0.0,0.0,0.0,0.0,0.0,0.0,0.0,0.0,0.0,0.0,0.0,0.0,0.0,0.0,0.0,0.0,0.0,0.0,0.0,0.0,0.0,0.0,0.0,0.0,0.0,0.0,0.0,0.0,0.0,0.0,-0.8885,-0.8885,-0.8885,-0.8885,-0.8885,-0.8885,-0.8885,-0.5977,-0.4526,-0.447,-0.1456,0.0,0.0,0.0,0.0,0.0,0.0,0.0,0.0,0.0,0.0,0.0,0.0,0.0,0.0,0.0,0.0,0.0,0.0,0.0,0.0,0.0,0.0,0.0,0.0,0.0,0.0,0.0,0.0,0.0,0.0,0.0,0.0,0.0,0.0,0.0,0.0,0.0,0.0,0.0,0.0,0.0,0.0,0.0,0.0,0.0,0.0,0.0,0.0,0.0,0.0,0.0,0.191,0.3873,0.5772,0.7609,0.8961,0.9758,0.9822,0.9822,0.9822,0.9822,0.9822,0.9822,0.9822,0.9822,0.9822,0.9822,0.9822,0.9822,0.9822,0.9822,0.0,0.0,0.0,0.0,0.0,0.0,0.0,0.0,0.0,0.0,0.0,0.0,0.0,0.0,0.0,0.0,0.0,0.0,0.0,0.0,0.0,0.0,0.0,0.0,0.0,0.0,0.0,0.0,0.0,0.0,-0.8784,-0.8832,-0.8831,-0.8881,-0.8885,-0.8657,-0.8156,-0.5753,-0.4247,-0.3688,-0.1176,0.0,0.0,0.0,0.0,0.0,0.0,0.0,0.0,0.0,0.0,0.0,0.0,0.0,0.0,0.0,0.0,0.0,0.0,0.0,0.0,0.0,0.0,0.0,0.0,0.0,0.0,0.0,0.0,0.0,0.0,0.0,0.0,0.0,0.0,0.0,0.0,0.0,0.0,0.0,0.0,0.0,0.0,0.0,0.0,0.0,0.0,0.0,0.0,0.0,0.0,0.0,0.3935,0.6569,0.6505,0.8529,0.9822,0.9822,0.9822,0.9822,0.9822,0.9822,0.9822,0.9822,0.9822,0.9822,0.9822,0.9822,0.9822,0.9822,0.9822,0.9822,0.0,0.0,0.0,0.0,0.0,0.0,0.0,0.0,0.0,0.0,0.0,0.0,0.0,0.0,0.0,0.0,0.0,0.0,0.0,0.0,0.0,0.0,0.0,0.0,0.0,0.0,0.0,0.0,0.0,-0.8482,-0.8482,-0.8621,-0.8774,-0.8871,-0.8878,-0.8149,-0.6702,-0.5194,-0.3688,-0.218,-0.0728,0.0,0.0,0.0,0.0,0.0,0.0,0.0,0.0,0.0,0.0,0.0,0.0,0.0,0.0,0.0,0.0,0.0,0.0,0.0,0.0,0.0,0.0,0.0,0.0,0.0,0.0,0.0,0.0,0.0,0.0,0.0,0.0,0.0,0.0,0.0,0.0,0.0,0.0,0.0,0.0,0.0,0.0,0.0,0.0,0.0,0.0,0.0,0.0,0.0,0.0,0.0062,0.5831,0.8775,0.6811,0.859,0.9822,0.9822,0.9822,0.9822,0.9822,0.9822,0.9822,0.9822,0.9822,0.9822,0.9822,0.9822,0.9822,0.9822,0.9822,0.9822,-0.3944,0.0,0.0,0.0,0.0,0.0,0.0,0.0,0.0,0.0,0.0,0.0,0.0,0.0,0.0,0.0,0.0,0.0,0.0,0.0,0.0,0.0,0.0,0.0,0.0,0.0,0.0,0.0,-0.8482,-0.8482,-0.8482,-0.8523,-0.8615,-0.8767,-0.7729,-0.7002,-0.67,-0.4132,-0.2626,-0.218,-0.0728,0.0,0.0,0.0,0.0,0.0,0.0,0.0,0.0,0.0,0.0,0.0,0.0,0.0,0.0,0.0,0.0,0.0,0.0,0.0,0.0,0.0,0.0,0.0,0.0,0.0,0.0,0.0,0.0,0.0,0.0,0.0,0.0,0.0,0.0,0.0,0.0,0.0,0.0,0.0,0.0,0.0,0.0,0.0,0.0,0.0,0.0,0.0,0.0,0.0,0.0617,0.2216,0.3993,0.5647,0.7055,0.8775,0.9822,0.9822,0.9822,0.9822,0.9822,0.9822,0.9822,0.9822,0.9822,0.9822,0.9822,0.9822,0.9822,0.9822,0.9822,0.9822,0.0,0.0,0.0,0.0,0.0,0.0,0.0,0.0,0.0,0.0,0.0,0.0,0.0,0.0,0.0,0.0,0.0,0.0,0.0,0.0,0.0,0.0,0.0,0.0,0.0,0.0,0.0,-0.8292,-0.8299,-0.8326,-0.8391,-0.8394,-0.8462,-0.8611,-0.7268,-0.6222,-0.5684,-0.3361,-0.1882,-0.1274,-0.0391,0.0,0.0,0.0,0.0,0.0,0.0,0.0,0.0,0.0,0.0,0.0,0.0,0.0,0.0,0.0,0.0,0.0,0.0,0.0,0.0,0.0,0.0,0.0,0.0,0.0,0.0,0.0,0.0,0.0,0.0,0.0,0.0,0.0,0.0,0.0,0.0,0.0,0.0,0.0,0.0,0.0,0.0,0.0,0.0,0.0,0.0,0.0,0.0,0.0,0.154,0.5586,0.6014,0.6381,0.7299,0.8897,0.9822,0.9822,0.9822,0.9822,0.9822,0.9822,0.9822,0.9822,0.9822,0.9822,0.9822,0.9822,0.9822,0.9822,0.9822,0.9822,-0.4419,-0.4477,0.0,0.0,0.0,0.0,0.0,-0.5206,0.0,0.0,0.0,0.0,0.0,0.0,0.0,0.0,0.0,0.0,0.0,0.0,0.0,0.0,0.0,0.0,0.0,-0.7988,-0.7988,-0.7988,-0.7988,-0.8099,-0.8238,-0.8245,-0.8258,-0.8239,-0.6923,-0.5501,-0.3979,-0.2644,-0.1308,0.0,0.0,0.0,0.0,0.0,0.0,0.0,0.0,0.0,0.0,0.0,0.0,0.0,0.0,0.0,0.0,0.0,0.0,0.0,0.0,0.0,0.0,0.0,0.0,0.0,0.0,0.0,0.0,0.0,0.0,0.0,0.0,0.0,0.0,0.0,0.0,0.0,0.0,0.0,0.0,0.0,0.0,0.0,0.0,0.0,0.0,0.0,0.0,0.0,0.0,0.0617,0.332,0.9204,0.9822,0.9204,0.7789,0.8958,0.9822,0.9822,0.9822,0.9822,0.9822,0.9822,0.9822,0.9822,0.9822,0.9822,0.9822,0.9822,0.9822,0.9822,0.9822,0.9822,-0.5225,-0.5286,-0.5298,0.0,0.0,0.0,0.0,-0.502,0.0,0.0,0.0,0.0,0.0,0.0,0.0,0.0,0.0,0.0,0.0,0.0,0.0,0.0,0.0,0.0,0.0,-0.7988,-0.7988,-0.7988,-0.7988,-0.8002,-0.8032,-0.8085,-0.7639,-0.6738,-0.5289,-0.3868,-0.2602,-0.1175,-0.0268,0.0,0.0,0.0,0.0,0.0,0.0,0.0,0.0,0.0,0.0,0.0,0.0,0.0,0.0,0.0,0.0,0.0,0.0,0.0,0.0,0.0,0.0,0.0,0.0,0.0,0.0,0.0,0.0,0.0,0.0,0.0,0.0,0.0,0.0,0.0,0.0,0.0,0.0,0.0,0.0,0.0,0.0,0.0,0.0,0.0,0.0,0.0,0.0,0.0,0.0,0.4606,0.8407,0.9636,0.9822,0.9697,0.9329,0.9636,0.9822,0.9822,0.9822,0.9822,0.9822,0.9822,0.9822,0.9822,0.9822,0.9822,0.9822,0.9822,0.9822,0.9822,0.9822,0.9822,0.0,-0.5583,-0.5661,-0.5477,0.0,0.0,0.0,0.0,0.0,0.0,0.0,0.0,0.0,0.0,0.0,0.0,0.0,0.0,0.0,0.0,0.0,0.0,0.0,0.0,0.0,-0.7877,-0.7907,-0.7985,-0.7988,-0.7988,-0.7988,-0.7988,-0.7719,-0.7175,-0.5088,-0.3733,-0.31,-0.1046,0.0,0.0,0.0,0.0,0.0,0.0,0.0,0.0,0.0,0.0,0.0,0.0,0.0,0.0,0.0,0.0,0.0,0.0,0.0,0.0,0.0,0.0,0.0,0.0,0.0,0.0,0.0,0.0,0.0,0.0,0.0,0.0,0.0,0.0,0.0,0.0,0.0,0.0,0.0,0.0,0.0,0.0,0.0,0.0,0.0,0.0,0.0,0.0,0.0,0.1171,0.4484,0.7792,0.9822,0.9822,0.9822,0.9822,0.9822,0.9822,0.9822,0.9822,0.9822,0.9822,0.9822,0.9822,0.9822,0.9822,0.9822,0.9822,0.9822,0.9822,0.9822,0.9822,0.9822,0.9822,0.0,0.0,0.0,0.0,0.0,-0.5813,0.0,0.0,0.0,-0.5382,0.0,0.0,0.0,0.0,0.0,0.0,0.0,0.0,0.0,0.0,0.0,0.0,0.0,0.0,0.0,-0.7658,-0.7729,-0.7891,-0.785,-0.7853,-0.7941,-0.7975,-0.7889,-0.7637,-0.5522,-0.4117,-0.3615,-0.1483,-0.0258,0.0,0.0,0.0,0.0,0.0,0.0,0.0,0.0,0.0,0.0,0.0,0.0,0.0,0.0,0.0,0.0,0.0,0.0,0.0,0.0,0.0,0.0,0.0,0.0,0.0,0.0,0.0,0.0,0.0,0.0,0.0,0.0,0.0,0.0,0.0,0.0,0.0,0.0,0.0,0.0,0.0,0.0,0.0,0.0,0.0,0.0,0.0,0.1048,0.3811,0.9143,0.9822,0.9822,0.9822,0.9822,0.9822,0.9822,0.9822,0.9822,0.9822,0.9822,0.9822,0.9822,0.9822,0.9822,0.9822,0.9822,0.9822,0.9822,0.9822,0.9822,0.9822,0.9822,0.9822,0.0,0.0,0.0,0.0,-0.64,0.0,0.0,0.0,-0.5545,-0.5087,0.0,0.0,0.0,0.0,0.0,0.0,0.0,0.0,0.0,0.0,0.0,0.0,0.0,0.0,0.0,0.0,-0.7204,-0.7617,-0.7351,-0.7371,-0.7818,-0.7917,-0.7434,-0.6279,-0.5929,-0.4622,-0.2264,-0.1917,-0.1163,0.0,0.0,0.0,0.0,0.0,0.0,0.0,0.0,0.0,0.0,0.0,0.0,0.0,0.0,0.0,0.0,0.0,0.0,0.0,0.0,0.0,0.0,0.0,0.0,0.0,0.0,0.0,0.0,0.0,0.0,0.0,0.0,0.0,0.0,0.0,0.0,0.0,0.0,0.0,0.0,0.0,0.0,0.0,0.0,0.0,0.0,0.0,0.4974,0.8961,0.9697,0.9822,0.9822,0.9822,0.9822,0.9822,0.9822,0.9822,0.9822,0.9822,0.9822,0.9822,0.9822,0.9822,0.9822,0.9822,0.9822,0.9822,0.9822,0.9822,0.9822,0.9822,0.9822,0.9822,0.0,0.0,0.0,0.0,0.0,0.0,0.0,0.0,-0.5383,0.0,0.0,0.0,0.0,0.0,0.0,0.0,0.0,0.0,0.0,0.0,0.0,0.0,0.0,0.0,0.0,0.0,0.0,0.0,0.0,-0.685,-0.6552,-0.6649,-0.6158,-0.4868,-0.482,-0.3919,-0.2013,-0.2013,-0.131,0.0,0.0,0.0,0.0,0.0,0.0,0.0,0.0,0.0,0.0,0.0,0.0,0.0,0.0,0.0,0.0,0.0,0.0,0.0,0.0,0.0,0.0,0.0,0.0,0.0,0.0,0.0,0.0,0.0,0.0,0.0,0.0,0.0,0.0,0.0,0.0,0.0,0.0,0.0,0.0,0.0,0.0,0.0,0.0,0.0,0.1294,0.5096,0.8036,0.9822,0.9822,0.9822,0.9822,0.9822,0.9822,0.9822,0.9822,0.9822,0.9822,0.9822,0.9822,0.9822,0.9822,0.9822,0.9822,0.9822,0.9822,0.9822,0.9822,0.9822,0.9822,0.9822,0.9822,0.9822,-0.6966,0.0,0.0,0.0,0.0,0.0,0.0,0.0,0.0,0.0,0.0,0.0,0.0,0.0,0.0,0.0,0.0,0.0,0.0,0.0,0.0,0.0,0.0,0.0,0.0,0.0,0.0,0.0,0.0,0.0,-0.6037,-0.5828,-0.5373,-0.4531,-0.4506,-0.3717,-0.2013,-0.2363,-0.1711,0.0,0.0,0.0,0.0,0.0,0.0,0.0,0.0,0.0,0.0,0.0,0.0,0.0,0.0,0.0,0.0,0.0,0.0,0.0,0.0,0.0,0.0,0.0,0.0,0.0,0.0,0.0,0.0,0.0,0.0,0.0,0.0,0.0,0.0,0.0,0.0,0.0,0.0,0.0,0.0,0.0,0.0,0.0,0.0,0.0,0.2216,0.8836,0.9822,0.9822,0.9822,0.9822,0.9822,0.9822,0.9822,0.9822,0.9822,0.9822,0.9822,0.9822,0.9822,0.9822,0.9822,0.9822,0.9822,0.9822,0.9822,0.9822,0.9822,0.9822,0.9822,0.9822,0.9822,0.9822,0.0,0.0,0.0,-0.6569,0.0,0.0,0.0,0.0,-0.5888,0.0,0.0,0.0,0.0,0.0,0.0,-0.0358,0.0,0.0,0.0,0.0,0.0,0.0,0.0,0.0,0.0,0.0,0.0,0.0,0.0,0.0,-0.7017,-0.6129,-0.5648,-0.5761,-0.5872,-0.4672,-0.2013,-0.3265,-0.2614,0.0,0.0,0.0,0.0,0.0,0.0,0.0,0.0,0.0,0.0,0.0,0.0,0.0,0.0,0.0,0.0,0.0,0.0,0.0,0.0,0.0,0.0,0.0,0.0,0.0,0.0,0.0,0.0,0.0,0.0,0.0,0.0,0.0,0.0,0.0,0.0,0.0,0.0,0.0,0.0,0.0,0.0,0.0,0.0,0.0,0.2216,0.8836,0.9822,0.9822,0.9822,0.9822,0.9822,0.9822,0.9822,0.9822,0.9822,0.9822,0.9822,0.9822,0.9822,0.9822,0.9822,0.9822,0.9822,0.9822,0.9822,0.9822,0.9822,0.9822,0.9822,0.9822,0.9822,0.9822,0.0,0.0,-0.7655,-0.7004,0.0,0.0,0.0,0.0,0.0,0.0,0.0,0.0,0.0,0.0,-0.2277,-0.0301,0.0,0.0,0.0,0.0,0.0,0.0,0.0,0.0,0.0,0.0,0.0,0.0,0.0,0.0,0.0,-0.5056,-0.4393,-0.2053,-0.373,-0.3367,-0.0706,-0.2013,-0.1762,0.0,0.0,0.0,0.0,0.0,0.0,0.0,0.0,0.0,0.0,0.0,0.0,0.0,0.0,0.0,0.0,0.0,0.0,0.0,0.0,0.0,0.0,0.0,0.0,0.0,0.0,0.0,0.0,0.0,0.0,0.0,0.0,0.0,0.0,0.0,0.0,0.0,0.0,0.0,0.0,0.0,0.0,0.0713,0.2871,0.503,0.724,0.9451,0.9822,0.9822,0.9822,0.9822,0.9822,0.9822,0.9822,0.9822,0.9822,0.9822,0.9822,0.9822,0.9822,0.9822,0.9822,0.9822,0.9822,0.9822,0.9822,0.9822,0.9822,0.9822,0.9822,0.9822,0.9822,0.9822,-0.7689,-0.778,0.0,-0.722,-0.7037,0.0,-0.6237,0.0,0.0,0.0,0.0,0.0,0.0,0.0,0.0,-0.1008,-0.0557,0.0,0.0,0.0,0.0,0.0,0.0,0.0,0.0,0.0,-0.3203,-0.4916,0.0,0.0,0.0,0.0,-0.3518,-0.1246,-0.257,-0.2213,0.0,-0.131,-0.131,0.0,0.0,0.0,0.0,0.0,0.0,0.0,0.0,0.0,0.0,0.0,0.0,0.0,0.0,0.0,0.0,0.0,0.0,0.0,0.0,0.0,0.0,0.0,0.0,0.0,0.0,0.0,0.0,0.0,0.0,0.0,0.0,0.0,0.0,0.0,0.0,0.0,0.0,0.0,0.0,0.0,0.0,0.0941,0.385,0.6761,0.8897,0.9697,0.9822,0.9822,0.9822,0.9822,0.9822,0.9822,0.9822,0.9822,0.9822,0.9822,0.9822,0.9822,0.9822,0.9822,0.9822,0.9822,0.9822,0.9822,0.9822,0.9822,0.9822,0.9822,0.9822,0.9822,0.9822,0.9822]}]]